Wetterdaten: Dienstag, 09.01.2018
Datum Zeit Temp. A. Pool Temp. Feuchte A. Luftdruck Regen Wind Richtung Richtung Sonnenschein ET UV Solar Taupunkt Windchill Windben Empfang
09.01.2018 00:00 3,8 C 4,4 C 96 % 1021,4 hPa 0,0 l/m 25,7 km/h (4 Bft) O-NO 67 0 min 0,000 mm 0,0 UV-I 0 W/m 3,2 C -6,8 C 33,8 km/h (5 Bft) 91,30 %
09.01.2018 00:01 3,8 C 4,4 C 96 % 1021,5 hPa 0,0 l/m 25,7 km/h (4 Bft) O-NO 67 0 min 0,000 mm 0,0 UV-I 0 W/m 3,2 C -6,8 C 27,4 km/h (4 Bft) 8,70 %
09.01.2018 00:02 3,8 C 4,4 C 96 % 1021,5 hPa 0,0 l/m 25,7 km/h (4 Bft) N 0 0 min 0,000 mm 0,0 UV-I 0 W/m 3,2 C -6,8 C 0,0 km/h (0 Bft) 0,00 %
09.01.2018 00:03 3,8 C 4,4 C 96 % 1021,5 hPa 0,0 l/m 30,6 km/h (5 Bft) O-NO 67 0 min 0,000 mm 0,0 UV-I 0 W/m 3,2 C -8,2 C 35,4 km/h (5 Bft) 56,52 %
09.01.2018 00:04 3,8 C 4,4 C 96 % 1021,4 hPa 0,0 l/m 26,0 km/h (4 Bft) O-NO 59 0 min 0,000 mm 0,0 UV-I 0 W/m 3,2 C -6,9 C 30,6 km/h (5 Bft) 100,00 %
09.01.2018 00:06 3,8 C 4,4 C 96 % 1021,5 hPa 0,0 l/m 27,2 km/h (4 Bft) O-NO 67 0 min 0,000 mm 0,0 UV-I 0 W/m 3,2 C -7,3 C 37,0 km/h (5 Bft) 97,87 %
09.01.2018 00:08 3,8 C 4,4 C 96 % 1021,5 hPa 0,0 l/m 27,2 km/h (4 Bft) O-NO 67 0 min 0,000 mm 0,0 UV-I 0 W/m 3,2 C -7,3 C 37,0 km/h (5 Bft) 97,87 %
09.01.2018 00:09 3,8 C 4,4 C 96 % 1021,5 hPa 0,0 l/m 27,2 km/h (4 Bft) O-NO 67 0 min 0,000 mm 0,0 UV-I 0 W/m 3,2 C -7,3 C 37,0 km/h (5 Bft) 97,87 %
09.01.2018 00:10 3,8 C 4,4 C 97 % 1021,5 hPa 0,0 l/m 30,6 km/h (5 Bft) O-NO 67 0 min 0,000 mm 0,0 UV-I 0 W/m 3,4 C -8,2 C 41,8 km/h (6 Bft) 86,96 %
09.01.2018 00:12 3,8 C 4,4 C 97 % 1021,4 hPa 0,0 l/m 25,7 km/h (4 Bft) O 86 0 min 0,000 mm 0,0 UV-I 0 W/m 3,4 C -6,8 C 33,8 km/h (5 Bft) 100,00 %
09.01.2018 00:14 3,8 C 4,4 C 97 % 1021,5 hPa 0,0 l/m 27,4 km/h (4 Bft) O 79 0 min 0,000 mm 0,0 UV-I 0 W/m 3,4 C -7,3 C 35,4 km/h (5 Bft) 100,00 %
09.01.2018 00:15 3,8 C 4,4 C 97 % 1021,5 hPa 0,0 l/m 24,1 km/h (4 Bft) O-NO 67 0 min 0,000 mm 0,0 UV-I 0 W/m 3,4 C -6,3 C 30,6 km/h (5 Bft) 100,00 %
09.01.2018 00:16 3,8 C 4,4 C 97 % 1021,4 hPa 0,0 l/m 32,2 km/h (5 Bft) O-NO 67 0 min 0,000 mm 0,0 UV-I 0 W/m 3,4 C -8,6 C 40,2 km/h (6 Bft) 95,65 %
09.01.2018 00:17 3,8 C 4,4 C 97 % 1021,3 hPa 0,0 l/m 27,4 km/h (4 Bft) O-NO 67 0 min 0,000 mm 0,0 UV-I 0 W/m 3,4 C -7,3 C 37,0 km/h (5 Bft) 95,65 %
09.01.2018 00:18 3,7 C 4,4 C 97 % 1021,4 hPa 0,0 l/m 20,9 km/h (4 Bft) O 90 0 min 0,000 mm 0,0 UV-I 0 W/m 3,3 C -5,2 C 29,0 km/h (5 Bft) 100,00 %
09.01.2018 00:20 3,8 C 4,4 C 97 % 1021,4 hPa 0,0 l/m 24,0 km/h (4 Bft) NO 53 0 min 0,000 mm 0,0 UV-I 0 W/m 3,4 C -6,2 C 32,2 km/h (5 Bft) 100,00 %
09.01.2018 00:21 3,7 C 4,4 C 97 % 1021,4 hPa 0,0 l/m 22,5 km/h (4 Bft) O-NO 67 0 min 0,000 mm 0,0 UV-I 0 W/m 3,3 C -5,8 C 29,0 km/h (5 Bft) 95,65 %
09.01.2018 00:22 3,7 C 4,4 C 97 % 1021,3 hPa 0,0 l/m 22,5 km/h (4 Bft) O-NO 67 0 min 0,000 mm 0,0 UV-I 0 W/m 3,3 C -5,8 C 38,6 km/h (5 Bft) 100,00 %
09.01.2018 00:24 3,7 C 4,4 C 97 % 1021,2 hPa 0,0 l/m 29,0 km/h (5 Bft) NO 55 0 min 0,000 mm 0,0 UV-I 0 W/m 3,3 C -7,9 C 38,6 km/h (5 Bft) 100,00 %
09.01.2018 00:26 3,7 C 4,4 C 97 % 1021,2 hPa 0,0 l/m 23,4 km/h (4 Bft) O-NO 61 0 min 0,000 mm 0,0 UV-I 0 W/m 3,3 C -6,2 C 32,2 km/h (5 Bft) 100,00 %
09.01.2018 00:28 3,7 C 4,4 C 97 % 1021,3 hPa 0,0 l/m 24,4 km/h (4 Bft) O 86 0 min 0,000 mm 0,0 UV-I 0 W/m 3,3 C -6,5 C 41,8 km/h (6 Bft) 100,00 %
09.01.2018 00:30 3,8 C 4,4 C 97 % 1021,3 hPa 0,0 l/m 30,4 km/h (5 Bft) NO 46 0 min 0,000 mm 0,0 UV-I 0 W/m 3,4 C -8,2 C 40,2 km/h (6 Bft) 100,00 %
09.01.2018 00:32 3,8 C 4,4 C 97 % 1021,2 hPa 0,0 l/m 28,0 km/h (4 Bft) O-NO 76 0 min 0,000 mm 0,0 UV-I 0 W/m 3,4 C -7,5 C 41,8 km/h (6 Bft) 97,87 %
09.01.2018 00:34 3,8 C 4,4 C 97 % 1021,2 hPa 0,0 l/m 29,9 km/h (5 Bft) O-NO 67 0 min 0,000 mm 0,0 UV-I 0 W/m 3,4 C -8,0 C 41,8 km/h (6 Bft) 97,92 %
09.01.2018 00:36 3,8 C 4,4 C 97 % 1021,2 hPa 0,0 l/m 32,0 km/h (5 Bft) NO 53 0 min 0,000 mm 0,0 UV-I 0 W/m 3,4 C -8,6 C 45,1 km/h (6 Bft) 100,00 %
09.01.2018 00:38 3,8 C 4,4 C 97 % 1021,2 hPa 0,0 l/m 24,6 km/h (4 Bft) O-NO 71 0 min 0,000 mm 0,0 UV-I 0 W/m 3,4 C -6,4 C 33,8 km/h (5 Bft) 97,44 %
09.01.2018 00:40 3,8 C 4,4 C 97 % 1021,2 hPa 0,0 l/m 29,1 km/h (5 Bft) O-NO 73 0 min 0,000 mm 0,0 UV-I 0 W/m 3,4 C -7,8 C 40,2 km/h (6 Bft) 96,23 %
09.01.2018 00:42 3,8 C 4,4 C 97 % 1021,2 hPa 0,0 l/m 26,8 km/h (4 Bft) O-NO 66 0 min 0,000 mm 0,0 UV-I 0 W/m 3,4 C -7,1 C 37,0 km/h (5 Bft) 94,34 %
09.01.2018 00:44 3,8 C 4,4 C 97 % 1021,2 hPa 0,0 l/m 32,6 km/h (5 Bft) O 88 0 min 0,000 mm 0,0 UV-I 0 W/m 3,4 C -8,7 C 43,5 km/h (6 Bft) 94,29 %
09.01.2018 00:46 3,8 C 4,4 C 97 % 1021,2 hPa 0,0 l/m 31,4 km/h (5 Bft) O 81 0 min 0,000 mm 0,0 UV-I 0 W/m 3,4 C -8,4 C 40,2 km/h (6 Bft) 96,23 %
09.01.2018 00:48 3,8 C 4,4 C 97 % 1021,2 hPa 0,0 l/m 24,8 km/h (4 Bft) O-NO 61 0 min 0,000 mm 0,0 UV-I 0 W/m 3,4 C -6,5 C 40,2 km/h (6 Bft) 94,74 %
09.01.2018 00:50 3,8 C 4,4 C 97 % 1021,1 hPa 0,0 l/m 23,3 km/h (4 Bft) O-NO 64 0 min 0,000 mm 0,0 UV-I 0 W/m 3,4 C -6,0 C 32,2 km/h (5 Bft) 96,43 %
09.01.2018 00:52 3,8 C 4,4 C 97 % 1021,0 hPa 0,0 l/m 29,1 km/h (5 Bft) O-NO 70 0 min 0,000 mm 0,0 UV-I 0 W/m 3,4 C -7,8 C 41,8 km/h (6 Bft) 95,45 %
09.01.2018 00:54 3,8 C 4,4 C 97 % 1021,0 hPa 0,0 l/m 29,9 km/h (5 Bft) O-NO 60 0 min 0,000 mm 0,0 UV-I 0 W/m 3,4 C -8,0 C 38,6 km/h (5 Bft) 96,00 %
09.01.2018 00:56 3,8 C 4,4 C 97 % 1021,0 hPa 0,0 l/m 30,4 km/h (5 Bft) O-NO 75 0 min 0,000 mm 0,0 UV-I 0 W/m 3,4 C -8,2 C 40,2 km/h (6 Bft) 95,45 %
09.01.2018 00:58 3,8 C 4,4 C 97 % 1021,1 hPa 0,0 l/m 25,0 km/h (4 Bft) O 81 0 min 0,000 mm 0,0 UV-I 0 W/m 3,4 C -6,6 C 37,0 km/h (5 Bft) 93,62 %
09.01.2018 01:00 3,8 C 4,4 C 97 % 1021,0 hPa 0,0 l/m 29,0 km/h (5 Bft) NO 54 0 min 0,000 mm 0,0 UV-I 0 W/m 3,4 C -7,8 C 40,2 km/h (6 Bft) 91,49 %
09.01.2018 01:02 3,8 C 4,4 C 97 % 1021,0 hPa 0,0 l/m 31,4 km/h (5 Bft) O-NO 69 0 min 0,000 mm 0,0 UV-I 0 W/m 3,4 C -8,4 C 45,1 km/h (6 Bft) 96,23 %
09.01.2018 01:04 3,8 C 4,4 C 97 % 1020,9 hPa 0,0 l/m 25,7 km/h (4 Bft) O-NO 74 0 min 0,000 mm 0,0 UV-I 0 W/m 3,4 C -6,8 C 43,5 km/h (6 Bft) 94,74 %
09.01.2018 01:06 3,8 C 4,4 C 97 % 1020,9 hPa 0,0 l/m 27,1 km/h (4 Bft) O 79 0 min 0,000 mm 0,0 UV-I 0 W/m 3,4 C -7,2 C 37,0 km/h (5 Bft) 92,45 %
09.01.2018 01:08 3,8 C 4,4 C 97 % 1020,9 hPa 0,0 l/m 22,7 km/h (4 Bft) O 92 0 min 0,000 mm 0,0 UV-I 0 W/m 3,4 C -5,8 C 30,6 km/h (5 Bft) 94,74 %
09.01.2018 01:10 3,8 C 4,4 C 97 % 1020,7 hPa 0,0 l/m 27,2 km/h (4 Bft) O-NO 74 0 min 0,000 mm 0,0 UV-I 0 W/m 3,4 C -7,3 C 40,2 km/h (6 Bft) 95,83 %
09.01.2018 01:12 3,8 C 4,4 C 97 % 1020,7 hPa 0,0 l/m 24,8 km/h (4 Bft) O-SO 109 0 min 0,000 mm 0,0 UV-I 0 W/m 3,4 C -6,5 C 33,8 km/h (5 Bft) 98,00 %
09.01.2018 01:14 3,8 C 4,4 C 97 % 1020,7 hPa 0,0 l/m 22,3 km/h (4 Bft) O-NO 74 0 min 0,000 mm 0,0 UV-I 0 W/m 3,4 C -5,6 C 32,2 km/h (5 Bft) 97,87 %
09.01.2018 01:16 3,8 C 4,4 C 97 % 1020,7 hPa 0,0 l/m 22,8 km/h (4 Bft) O-NO 61 0 min 0,000 mm 0,0 UV-I 0 W/m 3,4 C -5,8 C 30,6 km/h (5 Bft) 98,00 %
09.01.2018 01:18 3,8 C 4,4 C 97 % 1020,7 hPa 0,0 l/m 24,7 km/h (4 Bft) O-NO 65 0 min 0,000 mm 0,0 UV-I 0 W/m 3,4 C -6,5 C 33,8 km/h (5 Bft) 94,00 %
09.01.2018 01:20 3,8 C 4,4 C 97 % 1020,6 hPa 0,0 l/m 25,2 km/h (4 Bft) O-NO 74 0 min 0,000 mm 0,0 UV-I 0 W/m 3,4 C -6,6 C 32,2 km/h (5 Bft) 100,00 %
09.01.2018 01:22 3,8 C 4,4 C 97 % 1020,6 hPa 0,0 l/m 25,3 km/h (4 Bft) NO 50 0 min 0,000 mm 0,0 UV-I 0 W/m 3,4 C -6,7 C 33,8 km/h (5 Bft) 96,23 %
09.01.2018 01:24 3,8 C 4,4 C 97 % 1020,6 hPa 0,0 l/m 23,6 km/h (4 Bft) O 81 0 min 0,000 mm 0,0 UV-I 0 W/m 3,4 C -6,1 C 35,4 km/h (5 Bft) 97,73 %
09.01.2018 01:26 3,8 C 4,4 C 97 % 1020,4 hPa 0,0 l/m 23,7 km/h (4 Bft) O-NO 63 0 min 0,000 mm 0,0 UV-I 0 W/m 3,4 C -6,1 C 33,8 km/h (5 Bft) 97,87 %
09.01.2018 01:28 3,8 C 4,4 C 97 % 1020,5 hPa 0,0 l/m 22,7 km/h (4 Bft) O 92 0 min 0,000 mm 0,0 UV-I 0 W/m 3,4 C -5,8 C 30,6 km/h (5 Bft) 96,00 %
09.01.2018 01:30 3,8 C 4,4 C 97 % 1020,4 hPa 0,0 l/m 24,6 km/h (4 Bft) O-NO 71 0 min 0,000 mm 0,0 UV-I 0 W/m 3,4 C -6,4 C 30,6 km/h (5 Bft) 97,87 %
09.01.2018 01:32 3,9 C 4,4 C 97 % 1020,4 hPa 0,0 l/m 22,0 km/h (4 Bft) O-NO 65 0 min 0,000 mm 0,0 UV-I 0 W/m 3,5 C -5,4 C 30,6 km/h (5 Bft) 97,56 %
09.01.2018 01:34 3,9 C 4,4 C 97 % 1020,3 hPa 0,0 l/m 26,2 km/h (4 Bft) O 86 0 min 0,000 mm 0,0 UV-I 0 W/m 3,5 C -6,8 C 30,6 km/h (5 Bft) 98,11 %
09.01.2018 01:36 3,9 C 4,4 C 97 % 1020,1 hPa 0,0 l/m 22,1 km/h (4 Bft) O 90 0 min 0,000 mm 0,0 UV-I 0 W/m 3,5 C -5,4 C 29,0 km/h (5 Bft) 97,73 %
09.01.2018 01:38 3,9 C 4,4 C 97 % 1020,1 hPa 0,0 l/m 28,0 km/h (4 Bft) O 92 0 min 0,000 mm 0,0 UV-I 0 W/m 3,5 C -7,4 C 37,0 km/h (5 Bft) 97,56 %
09.01.2018 01:40 4,0 C 4,4 C 97 % 1020,1 hPa 0,0 l/m 25,4 km/h (4 Bft) O 86 0 min 0,000 mm 0,0 UV-I 0 W/m 3,6 C -6,4 C 33,8 km/h (5 Bft) 97,87 %
09.01.2018 01:42 4,0 C 4,4 C 97 % 1020,1 hPa 0,0 l/m 26,5 km/h (4 Bft) O-NO 61 0 min 0,000 mm 0,0 UV-I 0 W/m 3,6 C -6,8 C 35,4 km/h (5 Bft) 98,11 %
09.01.2018 01:44 4,0 C 4,4 C 97 % 1020,0 hPa 0,0 l/m 24,1 km/h (4 Bft) O-NO 70 0 min 0,000 mm 0,0 UV-I 0 W/m 3,6 C -6,0 C 32,2 km/h (5 Bft) 97,56 %
09.01.2018 01:46 4,1 C 4,4 C 97 % 1020,1 hPa 0,0 l/m 25,4 km/h (4 Bft) O-NO 61 0 min 0,000 mm 0,0 UV-I 0 W/m 3,7 C -6,3 C 35,4 km/h (5 Bft) 96,00 %
09.01.2018 01:48 4,1 C 4,4 C 97 % 1020,1 hPa 0,0 l/m 26,4 km/h (4 Bft) O 81 0 min 0,000 mm 0,0 UV-I 0 W/m 3,7 C -6,6 C 38,6 km/h (5 Bft) 96,00 %
09.01.2018 01:50 4,1 C 4,4 C 97 % 1020,1 hPa 0,0 l/m 21,3 km/h (4 Bft) O-NO 64 0 min 0,000 mm 0,0 UV-I 0 W/m 3,7 C -4,9 C 29,0 km/h (5 Bft) 100,00 %
09.01.2018 01:52 4,1 C 4,4 C 97 % 1020,1 hPa 0,0 l/m 20,4 km/h (4 Bft) O-NO 61 0 min 0,000 mm 0,0 UV-I 0 W/m 3,7 C -4,5 C 32,2 km/h (5 Bft) 98,28 %
09.01.2018 01:54 4,2 C 4,4 C 97 % 1020,2 hPa 0,0 l/m 21,5 km/h (4 Bft) O-NO 61 0 min 0,000 mm 0,0 UV-I 0 W/m 3,8 C -4,8 C 32,2 km/h (5 Bft) 100,00 %
09.01.2018 01:56 4,2 C 4,4 C 97 % 1020,1 hPa 0,0 l/m 22,7 km/h (4 Bft) O-NO 70 0 min 0,000 mm 0,0 UV-I 0 W/m 3,8 C -5,2 C 29,0 km/h (5 Bft) 96,00 %
09.01.2018 01:58 4,2 C 4,4 C 97 % 1020,0 hPa 0,0 l/m 25,7 km/h (4 Bft) O 84 0 min 0,000 mm 0,0 UV-I 0 W/m 3,8 C -6,3 C 35,4 km/h (5 Bft) 100,00 %
09.01.2018 02:00 4,2 C 4,4 C 97 % 1020,0 hPa 0,0 l/m 22,0 km/h (4 Bft) NO 44 0 min 0,000 mm 0,0 UV-I 0 W/m 3,8 C -5,0 C 30,6 km/h (5 Bft) 98,53 %
09.01.2018 02:02 4,3 C 4,4 C 97 % 1020,0 hPa 0,0 l/m 26,0 km/h (4 Bft) O-NO 71 0 min 0,000 mm 0,0 UV-I 0 W/m 3,9 C -6,2 C 37,0 km/h (5 Bft) 97,37 %
09.01.2018 02:04 4,3 C 4,4 C 97 % 1019,8 hPa 0,0 l/m 26,5 km/h (4 Bft) O-NO 72 0 min 0,000 mm 0,0 UV-I 0 W/m 3,9 C -6,4 C 33,8 km/h (5 Bft) 100,00 %
09.01.2018 02:06 4,3 C 4,4 C 97 % 1019,8 hPa 0,0 l/m 23,7 km/h (4 Bft) NO 48 0 min 0,000 mm 0,0 UV-I 0 W/m 3,9 C -5,5 C 32,2 km/h (5 Bft) 100,00 %
09.01.2018 02:08 4,4 C 4,4 C 97 % 1019,9 hPa 0,0 l/m 24,3 km/h (4 Bft) O-NO 70 0 min 0,000 mm 0,0 UV-I 0 W/m 4,0 C -5,5 C 35,4 km/h (5 Bft) 100,00 %
09.01.2018 02:10 4,4 C 4,4 C 97 % 1019,7 hPa 0,0 l/m 28,8 km/h (4 Bft) O-NO 78 0 min 0,000 mm 0,0 UV-I 0 W/m 4,0 C -6,9 C 38,6 km/h (5 Bft) 98,11 %
09.01.2018 02:12 4,4 C 4,4 C 97 % 1019,8 hPa 0,0 l/m 27,8 km/h (4 Bft) O-NO 69 0 min 0,000 mm 0,0 UV-I 0 W/m 4,0 C -6,6 C 35,4 km/h (5 Bft) 100,00 %
09.01.2018 02:14 4,4 C 4,4 C 96 % 1020,0 hPa 0,0 l/m 27,0 km/h (4 Bft) O 88 0 min 0,000 mm 0,0 UV-I 0 W/m 3,8 C -6,4 C 40,2 km/h (6 Bft) 100,00 %
09.01.2018 02:16 4,4 C 4,4 C 96 % 1019,9 hPa 0,0 l/m 22,0 km/h (4 Bft) O 81 0 min 0,000 mm 0,0 UV-I 0 W/m 3,8 C -4,7 C 29,0 km/h (5 Bft) 100,00 %
09.01.2018 02:18 4,4 C 4,4 C 96 % 1019,8 hPa 0,0 l/m 23,4 km/h (4 Bft) O-NO 65 0 min 0,000 mm 0,0 UV-I 0 W/m 3,8 C -5,2 C 27,4 km/h (4 Bft) 98,00 %
09.01.2018 02:20 4,4 C 4,4 C 96 % 1019,7 hPa 0,0 l/m 23,5 km/h (4 Bft) O-NO 66 0 min 0,000 mm 0,0 UV-I 0 W/m 3,8 C -5,3 C 32,2 km/h (5 Bft) 100,00 %
09.01.2018 02:22 4,4 C 4,4 C 96 % 1019,7 hPa 0,0 l/m 25,4 km/h (4 Bft) NO 42 0 min 0,000 mm 0,0 UV-I 0 W/m 3,8 C -5,9 C 35,4 km/h (5 Bft) 100,00 %
09.01.2018 02:24 4,4 C 4,4 C 96 % 1019,7 hPa 0,0 l/m 24,7 km/h (4 Bft) NO 53 0 min 0,000 mm 0,0 UV-I 0 W/m 3,8 C -5,7 C 33,8 km/h (5 Bft) 100,00 %
09.01.2018 02:26 4,4 C 4,4 C 96 % 1019,7 hPa 0,0 l/m 23,9 km/h (4 Bft) O-NO 72 0 min 0,000 mm 0,0 UV-I 0 W/m 3,8 C -5,4 C 33,8 km/h (5 Bft) 100,00 %
09.01.2018 02:28 4,4 C 4,4 C 96 % 1019,6 hPa 0,0 l/m 22,1 km/h (4 Bft) O-NO 67 0 min 0,000 mm 0,0 UV-I 0 W/m 3,8 C -4,8 C 29,0 km/h (5 Bft) 98,31 %
09.01.2018 02:30 4,4 C 4,4 C 96 % 1019,4 hPa 0,0 l/m 22,9 km/h (4 Bft) O-NO 65 0 min 0,000 mm 0,0 UV-I 0 W/m 3,8 C -5,0 C 29,0 km/h (5 Bft) 100,00 %
09.01.2018 02:32 4,4 C 4,4 C 96 % 1019,4 hPa 0,0 l/m 21,8 km/h (4 Bft) O-NO 62 0 min 0,000 mm 0,0 UV-I 0 W/m 3,8 C -4,6 C 30,6 km/h (5 Bft) 100,00 %
09.01.2018 02:34 4,4 C 4,4 C 96 % 1019,5 hPa 0,0 l/m 20,7 km/h (4 Bft) O 80 0 min 0,000 mm 0,0 UV-I 0 W/m 3,8 C -4,2 C 27,4 km/h (4 Bft) 100,00 %
09.01.2018 02:36 4,4 C 4,4 C 96 % 1019,6 hPa 0,0 l/m 23,3 km/h (4 Bft) O-NO 64 0 min 0,000 mm 0,0 UV-I 0 W/m 3,8 C -5,2 C 33,8 km/h (5 Bft) 100,00 %
09.01.2018 02:38 4,3 C 4,4 C 96 % 1019,5 hPa 0,0 l/m 24,9 km/h (4 Bft) O-NO 57 0 min 0,000 mm 0,0 UV-I 0 W/m 3,7 C -5,9 C 37,0 km/h (5 Bft) 97,87 %
09.01.2018 02:40 4,4 C 4,4 C 96 % 1019,6 hPa 0,0 l/m 20,0 km/h (4 Bft) O 79 0 min 0,000 mm 0,0 UV-I 0 W/m 3,8 C -3,9 C 27,4 km/h (4 Bft) 96,43 %
09.01.2018 02:42 4,3 C 4,4 C 96 % 1019,4 hPa 0,0 l/m 20,8 km/h (4 Bft) O-NO 67 0 min 0,000 mm 0,0 UV-I 0 W/m 3,7 C -4,4 C 30,6 km/h (5 Bft) 100,00 %
09.01.2018 02:44 4,3 C 4,4 C 96 % 1019,4 hPa 0,0 l/m 18,5 km/h (3 Bft) O-NO 73 0 min 0,000 mm 0,0 UV-I 0 W/m 3,7 C -3,4 C 24,1 km/h (4 Bft) 94,34 %
09.01.2018 02:46 4,3 C 4,4 C 96 % 1019,4 hPa 0,0 l/m 17,5 km/h (3 Bft) NO 55 0 min 0,000 mm 0,0 UV-I 0 W/m 3,7 C -3,0 C 25,7 km/h (4 Bft) 100,00 %
09.01.2018 02:48 4,3 C 4,4 C 96 % 1019,5 hPa 0,0 l/m 19,9 km/h (4 Bft) O 86 0 min 0,000 mm 0,0 UV-I 0 W/m 3,7 C -4,0 C 29,0 km/h (5 Bft) 96,92 %
09.01.2018 02:50 4,3 C 4,4 C 96 % 1019,5 hPa 0,0 l/m 19,2 km/h (3 Bft) O-NO 77 0 min 0,000 mm 0,0 UV-I 0 W/m 3,7 C -3,7 C 27,4 km/h (4 Bft) 97,37 %
09.01.2018 02:52 4,3 C 4,4 C 96 % 1019,6 hPa 0,0 l/m 21,4 km/h (4 Bft) NO 54 0 min 0,000 mm 0,0 UV-I 0 W/m 3,7 C -4,6 C 29,0 km/h (5 Bft) 97,56 %
09.01.2018 02:54 4,3 C 4,4 C 96 % 1019,5 hPa 0,0 l/m 18,9 km/h (3 Bft) O-NO 74 0 min 0,000 mm 0,0 UV-I 0 W/m 3,7 C -3,6 C 25,7 km/h (4 Bft) 98,11 %
09.01.2018 02:56 4,3 C 4,4 C 96 % 1019,4 hPa 0,0 l/m 22,6 km/h (4 Bft) O-NO 67 0 min 0,000 mm 0,0 UV-I 0 W/m 3,7 C -5,1 C 30,6 km/h (5 Bft) 98,21 %
09.01.2018 02:58 4,3 C 4,4 C 96 % 1019,5 hPa 0,0 l/m 19,5 km/h (3 Bft) O 80 0 min 0,000 mm 0,0 UV-I 0 W/m 3,7 C -3,9 C 27,4 km/h (4 Bft) 97,73 %
09.01.2018 03:00 4,3 C 4,4 C 96 % 1019,5 hPa 0,0 l/m 16,3 km/h (3 Bft) O 84 0 min 0,000 mm 0,0 UV-I 0 W/m 3,7 C -2,4 C 22,5 km/h (4 Bft) 96,08 %
09.01.2018 03:02 4,3 C 4,4 C 96 % 1019,5 hPa 0,0 l/m 17,3 km/h (3 Bft) O-NO 59 0 min 0,000 mm 0,0 UV-I 0 W/m 3,7 C -2,9 C 27,4 km/h (4 Bft) 97,83 %
09.01.2018 03:04 4,3 C 4,4 C 96 % 1019,6 hPa 0,0 l/m 15,4 km/h (3 Bft) O-NO 77 0 min 0,000 mm 0,0 UV-I 0 W/m 3,7 C -2,0 C 25,7 km/h (4 Bft) 98,00 %
09.01.2018 03:06 4,3 C 4,4 C 97 % 1019,5 hPa 0,0 l/m 13,8 km/h (3 Bft) O-NO 62 0 min 0,000 mm 0,0 UV-I 0 W/m 3,9 C -1,1 C 20,9 km/h (4 Bft) 96,30 %
09.01.2018 03:08 4,3 C 4,4 C 96 % 1019,4 hPa 0,0 l/m 12,2 km/h (2 Bft) O-NO 73 0 min 0,000 mm 0,0 UV-I 0 W/m 3,7 C -0,2 C 19,3 km/h (3 Bft) 98,33 %
09.01.2018 03:10 4,3 C 4,4 C 96 % 1019,4 hPa 0,0 l/m 11,6 km/h (2 Bft) O-NO 61 0 min 0,000 mm 0,0 UV-I 0 W/m 3,7 C 0,2 C 16,1 km/h (3 Bft) 95,92 %
09.01.2018 03:12 4,3 C 4,4 C 96 % 1019,4 hPa 0,0 l/m 11,3 km/h (2 Bft) O-NO 64 0 min 0,000 mm 0,0 UV-I 0 W/m 3,7 C 0,4 C 16,1 km/h (3 Bft) 97,44 %
09.01.2018 03:14 4,4 C 4,4 C 96 % 1019,4 hPa 0,0 l/m 13,6 km/h (3 Bft) NO 52 0 min 0,000 mm 0,0 UV-I 0 W/m 3,8 C -0,9 C 19,3 km/h (3 Bft) 98,11 %
09.01.2018 03:16 4,4 C 4,4 C 96 % 1019,2 hPa 0,0 l/m 16,9 km/h (3 Bft) NO 39 0 min 0,000 mm 0,0 UV-I 0 W/m 3,8 C -2,6 C 24,1 km/h (4 Bft) 98,00 %
09.01.2018 03:18 4,4 C 4,4 C 96 % 1019,2 hPa 0,0 l/m 14,1 km/h (3 Bft) NO 54 0 min 0,000 mm 0,0 UV-I 0 W/m 3,8 C -1,2 C 19,3 km/h (3 Bft) 97,87 %
09.01.2018 03:20 4,4 C 4,4 C 97 % 1019,1 hPa 0,0 l/m 15,1 km/h (3 Bft) O-NO 65 0 min 0,000 mm 0,0 UV-I 0 W/m 4,0 C -1,7 C 24,1 km/h (4 Bft) 100,00 %
09.01.2018 03:22 4,4 C 4,4 C 97 % 1019,1 hPa 0,0 l/m 12,8 km/h (3 Bft) O-NO 72 0 min 0,000 mm 0,0 UV-I 0 W/m 4,0 C -0,4 C 17,7 km/h (3 Bft) 100,00 %
09.01.2018 03:24 4,4 C 4,4 C 96 % 1019,0 hPa 0,0 l/m 13,3 km/h (3 Bft) NO 49 0 min 0,000 mm 0,0 UV-I 0 W/m 3,8 C -0,7 C 20,9 km/h (4 Bft) 96,23 %
09.01.2018 03:26 4,4 C 4,4 C 97 % 1019,0 hPa 0,0 l/m 13,4 km/h (3 Bft) NO 54 0 min 0,000 mm 0,0 UV-I 0 W/m 4,0 C -0,8 C 17,7 km/h (3 Bft) 97,37 %
09.01.2018 03:28 4,4 C 4,4 C 97 % 1019,0 hPa 0,0 l/m 12,6 km/h (3 Bft) O-NO 63 0 min 0,000 mm 0,0 UV-I 0 W/m 4,0 C -0,3 C 20,9 km/h (4 Bft) 100,00 %
09.01.2018 03:30 4,4 C 4,4 C 97 % 1019,0 hPa 0,0 l/m 14,1 km/h (3 Bft) NO 53 0 min 0,000 mm 0,0 UV-I 0 W/m 4,0 C -1,2 C 20,9 km/h (4 Bft) 100,00 %
09.01.2018 03:32 4,4 C 4,4 C 97 % 1019,0 hPa 0,0 l/m 17,4 km/h (3 Bft) O-NO 59 0 min 0,000 mm 0,0 UV-I 0 W/m 4,0 C -2,8 C 20,9 km/h (4 Bft) 97,37 %
09.01.2018 03:34 4,4 C 4,4 C 97 % 1019,0 hPa 0,0 l/m 13,0 km/h (3 Bft) NO 36 0 min 0,000 mm 0,0 UV-I 0 W/m 4,0 C -0,5 C 19,3 km/h (3 Bft) 100,00 %
09.01.2018 03:36 4,5 C 4,4 C 96 % 1018,9 hPa 0,0 l/m 13,3 km/h (3 Bft) O-NO 67 0 min 0,000 mm 0,0 UV-I 0 W/m 3,9 C -0,6 C 22,5 km/h (4 Bft) 100,00 %
09.01.2018 03:38 4,5 C 4,4 C 96 % 1018,8 hPa 0,0 l/m 12,7 km/h (3 Bft) NO 38 0 min 0,000 mm 0,0 UV-I 0 W/m 3,9 C -0,2 C 19,3 km/h (3 Bft) 100,00 %
09.01.2018 03:40 4,5 C 4,4 C 96 % 1018,9 hPa 0,0 l/m 12,9 km/h (3 Bft) O-NO 66 0 min 0,000 mm 0,0 UV-I 0 W/m 3,9 C -0,4 C 19,3 km/h (3 Bft) 100,00 %
09.01.2018 03:42 4,5 C 4,4 C 96 % 1019,0 hPa 0,0 l/m 13,2 km/h (3 Bft) O-NO 73 0 min 0,000 mm 0,0 UV-I 0 W/m 3,9 C -0,5 C 19,3 km/h (3 Bft) 100,00 %
09.01.2018 03:44 4,5 C 4,4 C 96 % 1018,9 hPa 0,0 l/m 16,0 km/h (3 Bft) O-NO 67 0 min 0,000 mm 0,0 UV-I 0 W/m 3,9 C -2,0 C 24,1 km/h (4 Bft) 100,00 %
09.01.2018 03:46 4,6 C 4,4 C 96 % 1018,9 hPa 0,0 l/m 12,5 km/h (3 Bft) NO 55 0 min 0,000 mm 0,0 UV-I 0 W/m 4,0 C -0,0 C 17,7 km/h (3 Bft) 100,00 %
09.01.2018 03:48 4,6 C 4,4 C 96 % 1018,9 hPa 0,0 l/m 14,1 km/h (3 Bft) O 92 0 min 0,000 mm 0,0 UV-I 0 W/m 4,0 C -0,9 C 19,3 km/h (3 Bft) 100,00 %
09.01.2018 03:50 4,6 C 4,4 C 96 % 1018,9 hPa 0,0 l/m 15,9 km/h (3 Bft) NO 49 0 min 0,000 mm 0,0 UV-I 0 W/m 4,0 C -1,9 C 19,3 km/h (3 Bft) 97,56 %
09.01.2018 03:52 4,6 C 4,4 C 96 % 1018,8 hPa 0,0 l/m 17,5 km/h (3 Bft) NO 35 0 min 0,000 mm 0,0 UV-I 0 W/m 4,0 C -2,6 C 25,7 km/h (4 Bft) 100,00 %
09.01.2018 03:54 4,6 C 4,4 C 96 % 1018,8 hPa 0,0 l/m 17,0 km/h (3 Bft) O-NO 65 0 min 0,000 mm 0,0 UV-I 0 W/m 4,0 C -2,4 C 25,7 km/h (4 Bft) 97,37 %
09.01.2018 03:56 4,6 C 4,4 C 96 % 1018,7 hPa 0,0 l/m 16,1 km/h (3 Bft) O-NO 78 0 min 0,000 mm 0,0 UV-I 0 W/m 4,0 C -2,0 C 24,1 km/h (4 Bft) 97,56 %
09.01.2018 03:58 4,5 C 4,4 C 96 % 1018,7 hPa 0,0 l/m 16,7 km/h (3 Bft) O-NO 72 0 min 0,000 mm 0,0 UV-I 0 W/m 3,9 C -2,4 C 22,5 km/h (4 Bft) 98,00 %
09.01.2018 04:00 4,5 C 4,4 C 96 % 1018,6 hPa 0,0 l/m 17,7 km/h (3 Bft) O-NO 70 0 min 0,000 mm 0,0 UV-I 0 W/m 3,9 C -2,8 C 24,1 km/h (4 Bft) 98,31 %
09.01.2018 04:02 4,5 C 4,4 C 96 % 1018,6 hPa 0,0 l/m 16,7 km/h (3 Bft) O-NO 69 0 min 0,000 mm 0,0 UV-I 0 W/m 3,9 C -2,4 C 22,5 km/h (4 Bft) 97,37 %
09.01.2018 04:04 4,5 C 4,4 C 96 % 1018,5 hPa 0,0 l/m 16,6 km/h (3 Bft) O-NO 67 0 min 0,000 mm 0,0 UV-I 0 W/m 3,9 C -2,3 C 24,1 km/h (4 Bft) 100,00 %
09.01.2018 04:06 4,4 C 4,4 C 96 % 1018,6 hPa 0,0 l/m 14,4 km/h (3 Bft) NO 55 0 min 0,000 mm 0,0 UV-I 0 W/m 3,8 C -1,3 C 20,9 km/h (4 Bft) 100,00 %
09.01.2018 04:08 4,4 C 4,4 C 96 % 1018,5 hPa 0,0 l/m 16,0 km/h (3 Bft) O-NO 67 0 min 0,000 mm 0,0 UV-I 0 W/m 3,8 C -2,2 C 22,5 km/h (4 Bft) 100,00 %
09.01.2018 04:10 4,4 C 4,4 C 96 % 1018,5 hPa 0,0 l/m 15,8 km/h (3 Bft) O-NO 61 0 min 0,000 mm 0,0 UV-I 0 W/m 3,8 C -2,1 C 24,1 km/h (4 Bft) 98,11 %
09.01.2018 04:12 4,4 C 4,4 C 96 % 1018,5 hPa 0,0 l/m 12,4 km/h (3 Bft) NO 47 0 min 0,000 mm 0,0 UV-I 0 W/m 3,8 C -0,2 C 19,3 km/h (3 Bft) 100,00 %
09.01.2018 04:14 4,4 C 4,4 C 96 % 1018,5 hPa 0,0 l/m 14,9 km/h (3 Bft) O 81 0 min 0,000 mm 0,0 UV-I 0 W/m 3,8 C -1,6 C 19,3 km/h (3 Bft) 98,00 %
09.01.2018 04:16 4,5 C 4,4 C 96 % 1018,4 hPa 0,0 l/m 14,4 km/h (3 Bft) O-NO 66 0 min 0,000 mm 0,0 UV-I 0 W/m 3,9 C -1,2 C 20,9 km/h (4 Bft) 100,00 %
09.01.2018 04:18 4,5 C 4,4 C 96 % 1018,4 hPa 0,0 l/m 11,4 km/h (2 Bft) O-NO 64 0 min 0,000 mm 0,0 UV-I 0 W/m 3,9 C 0,6 C 17,7 km/h (3 Bft) 97,87 %
09.01.2018 04:20 4,5 C 4,4 C 96 % 1018,4 hPa 0,0 l/m 9,8 km/h (2 Bft) NO 52 0 min 0,000 mm 0,0 UV-I 0 W/m 3,9 C 1,7 C 14,5 km/h (3 Bft) 100,00 %
09.01.2018 04:22 4,4 C 4,4 C 96 % 1018,4 hPa 0,0 l/m 10,0 km/h (2 Bft) N-NO 19 0 min 0,000 mm 0,0 UV-I 0 W/m 3,8 C 1,4 C 16,1 km/h (3 Bft) 100,00 %
09.01.2018 04:24 4,3 C 4,4 C 95 % 1018,3 hPa 0,0 l/m 7,6 km/h (2 Bft) N-NO 22 0 min 0,000 mm 0,0 UV-I 0 W/m 3,6 C 3,2 C 11,3 km/h (2 Bft) 100,00 %
09.01.2018 04:26 4,2 C 4,4 C 96 % 1018,4 hPa 0,0 l/m 10,2 km/h (2 Bft) NO 49 0 min 0,000 mm 0,0 UV-I 0 W/m 3,6 C 1,0 C 14,5 km/h (3 Bft) 100,00 %
09.01.2018 04:28 4,2 C 4,4 C 96 % 1018,4 hPa 0,0 l/m 9,8 km/h (2 Bft) O-NO 65 0 min 0,000 mm 0,0 UV-I 0 W/m 3,6 C 1,3 C 14,5 km/h (3 Bft) 100,00 %
09.01.2018 04:30 4,2 C 4,4 C 96 % 1018,3 hPa 0,0 l/m 8,0 km/h (2 Bft) NO 41 0 min 0,000 mm 0,0 UV-I 0 W/m 3,6 C 2,8 C 14,5 km/h (3 Bft) 97,37 %
09.01.2018 04:32 4,2 C 4,4 C 96 % 1018,3 hPa 0,0 l/m 9,7 km/h (2 Bft) O-NO 58 0 min 0,000 mm 0,0 UV-I 0 W/m 3,6 C 1,4 C 16,1 km/h (3 Bft) 97,87 %
09.01.2018 04:34 4,2 C 4,4 C 96 % 1018,3 hPa 0,0 l/m 10,7 km/h (2 Bft) NO 56 0 min 0,000 mm 0,0 UV-I 0 W/m 3,6 C 0,7 C 14,5 km/h (3 Bft) 100,00 %
09.01.2018 04:36 4,3 C 4,4 C 96 % 1018,1 hPa 0,0 l/m 11,3 km/h (2 Bft) NO 34 0 min 0,000 mm 0,0 UV-I 0 W/m 3,7 C 0,4 C 16,1 km/h (3 Bft) 100,00 %
09.01.2018 04:38 4,1 C 4,4 C 96 % 1017,9 hPa 0,0 l/m 13,4 km/h (3 Bft) NO 51 0 min 0,000 mm 0,0 UV-I 0 W/m 3,5 C -1,1 C 17,7 km/h (3 Bft) 98,00 %
09.01.2018 04:40 4,1 C 4,4 C 96 % 1018,0 hPa 0,0 l/m 12,6 km/h (3 Bft) NO 36 0 min 0,000 mm 0,0 UV-I 0 W/m 3,5 C -0,7 C 19,3 km/h (3 Bft) 100,00 %
09.01.2018 04:42 4,1 C 4,4 C 96 % 1017,9 hPa 0,0 l/m 10,0 km/h (2 Bft) NO 34 0 min 0,000 mm 0,0 UV-I 0 W/m 3,5 C 1,1 C 16,1 km/h (3 Bft) 100,00 %
09.01.2018 04:44 4,0 C 4,4 C 96 % 1017,9 hPa 0,0 l/m 8,6 km/h (2 Bft) O-NO 65 0 min 0,000 mm 0,0 UV-I 0 W/m 3,4 C 2,0 C 12,9 km/h (3 Bft) 97,56 %
09.01.2018 04:46 4,0 C 4,4 C 96 % 1018,2 hPa 0,0 l/m 8,3 km/h (2 Bft) O-NO 65 0 min 0,000 mm 0,0 UV-I 0 W/m 3,4 C 2,3 C 12,9 km/h (3 Bft) 94,34 %
09.01.2018 04:48 4,0 C 4,4 C 96 % 1018,2 hPa 0,0 l/m 9,2 km/h (2 Bft) NO 53 0 min 0,000 mm 0,0 UV-I 0 W/m 3,4 C 1,6 C 14,5 km/h (3 Bft) 98,00 %
09.01.2018 04:50 4,1 C 4,4 C 96 % 1018,1 hPa 0,0 l/m 9,5 km/h (2 Bft) NO 55 0 min 0,000 mm 0,0 UV-I 0 W/m 3,5 C 1,4 C 14,5 km/h (3 Bft) 97,87 %
09.01.2018 04:52 4,1 C 4,4 C 96 % 1018,0 hPa 0,0 l/m 8,2 km/h (2 Bft) N-NO 30 0 min 0,000 mm 0,0 UV-I 0 W/m 3,5 C 2,5 C 12,9 km/h (3 Bft) 94,29 %
09.01.2018 04:54 4,2 C 4,4 C 96 % 1018,2 hPa 0,0 l/m 8,1 km/h (2 Bft) O-NO 63 0 min 0,000 mm 0,0 UV-I 0 W/m 3,6 C 2,7 C 11,3 km/h (2 Bft) 95,45 %
09.01.2018 04:56 4,2 C 4,4 C 96 % 1017,9 hPa 0,0 l/m 13,8 km/h (3 Bft) NO 36 0 min 0,000 mm 0,0 UV-I 0 W/m 3,6 C -1,2 C 20,9 km/h (4 Bft) 94,00 %
09.01.2018 04:58 4,3 C 4,4 C 96 % 1017,9 hPa 0,0 l/m 11,0 km/h (2 Bft) NO 53 0 min 0,000 mm 0,0 UV-I 0 W/m 3,7 C 0,6 C 14,5 km/h (3 Bft) 92,00 %
09.01.2018 05:00 4,5 C 4,4 C 96 % 1017,9 hPa 0,0 l/m 12,7 km/h (3 Bft) NO 55 0 min 0,000 mm 0,0 UV-I 0 W/m 3,9 C -0,2 C 20,9 km/h (4 Bft) 94,87 %
09.01.2018 05:02 4,7 C 4,4 C 96 % 1017,9 hPa 0,0 l/m 12,8 km/h (3 Bft) O-NO 70 0 min 0,000 mm 0,0 UV-I 0 W/m 4,1 C -0,1 C 17,7 km/h (3 Bft) 96,23 %
09.01.2018 05:04 4,7 C 4,4 C 95 % 1017,9 hPa 0,0 l/m 10,6 km/h (2 Bft) O-NO 75 0 min 0,000 mm 0,0 UV-I 0 W/m 4,0 C 1,3 C 17,7 km/h (3 Bft) 94,00 %
09.01.2018 05:06 4,8 C 4,4 C 95 % 1017,8 hPa 0,0 l/m 13,2 km/h (3 Bft) O-NO 76 0 min 0,000 mm 0,0 UV-I 0 W/m 4,1 C -0,2 C 20,9 km/h (4 Bft) 95,74 %
09.01.2018 05:08 5,1 C 4,4 C 95 % 1017,8 hPa 0,0 l/m 13,0 km/h (3 Bft) O 96 0 min 0,000 mm 0,0 UV-I 0 W/m 4,4 C 0,3 C 17,7 km/h (3 Bft) 96,00 %
09.01.2018 05:10 5,2 C 4,4 C 94 % 1017,9 hPa 0,0 l/m 13,8 km/h (3 Bft) O 84 0 min 0,000 mm 0,0 UV-I 0 W/m 4,3 C -0,0 C 20,9 km/h (4 Bft) 92,31 %
09.01.2018 05:12 5,4 C 4,4 C 94 % 1017,7 hPa 0,0 l/m 17,9 km/h (3 Bft) NO 48 0 min 0,000 mm 0,0 UV-I 0 W/m 4,5 C -1,8 C 24,1 km/h (4 Bft) 97,06 %
09.01.2018 05:14 5,7 C 4,4 C 93 % 1017,7 hPa 0,0 l/m 17,6 km/h (3 Bft) O-NO 64 0 min 0,000 mm 0,0 UV-I 0 W/m 4,7 C -1,3 C 24,1 km/h (4 Bft) 94,00 %
09.01.2018 05:16 5,7 C 4,4 C 92 % 1017,8 hPa 0,0 l/m 14,0 km/h (3 Bft) O-NO 65 0 min 0,000 mm 0,0 UV-I 0 W/m 4,5 C 0,4 C 22,5 km/h (4 Bft) 97,37 %
09.01.2018 05:18 5,8 C 4,4 C 93 % 1017,6 hPa 0,0 l/m 18,6 km/h (3 Bft) O-NO 65 0 min 0,000 mm 0,0 UV-I 0 W/m 4,8 C -1,6 C 25,7 km/h (4 Bft) 93,62 %
09.01.2018 05:20 5,9 C 4,4 C 92 % 1017,6 hPa 0,0 l/m 22,2 km/h (4 Bft) O 91 0 min 0,000 mm 0,0 UV-I 0 W/m 4,7 C -2,8 C 33,8 km/h (5 Bft) 96,00 %
09.01.2018 05:22 6,0 C 4,4 C 91 % 1017,6 hPa 0,0 l/m 16,5 km/h (3 Bft) O-NO 73 0 min 0,000 mm 0,0 UV-I 0 W/m 4,6 C -0,4 C 22,5 km/h (4 Bft) 98,00 %
09.01.2018 05:24 6,1 C 4,4 C 91 % 1017,7 hPa 0,0 l/m 16,5 km/h (3 Bft) O-NO 57 0 min 0,000 mm 0,0 UV-I 0 W/m 4,7 C -0,3 C 25,7 km/h (4 Bft) 97,87 %
09.01.2018 05:26 6,2 C 4,4 C 91 % 1017,8 hPa 0,0 l/m 15,5 km/h (3 Bft) O-NO 67 0 min 0,000 mm 0,0 UV-I 0 W/m 4,8 C 0,3 C 24,1 km/h (4 Bft) 97,56 %
09.01.2018 05:28 6,2 C 4,4 C 91 % 1017,6 hPa 0,0 l/m 14,7 km/h (3 Bft) O 87 0 min 0,000 mm 0,0 UV-I 0 W/m 4,8 C 0,7 C 24,1 km/h (4 Bft) 98,00 %
09.01.2018 05:30 6,2 C 4,4 C 91 % 1017,6 hPa 0,0 l/m 18,3 km/h (3 Bft) O 86 0 min 0,000 mm 0,0 UV-I 0 W/m 4,8 C -1,0 C 24,1 km/h (4 Bft) 94,00 %
09.01.2018 05:32 6,2 C 4,4 C 91 % 1017,6 hPa 0,0 l/m 15,1 km/h (3 Bft) O-NO 76 0 min 0,000 mm 0,0 UV-I 0 W/m 4,8 C 0,5 C 20,9 km/h (4 Bft) 97,37 %
09.01.2018 05:34 6,1 C 4,4 C 91 % 1017,6 hPa 0,0 l/m 13,7 km/h (3 Bft) NO 51 0 min 0,000 mm 0,0 UV-I 0 W/m 4,7 C 1,1 C 22,5 km/h (4 Bft) 98,11 %
09.01.2018 05:36 6,2 C 4,4 C 91 % 1017,6 hPa 0,0 l/m 18,4 km/h (3 Bft) O-NO 62 0 min 0,000 mm 0,0 UV-I 0 W/m 4,8 C -1,0 C 24,1 km/h (4 Bft) 97,22 %
09.01.2018 05:38 6,2 C 4,4 C 91 % 1017,6 hPa 0,0 l/m 19,6 km/h (3 Bft) O-NO 67 0 min 0,000 mm 0,0 UV-I 0 W/m 4,8 C -1,5 C 25,7 km/h (4 Bft) 98,18 %
09.01.2018 05:40 6,2 C 4,4 C 90 % 1017,5 hPa 0,0 l/m 11,2 km/h (2 Bft) NO 56 0 min 0,000 mm 0,0 UV-I 0 W/m 4,7 C 2,6 C 17,7 km/h (3 Bft) 96,23 %
09.01.2018 05:42 6,2 C 4,4 C 90 % 1017,4 hPa 0,0 l/m 11,4 km/h (2 Bft) NO 49 0 min 0,000 mm 0,0 UV-I 0 W/m 4,7 C 2,5 C 19,3 km/h (3 Bft) 97,44 %
09.01.2018 05:44 6,2 C 4,4 C 91 % 1017,4 hPa 0,0 l/m 9,9 km/h (2 Bft) O-SO 121 0 min 0,000 mm 0,0 UV-I 0 W/m 4,8 C 3,5 C 20,9 km/h (4 Bft) 98,11 %
09.01.2018 05:46 6,2 C 4,4 C 91 % 1017,4 hPa 0,0 l/m 14,1 km/h (3 Bft) O 98 0 min 0,000 mm 0,0 UV-I 0 W/m 4,8 C 1,0 C 25,7 km/h (4 Bft) 97,37 %
09.01.2018 05:48 6,2 C 4,4 C 90 % 1017,3 hPa 0,0 l/m 11,3 km/h (2 Bft) O 92 0 min 0,000 mm 0,0 UV-I 0 W/m 4,7 C 2,6 C 16,1 km/h (3 Bft) 94,00 %
09.01.2018 05:50 6,2 C 4,4 C 91 % 1017,3 hPa 0,0 l/m 18,3 km/h (3 Bft) O 86 0 min 0,000 mm 0,0 UV-I 0 W/m 4,8 C -1,0 C 25,7 km/h (4 Bft) 98,11 %
09.01.2018 05:52 6,3 C 4,4 C 91 % 1017,3 hPa 0,0 l/m 20,8 km/h (4 Bft) O-NO 75 0 min 0,000 mm 0,0 UV-I 0 W/m 4,9 C -1,8 C 30,6 km/h (5 Bft) 97,56 %
09.01.2018 05:54 6,3 C 4,4 C 91 % 1017,2 hPa 0,0 l/m 22,8 km/h (4 Bft) NO 55 0 min 0,000 mm 0,0 UV-I 0 W/m 4,9 C -2,5 C 30,6 km/h (5 Bft) 97,73 %
09.01.2018 05:56 6,4 C 4,4 C 90 % 1017,2 hPa 0,0 l/m 22,7 km/h (4 Bft) O-NO 64 0 min 0,000 mm 0,0 UV-I 0 W/m 4,9 C -2,3 C 33,8 km/h (5 Bft) 98,00 %
09.01.2018 05:58 6,4 C 4,4 C 90 % 1017,1 hPa 0,0 l/m 18,2 km/h (3 Bft) O-NO 63 0 min 0,000 mm 0,0 UV-I 0 W/m 4,9 C -0,7 C 25,7 km/h (4 Bft) 95,12 %
09.01.2018 06:00 6,4 C 4,4 C 90 % 1017,1 hPa 0,0 l/m 22,3 km/h (4 Bft) O-NO 70 0 min 0,000 mm 0,0 UV-I 0 W/m 4,9 C -2,2 C 32,2 km/h (5 Bft) 98,11 %
09.01.2018 06:02 6,4 C 4,4 C 90 % 1017,0 hPa 0,0 l/m 22,7 km/h (4 Bft) O-NO 68 0 min 0,025 mm 0,0 UV-I 0 W/m 4,9 C -2,3 C 32,2 km/h (5 Bft) 95,74 %
09.01.2018 06:04 6,4 C 4,4 C 90 % 1017,0 hPa 0,0 l/m 27,1 km/h (4 Bft) O 87 0 min 0,000 mm 0,0 UV-I 0 W/m 4,9 C -3,7 C 33,8 km/h (5 Bft) 100,00 %
09.01.2018 06:06 6,5 C 4,4 C 90 % 1016,9 hPa 0,0 l/m 24,6 km/h (4 Bft) O 82 0 min 0,000 mm 0,0 UV-I 0 W/m 5,0 C -2,8 C 35,4 km/h (5 Bft) 98,28 %
09.01.2018 06:08 6,6 C 4,4 C 90 % 1017,0 hPa 0,0 l/m 24,7 km/h (4 Bft) O-NO 67 0 min 0,000 mm 0,0 UV-I 0 W/m 5,1 C -2,7 C 38,6 km/h (5 Bft) 96,61 %
09.01.2018 06:10 6,6 C 4,4 C 89 % 1017,0 hPa 0,0 l/m 21,7 km/h (4 Bft) O-NO 58 0 min 0,000 mm 0,0 UV-I 0 W/m 4,9 C -1,7 C 32,2 km/h (5 Bft) 98,00 %
09.01.2018 06:12 6,6 C 4,4 C 89 % 1016,9 hPa 0,0 l/m 24,5 km/h (4 Bft) O 82 0 min 0,000 mm 0,0 UV-I 0 W/m 4,9 C -2,6 C 32,2 km/h (5 Bft) 100,00 %
09.01.2018 06:14 6,6 C 4,4 C 89 % 1016,9 hPa 0,0 l/m 24,1 km/h (4 Bft) O-NO 63 0 min 0,000 mm 0,0 UV-I 0 W/m 4,9 C -2,5 C 32,2 km/h (5 Bft) 100,00 %
09.01.2018 06:16 6,6 C 4,4 C 90 % 1016,6 hPa 0,0 l/m 25,1 km/h (4 Bft) NO 44 0 min 0,000 mm 0,0 UV-I 0 W/m 5,1 C -2,8 C 38,6 km/h (5 Bft) 98,11 %
09.01.2018 06:18 6,6 C 4,4 C 90 % 1016,7 hPa 0,0 l/m 28,4 km/h (4 Bft) O-NO 57 0 min 0,000 mm 0,0 UV-I 0 W/m 5,1 C -3,7 C 37,0 km/h (5 Bft) 100,00 %
09.01.2018 06:20 6,6 C 4,4 C 89 % 1016,7 hPa 0,0 l/m 25,6 km/h (4 Bft) O-NO 64 0 min 0,000 mm 0,0 UV-I 0 W/m 4,9 C -3,0 C 32,2 km/h (5 Bft) 100,00 %
09.01.2018 06:22 6,6 C 4,4 C 89 % 1016,7 hPa 0,0 l/m 30,8 km/h (5 Bft) O 83 0 min 0,000 mm 0,0 UV-I 0 W/m 4,9 C -4,3 C 45,1 km/h (6 Bft) 100,00 %
09.01.2018 06:24 6,6 C 4,4 C 89 % 1016,6 hPa 0,0 l/m 26,8 km/h (4 Bft) O-NO 64 0 min 0,000 mm 0,0 UV-I 0 W/m 4,9 C -3,3 C 40,2 km/h (6 Bft) 100,00 %
09.01.2018 06:26 6,6 C 4,4 C 89 % 1016,6 hPa 0,0 l/m 30,8 km/h (5 Bft) NO 51 0 min 0,000 mm 0,0 UV-I 0 W/m 4,9 C -4,3 C 41,8 km/h (6 Bft) 100,00 %
09.01.2018 06:28 6,6 C 4,4 C 89 % 1016,4 hPa 0,0 l/m 30,0 km/h (5 Bft) O 92 0 min 0,000 mm 0,0 UV-I 0 W/m 4,9 C -4,1 C 45,1 km/h (6 Bft) 97,56 %
09.01.2018 06:30 6,6 C 4,4 C 89 % 1016,5 hPa 0,0 l/m 27,4 km/h (4 Bft) O-NO 73 0 min 0,000 mm 0,0 UV-I 0 W/m 4,9 C -3,5 C 38,6 km/h (5 Bft) 100,00 %
09.01.2018 06:32 6,6 C 4,4 C 89 % 1016,4 hPa 0,0 l/m 27,6 km/h (4 Bft) O-NO 69 0 min 0,000 mm 0,0 UV-I 0 W/m 4,9 C -3,5 C 37,0 km/h (5 Bft) 98,11 %
09.01.2018 06:34 6,6 C 4,4 C 89 % 1016,4 hPa 0,0 l/m 26,2 km/h (4 Bft) NO 53 0 min 0,000 mm 0,0 UV-I 0 W/m 4,9 C -3,1 C 38,6 km/h (5 Bft) 97,37 %
09.01.2018 06:36 6,7 C 4,4 C 89 % 1016,3 hPa 0,0 l/m 29,9 km/h (5 Bft) O-SO 105 0 min 0,000 mm 0,0 UV-I 0 W/m 5,0 C -4,0 C 46,7 km/h (6 Bft) 98,21 %
09.01.2018 06:38 6,7 C 4,4 C 89 % 1016,3 hPa 0,0 l/m 27,4 km/h (4 Bft) O-NO 71 0 min 0,000 mm 0,0 UV-I 0 W/m 5,0 C -3,3 C 40,2 km/h (6 Bft) 100,00 %
09.01.2018 06:40 6,7 C 4,4 C 89 % 1016,3 hPa 0,0 l/m 27,2 km/h (4 Bft) O-NO 64 0 min 0,000 mm 0,0 UV-I 0 W/m 5,0 C -3,3 C 35,4 km/h (5 Bft) 100,00 %
09.01.2018 06:43 6,7 C 4,4 C 89 % 1016,4 hPa 0,0 l/m 28,6 km/h (4 Bft) O-NO 71 0 min 0,000 mm 0,0 UV-I 0 W/m 5,0 C -3,6 C 40,2 km/h (6 Bft) 100,00 %
09.01.2018 06:44 6,7 C 4,4 C 89 % 1016,4 hPa 0,0 l/m 35,8 km/h (5 Bft) O-NO 63 0 min 0,000 mm 0,0 UV-I 0 W/m 5,0 C -5,2 C 46,7 km/h (6 Bft) 100,00 %
09.01.2018 06:46 6,7 C 4,4 C 89 % 1016,4 hPa 0,0 l/m 24,1 km/h (4 Bft) O 82 0 min 0,000 mm 0,0 UV-I 0 W/m 5,0 C -2,4 C 46,7 km/h (6 Bft) 100,00 %
09.01.2018 06:48 6,8 C 4,4 C 89 % 1016,3 hPa 0,0 l/m 31,6 km/h (5 Bft) O 86 0 min 0,000 mm 0,0 UV-I 0 W/m 5,1 C -4,2 C 48,3 km/h (6 Bft) 95,74 %
09.01.2018 06:50 6,8 C 4,4 C 89 % 1016,3 hPa 0,0 l/m 30,2 km/h (5 Bft) O 81 0 min 0,000 mm 0,0 UV-I 0 W/m 5,1 C -3,9 C 38,6 km/h (5 Bft) 97,87 %
09.01.2018 06:52 6,8 C 4,4 C 89 % 1016,1 hPa 0,0 l/m 32,4 km/h (5 Bft) O-NO 71 0 min 0,000 mm 0,0 UV-I 0 W/m 5,1 C -4,4 C 41,8 km/h (6 Bft) 98,11 %
09.01.2018 06:54 6,8 C 4,4 C 89 % 1016,2 hPa 0,0 l/m 25,4 km/h (4 Bft) O-NO 72 0 min 0,000 mm 0,0 UV-I 0 W/m 5,1 C -2,6 C 37,0 km/h (5 Bft) 95,24 %
09.01.2018 06:56 6,8 C 4,4 C 89 % 1016,2 hPa 0,0 l/m 30,5 km/h (5 Bft) O 88 0 min 0,000 mm 0,0 UV-I 0 W/m 5,1 C -4,0 C 43,5 km/h (6 Bft) 95,12 %
09.01.2018 06:58 6,8 C 4,4 C 89 % 1016,1 hPa 0,0 l/m 25,5 km/h (4 Bft) NO 56 0 min 0,000 mm 0,0 UV-I 0 W/m 5,1 C -2,7 C 35,4 km/h (5 Bft) 98,00 %
09.01.2018 07:00 6,8 C 4,4 C 89 % 1016,0 hPa 0,0 l/m 26,6 km/h (4 Bft) O 96 0 min 0,026 mm 0,0 UV-I 0 W/m 5,1 C -3,0 C 38,6 km/h (5 Bft) 96,00 %
09.01.2018 07:02 6,8 C 4,4 C 89 % 1016,1 hPa 0,0 l/m 29,1 km/h (5 Bft) O-NO 63 0 min 0,000 mm 0,0 UV-I 0 W/m 5,1 C -3,6 C 40,2 km/h (6 Bft) 97,87 %
09.01.2018 07:04 6,8 C 4,4 C 89 % 1016,1 hPa 0,0 l/m 25,9 km/h (4 Bft) O-NO 63 0 min 0,000 mm 0,0 UV-I 0 W/m 5,1 C -2,8 C 35,4 km/h (5 Bft) 93,18 %
09.01.2018 07:06 6,7 C 4,4 C 89 % 1016,1 hPa 0,0 l/m 27,6 km/h (4 Bft) O 84 0 min 0,000 mm 0,0 UV-I 0 W/m 5,0 C -3,4 C 37,0 km/h (5 Bft) 96,00 %
09.01.2018 07:08 6,8 C 4,4 C 89 % 1016,1 hPa 0,0 l/m 28,7 km/h (4 Bft) O-NO 63 0 min 0,000 mm 0,0 UV-I 0 W/m 5,1 C -3,5 C 38,6 km/h (5 Bft) 98,21 %
09.01.2018 07:10 6,8 C 4,4 C 89 % 1015,8 hPa 0,0 l/m 34,9 km/h (5 Bft) NO 55 0 min 0,000 mm 0,0 UV-I 0 W/m 5,1 C -4,9 C 43,5 km/h (6 Bft) 95,45 %
09.01.2018 07:12 6,8 C 4,4 C 89 % 1015,9 hPa 0,0 l/m 29,3 km/h (5 Bft) O-NO 78 0 min 0,000 mm 0,0 UV-I 0 W/m 5,1 C -3,7 C 43,5 km/h (6 Bft) 98,00 %
09.01.2018 07:14 6,8 C 4,4 C 89 % 1015,8 hPa 0,0 l/m 30,6 km/h (5 Bft) O-NO 69 0 min 0,000 mm 0,0 UV-I 0 W/m 5,1 C -4,0 C 51,5 km/h (7 Bft) 97,14 %
09.01.2018 07:16 6,8 C 4,4 C 89 % 1015,9 hPa 0,0 l/m 24,3 km/h (4 Bft) O-NO 75 0 min 0,000 mm 0,0 UV-I 0 W/m 5,1 C -2,3 C 43,5 km/h (6 Bft) 95,74 %
09.01.2018 07:18 6,8 C 4,4 C 89 % 1015,8 hPa 0,0 l/m 28,4 km/h (4 Bft) O 90 0 min 0,000 mm 0,0 UV-I 0 W/m 5,1 C -3,4 C 40,2 km/h (6 Bft) 98,11 %
09.01.2018 07:20 6,8 C 4,4 C 89 % 1015,7 hPa 0,0 l/m 28,1 km/h (4 Bft) O-NO 59 0 min 0,000 mm 0,0 UV-I 0 W/m 5,1 C -3,4 C 38,6 km/h (5 Bft) 95,12 %
09.01.2018 07:22 6,8 C 4,4 C 89 % 1015,8 hPa 0,0 l/m 28,9 km/h (5 Bft) O 101 0 min 0,000 mm 0,0 UV-I 0 W/m 5,1 C -3,6 C 46,7 km/h (6 Bft) 98,11 %
09.01.2018 07:24 6,8 C 4,4 C 89 % 1015,7 hPa 0,0 l/m 27,6 km/h (4 Bft) NO 38 0 min 0,000 mm 0,0 UV-I 0 W/m 5,1 C -3,2 C 37,0 km/h (5 Bft) 100,00 %
09.01.2018 07:26 6,8 C 4,4 C 89 % 1015,7 hPa 0,0 l/m 28,8 km/h (4 Bft) O-NO 74 0 min 0,000 mm 0,0 UV-I 0 W/m 5,1 C -3,5 C 41,8 km/h (6 Bft) 97,56 %
09.01.2018 07:28 6,8 C 4,4 C 89 % 1015,8 hPa 0,0 l/m 27,6 km/h (4 Bft) O-SO 105 0 min 0,000 mm 0,0 UV-I 0 W/m 5,1 C -3,2 C 38,6 km/h (5 Bft) 100,00 %
09.01.2018 07:30 6,8 C 4,4 C 89 % 1015,8 hPa 0,0 l/m 27,6 km/h (4 Bft) O-NO 72 0 min 0,000 mm 0,0 UV-I 0 W/m 5,1 C -3,2 C 45,1 km/h (6 Bft) 100,00 %
09.01.2018 07:32 6,8 C 4,4 C 89 % 1015,7 hPa 0,0 l/m 27,7 km/h (4 Bft) NO 51 0 min 0,000 mm 0,0 UV-I 0 W/m 5,1 C -3,3 C 35,4 km/h (5 Bft) 100,00 %
09.01.2018 07:34 6,8 C 4,4 C 89 % 1015,8 hPa 0,0 l/m 23,1 km/h (4 Bft) O 81 0 min 0,000 mm 0,0 UV-I 0 W/m 5,1 C -1,9 C 37,0 km/h (5 Bft) 100,00 %
09.01.2018 07:36 6,8 C 4,4 C 89 % 1015,7 hPa 0,0 l/m 24,2 km/h (4 Bft) O-NO 76 0 min 0,000 mm 0,0 UV-I 0 W/m 5,1 C -2,3 C 33,8 km/h (5 Bft) 100,00 %
09.01.2018 07:38 6,8 C 4,4 C 89 % 1015,5 hPa 0,0 l/m 28,3 km/h (4 Bft) O-NO 77 0 min 0,000 mm 0,0 UV-I 0 W/m 5,1 C -3,4 C 35,4 km/h (5 Bft) 100,00 %
09.01.2018 07:40 6,8 C 4,4 C 89 % 1015,6 hPa 0,0 l/m 27,6 km/h (4 Bft) NO 40 0 min 0,000 mm 0,0 UV-I 0 W/m 5,1 C -3,2 C 38,6 km/h (5 Bft) 100,00 %
09.01.2018 07:42 6,8 C 4,4 C 89 % 1015,6 hPa 0,0 l/m 27,8 km/h (4 Bft) O-NO 61 0 min 0,000 mm 0,0 UV-I 4 W/m 5,1 C -3,3 C 37,0 km/h (5 Bft) 100,00 %
09.01.2018 07:44 6,8 C 4,4 C 89 % 1015,5 hPa 0,0 l/m 25,8 km/h (4 Bft) O-NO 68 0 min 0,000 mm 0,0 UV-I 5 W/m 5,1 C -2,7 C 37,0 km/h (5 Bft) 100,00 %
09.01.2018 07:46 6,9 C 4,4 C 89 % 1015,6 hPa 0,0 l/m 32,1 km/h (5 Bft) NO 56 0 min 0,000 mm 0,0 UV-I 5 W/m 5,2 C -4,2 C 40,2 km/h (6 Bft) 97,56 %
09.01.2018 07:48 6,9 C 4,4 C 89 % 1015,7 hPa 0,0 l/m 25,3 km/h (4 Bft) O 94 0 min 0,000 mm 0,0 UV-I 5 W/m 5,2 C -2,5 C 35,4 km/h (5 Bft) 100,00 %
09.01.2018 07:50 6,9 C 4,4 C 89 % 1015,5 hPa 0,0 l/m 27,9 km/h (4 Bft) O-NO 76 0 min 0,000 mm 0,0 UV-I 5 W/m 5,2 C -3,2 C 38,6 km/h (5 Bft) 100,00 %
09.01.2018 07:52 7,0 C 4,4 C 89 % 1015,6 hPa 0,0 l/m 28,6 km/h (4 Bft) O-NO 58 0 min 0,000 mm 0,0 UV-I 5 W/m 5,3 C -3,2 C 43,5 km/h (6 Bft) 100,00 %
09.01.2018 07:54 7,0 C 4,4 C 89 % 1015,4 hPa 0,0 l/m 23,9 km/h (4 Bft) NO 53 0 min 0,000 mm 0,0 UV-I 7 W/m 5,3 C -1,9 C 35,4 km/h (5 Bft) 100,00 %
09.01.2018 07:56 7,0 C 4,4 C 89 % 1015,4 hPa 0,0 l/m 29,3 km/h (5 Bft) O-NO 72 0 min 0,000 mm 0,0 UV-I 7 W/m 5,3 C -3,4 C 41,8 km/h (6 Bft) 100,00 %
09.01.2018 07:58 6,9 C 4,4 C 89 % 1015,4 hPa 0,0 l/m 25,3 km/h (4 Bft) O-NO 63 0 min 0,000 mm 0,0 UV-I 7 W/m 5,2 C -2,5 C 41,8 km/h (6 Bft) 100,00 %
09.01.2018 08:00 7,0 C 4,4 C 89 % 1015,5 hPa 0,0 l/m 26,7 km/h (4 Bft) NO 41 0 min 0,025 mm 0,0 UV-I 8 W/m 5,3 C -2,7 C 40,2 km/h (6 Bft) 100,00 %
09.01.2018 08:02 7,0 C 4,4 C 89 % 1015,6 hPa 0,0 l/m 21,8 km/h (4 Bft) O-SO 106 0 min 0,000 mm 0,0 UV-I 10 W/m 5,3 C -1,2 C 43,5 km/h (6 Bft) 98,11 %
09.01.2018 08:05 7,0 C 4,4 C 89 % 1015,5 hPa 0,0 l/m 27,3 km/h (4 Bft) O-NO 73 3 min 0,000 mm 0,0 UV-I 11 W/m 5,3 C -2,9 C 38,6 km/h (5 Bft) 98,31 %
09.01.2018 08:06 7,0 C 4,4 C 89 % 1015,5 hPa 0,0 l/m 32,2 km/h (5 Bft) O-NO 70 1 min 0,000 mm 0,0 UV-I 12 W/m 5,3 C -4,1 C 40,2 km/h (6 Bft) 100,00 %
09.01.2018 08:08 7,0 C 4,4 C 89 % 1015,5 hPa 0,0 l/m 31,1 km/h (5 Bft) O-NO 63 2 min 0,000 mm 0,0 UV-I 14 W/m 5,3 C -3,8 C 40,2 km/h (6 Bft) 100,00 %
09.01.2018 08:10 7,1 C 4,4 C 89 % 1015,3 hPa 0,0 l/m 29,8 km/h (5 Bft) NO 46 2 min 0,000 mm 0,0 UV-I 16 W/m 5,4 C -3,4 C 38,6 km/h (5 Bft) 97,56 %
09.01.2018 08:12 7,1 C 4,4 C 89 % 1015,3 hPa 0,0 l/m 24,1 km/h (4 Bft) O-NO 66 0 min 0,000 mm 0,0 UV-I 18 W/m 5,4 C -1,8 C 32,2 km/h (5 Bft) 100,00 %
09.01.2018 08:14 7,1 C 4,4 C 89 % 1015,3 hPa 0,0 l/m 31,7 km/h (5 Bft) O 85 0 min 0,000 mm 0,0 UV-I 19 W/m 5,4 C -3,8 C 41,8 km/h (6 Bft) 97,44 %
09.01.2018 08:16 7,1 C 4,4 C 88 % 1015,2 hPa 0,0 l/m 24,4 km/h (4 Bft) O 82 0 min 0,000 mm 0,0 UV-I 22 W/m 5,2 C -1,9 C 33,8 km/h (5 Bft) 100,00 %
09.01.2018 08:18 7,2 C 4,4 C 88 % 1015,3 hPa 0,0 l/m 28,0 km/h (4 Bft) O-NO 65 0 min 0,000 mm 0,0 UV-I 25 W/m 5,3 C -2,8 C 37,0 km/h (5 Bft) 100,00 %
09.01.2018 08:20 7,2 C 4,4 C 88 % 1015,2 hPa 0,0 l/m 28,7 km/h (4 Bft) NO 44 0 min 0,000 mm 0,0 UV-I 26 W/m 5,3 C -3,0 C 35,4 km/h (5 Bft) 96,15 %
09.01.2018 08:22 7,2 C 4,4 C 88 % 1015,3 hPa 0,0 l/m 27,2 km/h (4 Bft) O-NO 66 0 min 0,000 mm 0,0 UV-I 27 W/m 5,3 C -2,6 C 33,8 km/h (5 Bft) 100,00 %
09.01.2018 08:24 7,3 C 4,4 C 88 % 1015,3 hPa 0,0 l/m 26,9 km/h (4 Bft) NO 42 0 min 0,000 mm 0,0 UV-I 30 W/m 5,4 C -2,4 C 41,8 km/h (6 Bft) 100,00 %
09.01.2018 08:26 7,3 C 4,4 C 88 % 1015,3 hPa 0,0 l/m 28,6 km/h (4 Bft) O-NO 61 0 min 0,000 mm 0,0 UV-I 31 W/m 5,4 C -2,8 C 40,2 km/h (6 Bft) 100,00 %
09.01.2018 08:28 7,3 C 4,4 C 88 % 1015,4 hPa 0,0 l/m 29,1 km/h (5 Bft) O 93 0 min 0,000 mm 0,0 UV-I 32 W/m 5,4 C -2,9 C 37,0 km/h (5 Bft) 100,00 %
09.01.2018 08:30 7,4 C 4,4 C 88 % 1015,4 hPa 0,0 l/m 24,6 km/h (4 Bft) O-NO 76 0 min 0,000 mm 0,0 UV-I 31 W/m 5,5 C -1,6 C 37,0 km/h (5 Bft) 100,00 %
09.01.2018 08:32 7,4 C 4,4 C 87 % 1015,3 hPa 0,0 l/m 25,6 km/h (4 Bft) O-NO 61 0 min 0,000 mm 0,0 UV-I 32 W/m 5,4 C -1,9 C 33,8 km/h (5 Bft) 98,00 %
09.01.2018 08:34 7,5 C 4,4 C 87 % 1015,3 hPa 0,0 l/m 25,5 km/h (4 Bft) O-NO 71 0 min 0,000 mm 0,0 UV-I 33 W/m 5,5 C -1,7 C 37,0 km/h (5 Bft) 100,00 %
09.01.2018 08:36 7,6 C 4,4 C 87 % 1015,2 hPa 0,0 l/m 27,4 km/h (4 Bft) O-NO 71 0 min 0,000 mm 0,0 UV-I 34 W/m 5,6 C -2,1 C 37,0 km/h (5 Bft) 100,00 %
09.01.2018 08:38 7,6 C 4,4 C 87 % 1015,2 hPa 0,0 l/m 29,9 km/h (5 Bft) O-NO 68 0 min 0,000 mm 0,0 UV-I 35 W/m 5,6 C -2,7 C 41,8 km/h (6 Bft) 100,00 %
09.01.2018 08:40 7,7 C 4,4 C 86 % 1015,2 hPa 0,0 l/m 27,8 km/h (4 Bft) NO 45 0 min 0,000 mm 0,0 UV-I 33 W/m 5,5 C -2,0 C 41,8 km/h (6 Bft) 98,11 %
09.01.2018 08:42 7,8 C 4,4 C 86 % 1015,2 hPa 0,0 l/m 25,7 km/h (4 Bft) O-NO 69 0 min 0,000 mm 0,0 UV-I 33 W/m 5,6 C -1,3 C 33,8 km/h (5 Bft) 100,00 %
09.01.2018 08:44 7,8 C 4,4 C 86 % 1015,2 hPa 0,0 l/m 26,4 km/h (4 Bft) O-NO 58 0 min 0,000 mm 0,0 UV-I 33 W/m 5,6 C -1,5 C 35,4 km/h (5 Bft) 97,87 %
09.01.2018 08:46 7,8 C 4,4 C 86 % 1015,2 hPa 0,0 l/m 23,4 km/h (4 Bft) O-NO 60 0 min 0,000 mm 0,0 UV-I 34 W/m 5,6 C -0,7 C 32,2 km/h (5 Bft) 100,00 %
09.01.2018 08:48 7,8 C 4,4 C 86 % 1015,3 hPa 0,0 l/m 21,9 km/h (4 Bft) O-NO 74 0 min 0,000 mm 0,0 UV-I 36 W/m 5,6 C -0,2 C 27,4 km/h (4 Bft) 100,00 %
09.01.2018 08:50 7,8 C 4,4 C 86 % 1015,3 hPa 0,0 l/m 25,0 km/h (4 Bft) NO 55 0 min 0,000 mm 0,0 UV-I 37 W/m 5,6 C -1,1 C 30,6 km/h (5 Bft) 100,00 %
09.01.2018 08:52 7,8 C 4,4 C 86 % 1015,3 hPa 0,0 l/m 23,1 km/h (4 Bft) O-NO 62 0 min 0,000 mm 0,0 UV-I 39 W/m 5,6 C -0,6 C 32,2 km/h (5 Bft) 98,11 %
09.01.2018 08:54 7,9 C 4,4 C 86 % 1015,4 hPa 0,0 l/m 18,3 km/h (3 Bft) O-NO 67 0 min 0,000 mm 0,0 UV-I 38 W/m 5,7 C 1,2 C 24,1 km/h (4 Bft) 97,87 %
09.01.2018 08:56 7,9 C 4,4 C 85 % 1015,4 hPa 0,0 l/m 17,8 km/h (3 Bft) O 80 0 min 0,000 mm 0,0 UV-I 39 W/m 5,5 C 1,4 C 24,1 km/h (4 Bft) 98,00 %
09.01.2018 08:58 8,0 C 4,4 C 85 % 1015,3 hPa 0,0 l/m 20,8 km/h (4 Bft) O-NO 65 0 min 0,000 mm 0,0 UV-I 39 W/m 5,6 C 0,4 C 33,8 km/h (5 Bft) 98,00 %
09.01.2018 09:00 8,1 C 4,4 C 85 % 1015,3 hPa 0,0 l/m 19,2 km/h (3 Bft) O-SO 110 0 min 0,051 mm 0,0 UV-I 42 W/m 5,7 C 1,1 C 29,0 km/h (5 Bft) 97,56 %
09.01.2018 09:02 8,1 C 4,4 C 85 % 1015,4 hPa 0,0 l/m 11,5 km/h (2 Bft) O-SO 112 0 min 0,000 mm 0,0 UV-I 44 W/m 5,7 C 4,6 C 17,7 km/h (3 Bft) 96,00 %
09.01.2018 09:04 8,1 C 4,4 C 85 % 1015,4 hPa 0,0 l/m 16,6 km/h (3 Bft) O-NO 67 0 min 0,000 mm 0,0 UV-I 44 W/m 5,7 C 2,1 C 29,0 km/h (5 Bft) 97,56 %
09.01.2018 09:06 8,2 C 4,4 C 84 % 1015,4 hPa 0,0 l/m 22,3 km/h (4 Bft) O-NO 70 0 min 0,000 mm 0,0 UV-I 44 W/m 5,7 C 0,2 C 32,2 km/h (5 Bft) 96,00 %
09.01.2018 09:08 8,3 C 4,4 C 84 % 1015,3 hPa 0,0 l/m 20,6 km/h (4 Bft) O-NO 57 0 min 0,000 mm 0,0 UV-I 44 W/m 5,8 C 0,9 C 33,8 km/h (5 Bft) 97,56 %
09.01.2018 09:10 8,3 C 4,4 C 84 % 1015,2 hPa 0,0 l/m 21,3 km/h (4 Bft) O-NO 60 0 min 0,000 mm 0,0 UV-I 42 W/m 5,8 C 0,7 C 32,2 km/h (5 Bft) 98,00 %
09.01.2018 09:12 8,3 C 4,4 C 84 % 1015,3 hPa 0,0 l/m 20,4 km/h (4 Bft) O-NO 63 0 min 0,000 mm 0,0 UV-I 43 W/m 5,8 C 1,0 C 27,4 km/h (4 Bft) 97,87 %
09.01.2018 09:14 8,3 C 4,4 C 84 % 1015,4 hPa 0,0 l/m 23,7 km/h (4 Bft) O-NO 61 0 min 0,000 mm 0,0 UV-I 44 W/m 5,8 C -0,1 C 32,2 km/h (5 Bft) 95,12 %
09.01.2018 09:16 8,4 C 4,4 C 84 % 1015,4 hPa 0,0 l/m 21,6 km/h (4 Bft) O-NO 69 0 min 0,000 mm 0,0 UV-I 46 W/m 5,9 C 0,7 C 29,0 km/h (5 Bft) 96,23 %
09.01.2018 09:18 8,4 C 4,4 C 83 % 1015,5 hPa 0,0 l/m 16,1 km/h (3 Bft) NO 55 0 min 0,000 mm 0,0 UV-I 49 W/m 5,7 C 2,7 C 25,7 km/h (4 Bft) 97,56 %
09.01.2018 09:20 8,4 C 4,4 C 83 % 1015,5 hPa 0,0 l/m 20,0 km/h (4 Bft) O 87 0 min 0,000 mm 0,0 UV-I 50 W/m 5,7 C 1,2 C 27,4 km/h (4 Bft) 94,92 %
09.01.2018 09:22 8,4 C 4,4 C 83 % 1015,5 hPa 0,0 l/m 13,6 km/h (3 Bft) O-NO 65 0 min 0,000 mm 0,0 UV-I 53 W/m 5,7 C 3,9 C 22,5 km/h (4 Bft) 95,12 %
09.01.2018 09:24 8,5 C 4,4 C 83 % 1015,4 hPa 0,0 l/m 20,0 km/h (4 Bft) O-NO 70 0 min 0,000 mm 0,0 UV-I 56 W/m 5,8 C 1,3 C 30,6 km/h (5 Bft) 95,74 %
09.01.2018 09:26 8,6 C 4,4 C 83 % 1015,5 hPa 0,0 l/m 17,5 km/h (3 Bft) O-NO 69 0 min 0,000 mm 0,0 UV-I 59 W/m 5,9 C 2,4 C 25,7 km/h (4 Bft) 96,23 %
09.01.2018 09:28 8,6 C 4,4 C 83 % 1015,5 hPa 0,0 l/m 18,0 km/h (3 Bft) NO 42 0 min 0,000 mm 0,0 UV-I 62 W/m 5,9 C 2,2 C 27,4 km/h (4 Bft) 96,30 %
09.01.2018 09:30 8,6 C 4,4 C 83 % 1015,4 hPa 0,0 l/m 17,3 km/h (3 Bft) O-NO 69 0 min 0,000 mm 0,0 UV-I 66 W/m 5,9 C 2,5 C 24,1 km/h (4 Bft) 96,61 %
09.01.2018 09:32 8,6 C 4,4 C 83 % 1015,4 hPa 0,0 l/m 18,0 km/h (3 Bft) O-NO 69 0 min 0,000 mm 0,0 UV-I 69 W/m 5,9 C 2,2 C 24,1 km/h (4 Bft) 96,23 %
09.01.2018 09:34 8,6 C 4,4 C 83 % 1015,4 hPa 0,0 l/m 18,4 km/h (3 Bft) NO 49 0 min 0,000 mm 0,0 UV-I 73 W/m 5,9 C 2,1 C 27,4 km/h (4 Bft) 97,73 %
09.01.2018 09:36 8,6 C 4,4 C 83 % 1015,4 hPa 0,0 l/m 18,2 km/h (3 Bft) NO 51 0 min 0,000 mm 0,0 UV-I 76 W/m 5,9 C 2,1 C 24,1 km/h (4 Bft) 97,73 %
09.01.2018 09:38 8,6 C 4,4 C 83 % 1015,4 hPa 0,0 l/m 18,9 km/h (3 Bft) O-NO 59 0 min 0,000 mm 0,0 UV-I 75 W/m 5,9 C 1,9 C 24,1 km/h (4 Bft) 96,00 %
09.01.2018 09:40 8,7 C 4,4 C 83 % 1015,4 hPa 0,0 l/m 18,2 km/h (3 Bft) O-NO 61 0 min 0,000 mm 0,0 UV-I 73 W/m 6,0 C 2,3 C 22,5 km/h (4 Bft) 98,00 %
09.01.2018 09:42 8,7 C 4,4 C 83 % 1015,4 hPa 0,0 l/m 18,1 km/h (3 Bft) O 90 0 min 0,000 mm 0,0 UV-I 72 W/m 6,0 C 2,3 C 25,7 km/h (4 Bft) 95,45 %
09.01.2018 09:44 8,7 C 4,4 C 83 % 1015,5 hPa 0,0 l/m 15,3 km/h (3 Bft) O-NO 73 0 min 0,000 mm 0,0 UV-I 72 W/m 6,0 C 3,4 C 20,9 km/h (4 Bft) 97,37 %
09.01.2018 09:46 8,7 C 4,4 C 82 % 1015,4 hPa 0,0 l/m 16,4 km/h (3 Bft) NO 54 0 min 0,000 mm 0,0 UV-I 73 W/m 5,8 C 3,0 C 20,9 km/h (4 Bft) 98,00 %
09.01.2018 09:48 8,7 C 4,4 C 82 % 1015,5 hPa 0,0 l/m 16,1 km/h (3 Bft) O-NO 59 0 min 0,000 mm 0,0 UV-I 75 W/m 5,8 C 3,1 C 22,5 km/h (4 Bft) 97,87 %
09.01.2018 09:50 8,7 C 4,4 C 83 % 1015,5 hPa 0,0 l/m 14,7 km/h (3 Bft) O-NO 67 0 min 0,000 mm 0,0 UV-I 77 W/m 6,0 C 3,7 C 20,9 km/h (4 Bft) 97,73 %
09.01.2018 09:52 8,7 C 4,4 C 83 % 1015,5 hPa 0,0 l/m 13,3 km/h (3 Bft) O 88 0 min 0,000 mm 0,0 UV-I 79 W/m 6,0 C 4,4 C 17,7 km/h (3 Bft) 98,31 %
09.01.2018 09:54 8,7 C 4,4 C 83 % 1015,5 hPa 0,0 l/m 13,1 km/h (3 Bft) NO 52 0 min 0,000 mm 0,0 UV-I 82 W/m 6,0 C 4,5 C 16,1 km/h (3 Bft) 97,37 %
09.01.2018 09:56 8,8 C 4,4 C 82 % 1015,5 hPa 0,0 l/m 13,2 km/h (3 Bft) NO 55 0 min 0,000 mm 0,0 UV-I 84 W/m 5,9 C 4,5 C 20,9 km/h (4 Bft) 97,30 %
09.01.2018 09:58 8,8 C 4,4 C 82 % 1015,5 hPa 0,0 l/m 18,9 km/h (3 Bft) O-NO 76 0 min 0,000 mm 0,0 UV-I 89 W/m 5,9 C 2,1 C 25,7 km/h (4 Bft) 96,72 %
09.01.2018 10:00 8,9 C 4,4 C 82 % 1015,4 hPa 0,0 l/m 18,8 km/h (3 Bft) O-NO 63 0 min 0,051 mm 0,0 UV-I 91 W/m 6,0 C 2,3 C 25,7 km/h (4 Bft) 97,87 %
09.01.2018 10:02 8,9 C 4,4 C 82 % 1015,4 hPa 0,0 l/m 16,5 km/h (3 Bft) O-NO 76 0 min 0,000 mm 0,0 UV-I 94 W/m 6,0 C 3,2 C 22,5 km/h (4 Bft) 97,56 %
09.01.2018 10:04 8,9 C 4,4 C 82 % 1015,4 hPa 0,0 l/m 17,8 km/h (3 Bft) NO 54 0 min 0,000 mm 0,0 UV-I 95 W/m 6,0 C 2,7 C 25,7 km/h (4 Bft) 98,11 %
09.01.2018 10:06 8,9 C 4,4 C 82 % 1015,3 hPa 0,0 l/m 16,8 km/h (3 Bft) NO 50 0 min 0,000 mm 0,0 UV-I 95 W/m 6,0 C 3,0 C 22,5 km/h (4 Bft) 97,62 %
09.01.2018 10:08 8,9 C 4,4 C 82 % 1015,5 hPa 0,0 l/m 14,0 km/h (3 Bft) O-NO 63 0 min 0,000 mm 0,0 UV-I 97 W/m 6,0 C 4,3 C 19,3 km/h (3 Bft) 96,00 %
09.01.2018 10:10 9,0 C 4,4 C 82 % 1015,5 hPa 0,0 l/m 13,6 km/h (3 Bft) NO 34 0 min 0,000 mm 0,0 UV-I 103 W/m 6,1 C 4,6 C 20,9 km/h (4 Bft) 97,87 %
09.01.2018 10:12 9,0 C 4,4 C 82 % 1015,5 hPa 0,0 l/m 13,8 km/h (3 Bft) NO 43 0 min 0,000 mm 0,0 UV-I 110 W/m 6,1 C 4,5 C 19,3 km/h (3 Bft) 98,00 %
09.01.2018 10:14 9,1 C 4,4 C 82 % 1015,4 hPa 0,0 l/m 20,3 km/h (4 Bft) NO 46 0 min 0,000 mm 0,0 UV-I 119 W/m 6,2 C 2,0 C 29,0 km/h (5 Bft) 97,37 %
09.01.2018 10:16 9,1 C 4,4 C 82 % 1015,5 hPa 0,0 l/m 21,3 km/h (4 Bft) O-NO 65 0 min 0,000 mm 0,0 UV-I 125 W/m 6,2 C 1,7 C 27,4 km/h (4 Bft) 98,11 %
09.01.2018 10:18 9,2 C 4,4 C 82 % 1015,6 hPa 0,0 l/m 20,5 km/h (4 Bft) O-NO 73 0 min 0,000 mm 0,0 UV-I 130 W/m 6,3 C 2,1 C 27,4 km/h (4 Bft) 95,12 %
09.01.2018 10:20 9,2 C 4,4 C 82 % 1015,5 hPa 0,0 l/m 16,3 km/h (3 Bft) O-NO 61 0 min 0,000 mm 0,0 UV-I 131 W/m 6,3 C 3,6 C 24,1 km/h (4 Bft) 98,00 %
09.01.2018 10:22 9,2 C 4,4 C 82 % 1015,6 hPa 0,0 l/m 13,6 km/h (3 Bft) O 79 0 min 0,000 mm 0,0 UV-I 130 W/m 6,3 C 4,8 C 17,7 km/h (3 Bft) 94,00 %
09.01.2018 10:24 9,3 C 4,4 C 82 % 1015,6 hPa 0,0 l/m 13,2 km/h (3 Bft) O-SO 107 2 min 0,000 mm 0,0 UV-I 204 W/m 6,4 C 5,1 C 19,3 km/h (3 Bft) 95,74 %
09.01.2018 10:26 9,4 C 4,4 C 81 % 1015,5 hPa 0,0 l/m 14,5 km/h (3 Bft) O-NO 76 2 min 0,000 mm 0,0 UV-I 248 W/m 6,3 C 4,6 C 20,9 km/h (4 Bft) 98,00 %
09.01.2018 10:28 9,6 C 4,4 C 81 % 1015,6 hPa 0,0 l/m 11,6 km/h (2 Bft) O-NO 60 2 min 0,000 mm 0,0 UV-I 263 W/m 6,5 C 6,3 C 16,1 km/h (3 Bft) 97,14 %
09.01.2018 10:30 9,7 C 4,4 C 81 % 1015,6 hPa 0,0 l/m 12,2 km/h (2 Bft) O-NO 64 2 min 0,000 mm 0,0 UV-I 326 W/m 6,6 C 6,1 C 19,3 km/h (3 Bft) 96,43 %
09.01.2018 10:32 9,9 C 4,4 C 79 % 1015,5 hPa 0,0 l/m 17,6 km/h (3 Bft) NO 46 2 min 0,000 mm 0,0 UV-I 298 W/m 6,4 C 4,0 C 25,7 km/h (4 Bft) 95,12 %
09.01.2018 10:34 9,9 C 4,4 C 80 % 1015,3 hPa 0,0 l/m 14,2 km/h (3 Bft) NO 50 2 min 0,000 mm 0,0 UV-I 243 W/m 6,6 C 5,4 C 24,1 km/h (4 Bft) 98,11 %
09.01.2018 10:36 10,0 C 4,4 C 80 % 1015,4 hPa 0,0 l/m 16,8 km/h (3 Bft) O-NO 66 2 min 0,000 mm 0,0 UV-I 285 W/m 6,7 C 4,4 C 27,4 km/h (4 Bft) 95,12 %
09.01.2018 10:38 10,1 C 4,4 C 79 % 1015,6 hPa 0,0 l/m 20,0 km/h (4 Bft) O 80 2 min 0,000 mm 0,0 UV-I 183 W/m 6,6 C 3,4 C 32,2 km/h (5 Bft) 98,11 %
09.01.2018 10:40 10,1 C 4,4 C 79 % 1015,5 hPa 0,0 l/m 19,0 km/h (3 Bft) NO 51 2 min 0,000 mm 0,0 UV-I 221 W/m 6,6 C 3,7 C 25,7 km/h (4 Bft) 97,87 %
09.01.2018 10:42 10,1 C 4,4 C 78 % 1015,5 hPa 0,0 l/m 19,8 km/h (3 Bft) O 83 2 min 0,000 mm 0,0 UV-I 210 W/m 6,4 C 3,5 C 25,7 km/h (4 Bft) 94,00 %
09.01.2018 10:44 10,1 C 4,4 C 79 % 1015,4 hPa 0,0 l/m 23,1 km/h (4 Bft) NO 55 2 min 0,000 mm 0,0 UV-I 205 W/m 6,6 C 2,5 C 30,6 km/h (5 Bft) 97,44 %
09.01.2018 10:46 10,1 C 4,4 C 79 % 1015,5 hPa 0,0 l/m 19,5 km/h (3 Bft) O-NO 65 2 min 0,000 mm 0,0 UV-I 222 W/m 6,6 C 3,6 C 27,4 km/h (4 Bft) 98,18 %
09.01.2018 10:48 10,1 C 4,4 C 79 % 1015,5 hPa 0,0 l/m 19,3 km/h (3 Bft) O 101 2 min 0,000 mm 0,0 UV-I 310 W/m 6,6 C 3,6 C 27,4 km/h (4 Bft) 100,00 %
09.01.2018 10:50 10,2 C 4,4 C 79 % 1015,5 hPa 0,0 l/m 18,8 km/h (3 Bft) O 80 2 min 0,000 mm 0,0 UV-I 251 W/m 6,7 C 3,9 C 25,7 km/h (4 Bft) 96,23 %
09.01.2018 10:52 10,2 C 4,4 C 79 % 1015,4 hPa 0,0 l/m 20,6 km/h (4 Bft) O-NO 65 2 min 0,000 mm 0,0 UV-I 282 W/m 6,7 C 3,4 C 32,2 km/h (5 Bft) 95,74 %
09.01.2018 10:54 10,2 C 4,4 C 79 % 1015,6 hPa 0,0 l/m 18,5 km/h (3 Bft) O-NO 73 2 min 0,000 mm 0,0 UV-I 242 W/m 6,7 C 4,0 C 33,8 km/h (5 Bft) 97,87 %
09.01.2018 10:56 10,2 C 4,4 C 79 % 1015,4 hPa 0,0 l/m 22,9 km/h (4 Bft) O-NO 77 2 min 0,000 mm 0,0 UV-I 256 W/m 6,7 C 2,7 C 29,0 km/h (5 Bft) 97,56 %
09.01.2018 10:58 10,3 C 4,4 C 79 % 1015,4 hPa 0,0 l/m 25,2 km/h (4 Bft) O-NO 72 2 min 0,000 mm 0,0 UV-I 240 W/m 6,8 C 2,2 C 37,0 km/h (5 Bft) 98,11 %
09.01.2018 11:00 10,3 C 4,4 C 78 % 1015,3 hPa 0,0 l/m 23,5 km/h (4 Bft) O-NO 65 2 min 0,127 mm 0,2 UV-I 244 W/m 6,6 C 2,6 C 33,8 km/h (5 Bft) 97,14 %
09.01.2018 11:02 10,3 C 4,4 C 78 % 1015,4 hPa 0,0 l/m 23,1 km/h (4 Bft) NO 46 2 min 0,000 mm 0,0 UV-I 203 W/m 6,6 C 2,7 C 32,2 km/h (5 Bft) 98,31 %
09.01.2018 11:04 10,3 C 4,4 C 78 % 1015,4 hPa 0,0 l/m 24,2 km/h (4 Bft) O-NO 67 2 min 0,000 mm 0,0 UV-I 212 W/m 6,6 C 2,4 C 35,4 km/h (5 Bft) 97,56 %
09.01.2018 11:06 10,3 C 4,4 C 78 % 1015,4 hPa 0,0 l/m 20,3 km/h (4 Bft) O-NO 59 2 min 0,000 mm 0,4 UV-I 299 W/m 6,6 C 3,6 C 30,6 km/h (5 Bft) 96,43 %
09.01.2018 11:08 10,4 C 4,4 C 77 % 1015,4 hPa 0,0 l/m 20,0 km/h (4 Bft) NO 56 2 min 0,000 mm 0,3 UV-I 304 W/m 6,5 C 3,8 C 27,4 km/h (4 Bft) 97,37 %
09.01.2018 11:10 10,4 C 4,4 C 77 % 1015,3 hPa 0,0 l/m 27,4 km/h (4 Bft) O 86 0 min 0,000 mm 0,0 UV-I 131 W/m 6,5 C 1,8 C 35,4 km/h (5 Bft) 98,11 %
09.01.2018 11:12 10,4 C 4,4 C 76 % 1015,2 hPa 0,0 l/m 27,1 km/h (4 Bft) O-NO 60 0 min 0,000 mm 0,0 UV-I 125 W/m 6,4 C 1,9 C 40,2 km/h (6 Bft) 97,44 %
09.01.2018 11:14 10,3 C 4,4 C 77 % 1015,0 hPa 0,0 l/m 25,9 km/h (4 Bft) O-NO 69 0 min 0,000 mm 0,0 UV-I 138 W/m 6,4 C 2,0 C 33,8 km/h (5 Bft) 96,43 %
09.01.2018 11:16 10,3 C 4,4 C 77 % 1015,2 hPa 0,0 l/m 16,6 km/h (3 Bft) O 95 0 min 0,000 mm 0,0 UV-I 132 W/m 6,4 C 4,9 C 29,0 km/h (5 Bft) 94,74 %
09.01.2018 11:18 10,3 C 4,4 C 77 % 1015,1 hPa 0,0 l/m 16,7 km/h (3 Bft) NO 56 0 min 0,000 mm 0,0 UV-I 137 W/m 6,4 C 4,8 C 25,7 km/h (4 Bft) 98,11 %
09.01.2018 11:20 10,3 C 4,4 C 77 % 1015,1 hPa 0,0 l/m 19,1 km/h (3 Bft) O-NO 59 0 min 0,000 mm 0,0 UV-I 164 W/m 6,4 C 4,0 C 30,6 km/h (5 Bft) 97,73 %
09.01.2018 11:22 10,3 C 4,4 C 77 % 1015,1 hPa 0,0 l/m 19,8 km/h (3 Bft) NO 46 2 min 0,000 mm 0,0 UV-I 247 W/m 6,4 C 3,7 C 29,0 km/h (5 Bft) 98,00 %
09.01.2018 11:24 10,4 C 4,4 C 77 % 1015,1 hPa 0,0 l/m 17,9 km/h (3 Bft) O 94 2 min 0,000 mm 0,0 UV-I 207 W/m 6,5 C 4,5 C 27,4 km/h (4 Bft) 100,00 %
09.01.2018 11:26 10,5 C 4,4 C 76 % 1015,2 hPa 0,0 l/m 19,2 km/h (3 Bft) O-NO 75 2 min 0,000 mm 0,0 UV-I 210 W/m 6,5 C 4,2 C 38,6 km/h (5 Bft) 100,00 %
09.01.2018 11:28 10,6 C 4,4 C 76 % 1015,1 hPa 0,0 l/m 13,4 km/h (3 Bft) O-NO 64 2 min 0,000 mm 0,0 UV-I 202 W/m 6,5 C 6,5 C 19,3 km/h (3 Bft) 93,75 %
09.01.2018 11:30 10,6 C 4,4 C 76 % 1015,1 hPa 0,0 l/m 15,7 km/h (3 Bft) O-NO 69 2 min 0,000 mm 0,0 UV-I 200 W/m 6,5 C 5,6 C 32,2 km/h (5 Bft) 100,00 %
09.01.2018 11:32 10,6 C 4,4 C 77 % 1015,1 hPa 0,0 l/m 18,0 km/h (3 Bft) O-NO 69 0 min 0,000 mm 0,0 UV-I 181 W/m 6,7 C 4,7 C 33,8 km/h (5 Bft) 100,00 %
09.01.2018 11:34 10,5 C 4,4 C 77 % 1015,0 hPa 0,0 l/m 19,4 km/h (3 Bft) O 85 0 min 0,000 mm 0,0 UV-I 166 W/m 6,6 C 4,1 C 35,4 km/h (5 Bft) 100,00 %
09.01.2018 11:36 10,4 C 4,4 C 76 % 1015,0 hPa 0,0 l/m 21,2 km/h (4 Bft) O 84 0 min 0,000 mm 0,0 UV-I 154 W/m 6,4 C 3,4 C 32,2 km/h (5 Bft) 100,00 %
09.01.2018 11:38 10,4 C 4,4 C 77 % 1015,0 hPa 0,0 l/m 20,8 km/h (4 Bft) O-NO 78 0 min 0,000 mm 0,0 UV-I 147 W/m 6,5 C 3,6 C 37,0 km/h (5 Bft) 100,00 %
09.01.2018 11:40 10,3 C 4,4 C 76 % 1014,9 hPa 0,0 l/m 22,0 km/h (4 Bft) O-NO 75 0 min 0,000 mm 0,0 UV-I 144 W/m 6,3 C 3,1 C 30,6 km/h (5 Bft) 100,00 %
09.01.2018 11:42 10,3 C 4,4 C 77 % 1014,7 hPa 0,0 l/m 26,4 km/h (4 Bft) O-NO 59 0 min 0,000 mm 0,0 UV-I 143 W/m 6,4 C 1,9 C 35,4 km/h (5 Bft) 100,00 %
09.01.2018 11:44 10,2 C 4,4 C 77 % 1014,7 hPa 0,0 l/m 23,1 km/h (4 Bft) O-NO 74 0 min 0,000 mm 0,0 UV-I 144 W/m 6,4 C 2,6 C 33,8 km/h (5 Bft) 100,00 %
09.01.2018 11:46 10,2 C 4,4 C 77 % 1014,8 hPa 0,0 l/m 23,1 km/h (4 Bft) O-SO 103 0 min 0,000 mm 0,0 UV-I 145 W/m 6,4 C 2,6 C 33,8 km/h (5 Bft) 98,00 %
09.01.2018 11:48 10,2 C 4,4 C 77 % 1014,8 hPa 0,0 l/m 19,0 km/h (3 Bft) O 96 0 min 0,000 mm 0,0 UV-I 155 W/m 6,4 C 3,9 C 29,0 km/h (5 Bft) 100,00 %
09.01.2018 11:50 10,2 C 4,4 C 77 % 1014,8 hPa 0,0 l/m 18,1 km/h (3 Bft) O 90 0 min 0,000 mm 0,0 UV-I 171 W/m 6,4 C 4,2 C 27,4 km/h (4 Bft) 100,00 %
09.01.2018 11:52 10,2 C 4,4 C 77 % 1014,7 hPa 0,0 l/m 19,1 km/h (3 Bft) O 79 0 min 0,000 mm 0,0 UV-I 189 W/m 6,4 C 3,8 C 30,6 km/h (5 Bft) 98,00 %
09.01.2018 11:54 10,2 C 4,4 C 77 % 1014,6 hPa 0,0 l/m 26,0 km/h (4 Bft) O-NO 70 2 min 0,000 mm 0,0 UV-I 203 W/m 6,4 C 1,9 C 35,4 km/h (5 Bft) 100,00 %
09.01.2018 11:56 10,2 C 4,4 C 77 % 1014,7 hPa 0,0 l/m 28,6 km/h (4 Bft) O-NO 60 2 min 0,000 mm 0,0 UV-I 225 W/m 6,4 C 1,2 C 40,2 km/h (6 Bft) 100,00 %
09.01.2018 11:58 10,3 C 4,4 C 77 % 1014,7 hPa 0,0 l/m 21,3 km/h (4 Bft) O-NO 73 2 min 0,000 mm 0,3 UV-I 231 W/m 6,4 C 3,3 C 29,0 km/h (5 Bft) 97,73 %
09.01.2018 12:00 10,3 C 4,4 C 77 % 1014,8 hPa 0,0 l/m 25,7 km/h (4 Bft) O-NO 70 2 min 0,000 mm 0,5 UV-I 232 W/m 6,4 C 2,1 C 33,8 km/h (5 Bft) 100,00 %
09.01.2018 12:02 10,3 C 4,4 C 77 % 1014,7 hPa 0,0 l/m 21,8 km/h (4 Bft) O-NO 63 2 min 0,127 mm 0,5 UV-I 226 W/m 6,4 C 3,1 C 32,2 km/h (5 Bft) 100,00 %
09.01.2018 12:04 10,3 C 4,4 C 78 % 1014,7 hPa 0,0 l/m 15,6 km/h (3 Bft) O-NO 74 2 min 0,000 mm 0,5 UV-I 223 W/m 6,6 C 5,3 C 22,5 km/h (4 Bft) 100,00 %
09.01.2018 12:06 10,3 C 4,4 C 77 % 1014,6 hPa 0,0 l/m 16,7 km/h (3 Bft) SO 126 2 min 0,000 mm 0,5 UV-I 215 W/m 6,4 C 4,8 C 27,4 km/h (4 Bft) 100,00 %
09.01.2018 12:08 10,3 C 4,4 C 77 % 1014,6 hPa 0,0 l/m 21,1 km/h (4 Bft) O 87 2 min 0,000 mm 0,5 UV-I 217 W/m 6,4 C 3,3 C 27,4 km/h (4 Bft) 100,00 %
09.01.2018 12:10 10,3 C 4,4 C 77 % 1014,5 hPa 0,0 l/m 24,4 km/h (4 Bft) O 97 2 min 0,000 mm 0,5 UV-I 221 W/m 6,4 C 2,4 C 33,8 km/h (5 Bft) 100,00 %
09.01.2018 12:12 10,3 C 4,4 C 77 % 1014,5 hPa 0,0 l/m 21,8 km/h (4 Bft) O-NO 70 2 min 0,000 mm 0,5 UV-I 206 W/m 6,4 C 3,1 C 29,0 km/h (5 Bft) 97,37 %
09.01.2018 12:14 10,3 C 4,4 C 77 % 1014,5 hPa 0,0 l/m 24,2 km/h (4 Bft) O-NO 76 2 min 0,000 mm 0,5 UV-I 212 W/m 6,4 C 2,4 C 37,0 km/h (5 Bft) 100,00 %
09.01.2018 12:16 10,4 C 4,4 C 77 % 1014,4 hPa 0,0 l/m 25,4 km/h (4 Bft) NO 55 2 min 0,000 mm 0,5 UV-I 224 W/m 6,5 C 2,3 C 38,6 km/h (5 Bft) 100,00 %
09.01.2018 12:18 10,4 C 4,4 C 77 % 1014,4 hPa 0,0 l/m 26,8 km/h (4 Bft) O 89 2 min 0,000 mm 0,5 UV-I 212 W/m 6,5 C 1,9 C 37,0 km/h (5 Bft) 100,00 %
09.01.2018 12:20 10,4 C 4,4 C 77 % 1014,3 hPa 0,0 l/m 26,2 km/h (4 Bft) O-NO 60 2 min 0,000 mm 0,5 UV-I 210 W/m 6,5 C 2,1 C 38,6 km/h (5 Bft) 100,00 %
09.01.2018 12:22 10,4 C 4,4 C 77 % 1014,4 hPa 0,0 l/m 28,6 km/h (4 Bft) O 94 2 min 0,000 mm 0,5 UV-I 259 W/m 6,5 C 1,5 C 41,8 km/h (6 Bft) 98,00 %
09.01.2018 12:24 10,5 C 4,4 C 77 % 1014,4 hPa 0,0 l/m 24,7 km/h (4 Bft) O-NO 69 2 min 0,000 mm 0,5 UV-I 267 W/m 6,6 C 2,6 C 35,4 km/h (5 Bft) 100,00 %
09.01.2018 12:26 10,6 C 4,4 C 76 % 1014,4 hPa 0,0 l/m 29,2 km/h (5 Bft) O 82 2 min 0,000 mm 0,5 UV-I 268 W/m 6,5 C 1,7 C 40,2 km/h (6 Bft) 98,11 %
09.01.2018 12:28 10,6 C 4,4 C 76 % 1014,4 hPa 0,0 l/m 30,6 km/h (5 Bft) O 87 2 min 0,000 mm 0,5 UV-I 308 W/m 6,5 C 1,4 C 38,6 km/h (5 Bft) 100,00 %
09.01.2018 12:30 10,7 C 4,4 C 76 % 1014,4 hPa 0,0 l/m 24,5 km/h (4 Bft) NO 54 2 min 0,000 mm 0,5 UV-I 301 W/m 6,6 C 2,9 C 32,2 km/h (5 Bft) 97,37 %
09.01.2018 12:32 10,7 C 4,4 C 76 % 1014,4 hPa 0,0 l/m 21,9 km/h (4 Bft) O-NO 73 2 min 0,000 mm 0,5 UV-I 295 W/m 6,6 C 3,6 C 33,8 km/h (5 Bft) 100,00 %
09.01.2018 12:34 10,7 C 4,4 C 76 % 1014,4 hPa 0,0 l/m 26,8 km/h (4 Bft) O-NO 68 2 min 0,000 mm 0,5 UV-I 292 W/m 6,6 C 2,3 C 38,6 km/h (5 Bft) 100,00 %
09.01.2018 12:36 10,7 C 4,4 C 76 % 1014,3 hPa 0,0 l/m 27,1 km/h (4 Bft) O-NO 61 2 min 0,000 mm 0,5 UV-I 335 W/m 6,6 C 2,3 C 37,0 km/h (5 Bft) 100,00 %
09.01.2018 12:38 10,8 C 4,4 C 75 % 1014,3 hPa 0,0 l/m 28,0 km/h (4 Bft) O-NO 57 2 min 0,000 mm 0,6 UV-I 340 W/m 6,5 C 2,2 C 35,4 km/h (5 Bft) 100,00 %
09.01.2018 12:40 10,8 C 4,4 C 75 % 1014,3 hPa 0,0 l/m 25,9 km/h (4 Bft) NO 48 2 min 0,000 mm 0,6 UV-I 351 W/m 6,5 C 2,7 C 35,4 km/h (5 Bft) 100,00 %
09.01.2018 12:42 10,9 C 4,4 C 75 % 1014,5 hPa 0,0 l/m 24,7 km/h (4 Bft) O-NO 78 2 min 0,000 mm 0,6 UV-I 372 W/m 6,6 C 3,1 C 33,8 km/h (5 Bft) 95,24 %
09.01.2018 12:44 11,0 C 4,4 C 75 % 1014,5 hPa 0,0 l/m 23,4 km/h (4 Bft) O 82 2 min 0,000 mm 0,6 UV-I 392 W/m 6,7 C 3,6 C 33,8 km/h (5 Bft) 96,00 %
09.01.2018 12:46 11,0 C 4,4 C 76 % 1014,4 hPa 0,0 l/m 20,0 km/h (4 Bft) O-NO 74 2 min 0,000 mm 0,6 UV-I 365 W/m 6,9 C 4,6 C 30,6 km/h (5 Bft) 98,00 %
09.01.2018 12:48 11,1 C 4,4 C 75 % 1014,4 hPa 0,0 l/m 18,6 km/h (3 Bft) O-NO 65 2 min 0,000 mm 0,6 UV-I 333 W/m 6,8 C 5,2 C 27,4 km/h (4 Bft) 94,74 %
09.01.2018 12:50 11,2 C 4,4 C 75 % 1014,4 hPa 0,0 l/m 21,6 km/h (4 Bft) O-NO 65 2 min 0,000 mm 0,6 UV-I 312 W/m 6,9 C 4,4 C 29,0 km/h (5 Bft) 96,23 %
09.01.2018 12:53 11,2 C 4,4 C 74 % 1014,2 hPa 0,0 l/m 24,5 km/h (4 Bft) NO 51 3 min 0,000 mm 0,5 UV-I 286 W/m 6,7 C 3,6 C 35,4 km/h (5 Bft) 98,57 %
09.01.2018 12:54 11,2 C 4,4 C 75 % 1014,2 hPa 0,0 l/m 19,0 km/h (3 Bft) NO 51 1 min 0,000 mm 0,5 UV-I 294 W/m 6,9 C 5,2 C 22,5 km/h (4 Bft) 95,83 %
09.01.2018 12:56 11,2 C 4,4 C 75 % 1014,2 hPa 0,0 l/m 20,7 km/h (4 Bft) NO 55 2 min 0,000 mm 0,5 UV-I 296 W/m 6,9 C 4,6 C 30,6 km/h (5 Bft) 97,87 %
09.01.2018 12:58 11,3 C 4,4 C 74 % 1014,1 hPa 0,0 l/m 22,9 km/h (4 Bft) O-NO 57 2 min 0,000 mm 0,5 UV-I 277 W/m 6,8 C 4,1 C 32,2 km/h (5 Bft) 98,00 %
09.01.2018 13:00 11,3 C 4,4 C 74 % 1014,0 hPa 0,0 l/m 23,0 km/h (4 Bft) O-NO 76 2 min 0,000 mm 0,5 UV-I 275 W/m 6,8 C 4,1 C 32,2 km/h (5 Bft) 95,74 %
09.01.2018 13:02 11,3 C 4,4 C 74 % 1014,0 hPa 0,0 l/m 20,3 km/h (4 Bft) NO 52 2 min 0,178 mm 0,5 UV-I 268 W/m 6,8 C 4,9 C 27,4 km/h (4 Bft) 94,74 %
09.01.2018 13:04 11,3 C 4,4 C 74 % 1014,1 hPa 0,0 l/m 21,9 km/h (4 Bft) NO 53 2 min 0,000 mm 0,5 UV-I 279 W/m 6,8 C 4,4 C 29,0 km/h (5 Bft) 98,11 %
09.01.2018 13:06 11,3 C 4,4 C 73 % 1014,0 hPa 0,0 l/m 25,3 km/h (4 Bft) O-NO 73 2 min 0,000 mm 0,5 UV-I 315 W/m 6,6 C 3,5 C 33,8 km/h (5 Bft) 96,30 %
09.01.2018 13:08 11,3 C 4,4 C 74 % 1013,9 hPa 0,0 l/m 21,9 km/h (4 Bft) O-NO 65 2 min 0,000 mm 0,5 UV-I 314 W/m 6,8 C 4,4 C 30,6 km/h (5 Bft) 96,55 %
09.01.2018 13:10 11,3 C 4,4 C 74 % 1013,8 hPa 0,0 l/m 22,1 km/h (4 Bft) O-NO 78 2 min 0,000 mm 0,5 UV-I 313 W/m 6,8 C 4,4 C 27,4 km/h (4 Bft) 96,00 %
09.01.2018 13:12 11,4 C 4,4 C 74 % 1013,7 hPa 0,0 l/m 18,8 km/h (3 Bft) O-NO 57 2 min 0,000 mm 0,5 UV-I 295 W/m 6,9 C 5,5 C 24,1 km/h (4 Bft) 100,00 %
09.01.2018 13:14 11,4 C 4,4 C 74 % 1013,7 hPa 0,0 l/m 23,0 km/h (4 Bft) O-NO 65 2 min 0,000 mm 0,5 UV-I 264 W/m 6,9 C 4,2 C 32,2 km/h (5 Bft) 98,00 %
09.01.2018 13:16 11,4 C 4,4 C 74 % 1013,7 hPa 0,0 l/m 22,3 km/h (4 Bft) O-NO 57 2 min 0,000 mm 0,5 UV-I 261 W/m 6,9 C 4,4 C 29,0 km/h (5 Bft) 97,44 %
09.01.2018 13:18 11,4 C 4,4 C 74 % 1013,7 hPa 0,0 l/m 21,2 km/h (4 Bft) NO 46 2 min 0,000 mm 0,5 UV-I 225 W/m 6,9 C 4,7 C 30,6 km/h (5 Bft) 100,00 %
09.01.2018 13:20 11,4 C 4,4 C 74 % 1013,8 hPa 0,0 l/m 21,2 km/h (4 Bft) O-SO 103 2 min 0,000 mm 0,5 UV-I 264 W/m 6,9 C 4,7 C 32,2 km/h (5 Bft) 97,73 %
09.01.2018 13:22 11,4 C 4,4 C 74 % 1013,8 hPa 0,0 l/m 17,8 km/h (3 Bft) O-NO 67 2 min 0,000 mm 0,5 UV-I 280 W/m 6,9 C 5,8 C 33,8 km/h (5 Bft) 100,00 %
09.01.2018 13:24 11,5 C 4,4 C 73 % 1013,6 hPa 0,0 l/m 26,6 km/h (4 Bft) O-NO 57 2 min 0,000 mm 0,5 UV-I 333 W/m 6,8 C 3,5 C 38,6 km/h (5 Bft) 100,00 %
09.01.2018 13:26 11,6 C 4,4 C 74 % 1013,5 hPa 0,0 l/m 23,2 km/h (4 Bft) O 97 2 min 0,000 mm 0,5 UV-I 310 W/m 7,1 C 4,5 C 30,6 km/h (5 Bft) 96,00 %
09.01.2018 13:28 11,6 C 4,4 C 73 % 1013,5 hPa 0,0 l/m 22,8 km/h (4 Bft) O 88 2 min 0,000 mm 0,3 UV-I 317 W/m 6,9 C 4,6 C 35,4 km/h (5 Bft) 100,00 %
09.01.2018 13:30 11,6 C 4,4 C 73 % 1013,5 hPa 0,0 l/m 20,0 km/h (4 Bft) O 88 2 min 0,000 mm 0,4 UV-I 307 W/m 6,9 C 5,4 C 27,4 km/h (4 Bft) 100,00 %
09.01.2018 13:33 11,8 C 4,4 C 73 % 1013,4 hPa 0,0 l/m 21,9 km/h (4 Bft) O 86 3 min 0,000 mm 0,5 UV-I 276 W/m 7,1 C 5,1 C 35,4 km/h (5 Bft) 100,00 %
09.01.2018 13:34 11,8 C 4,4 C 73 % 1013,4 hPa 0,0 l/m 22,0 km/h (4 Bft) O-NO 68 1 min 0,000 mm 0,5 UV-I 294 W/m 7,1 C 5,0 C 25,7 km/h (4 Bft) 100,00 %
09.01.2018 13:36 11,8 C 4,4 C 72 % 1013,3 hPa 0,0 l/m 24,4 km/h (4 Bft) O-NO 65 2 min 0,000 mm 0,3 UV-I 289 W/m 6,9 C 4,4 C 37,0 km/h (5 Bft) 100,00 %
09.01.2018 13:38 11,7 C 4,4 C 72 % 1013,4 hPa 0,0 l/m 24,1 km/h (4 Bft) O-NO 70 2 min 0,000 mm 0,0 UV-I 283 W/m 6,8 C 4,4 C 33,8 km/h (5 Bft) 100,00 %
09.01.2018 13:40 11,7 C 4,4 C 72 % 1013,3 hPa 0,0 l/m 23,3 km/h (4 Bft) NO 49 2 min 0,000 mm 0,0 UV-I 274 W/m 6,8 C 4,6 C 30,6 km/h (5 Bft) 100,00 %
09.01.2018 13:42 11,7 C 4,4 C 73 % 1013,3 hPa 0,0 l/m 21,8 km/h (4 Bft) O-NO 67 2 min 0,000 mm 0,0 UV-I 274 W/m 7,0 C 5,0 C 30,6 km/h (5 Bft) 97,56 %
09.01.2018 13:44 11,7 C 4,4 C 73 % 1013,3 hPa 0,0 l/m 21,5 km/h (4 Bft) O-NO 78 2 min 0,000 mm 0,0 UV-I 271 W/m 7,0 C 5,0 C 32,2 km/h (5 Bft) 97,87 %
09.01.2018 13:46 11,7 C 4,4 C 73 % 1013,3 hPa 0,0 l/m 21,0 km/h (4 Bft) O-NO 62 2 min 0,000 mm 0,0 UV-I 266 W/m 7,0 C 5,2 C 32,2 km/h (5 Bft) 100,00 %
09.01.2018 13:48 11,7 C 4,4 C 73 % 1013,2 hPa 0,0 l/m 22,2 km/h (4 Bft) O 80 2 min 0,000 mm 0,0 UV-I 261 W/m 7,0 C 4,9 C 33,8 km/h (5 Bft) 98,00 %
09.01.2018 13:50 11,7 C 4,4 C 72 % 1013,3 hPa 0,0 l/m 25,0 km/h (4 Bft) O-NO 68 2 min 0,000 mm 0,0 UV-I 254 W/m 6,8 C 4,1 C 33,8 km/h (5 Bft) 100,00 %
09.01.2018 13:52 11,6 C 4,4 C 73 % 1013,3 hPa 0,0 l/m 24,2 km/h (4 Bft) O-NO 66 2 min 0,000 mm 0,0 UV-I 248 W/m 6,9 C 4,2 C 33,8 km/h (5 Bft) 98,21 %
09.01.2018 13:54 11,6 C 4,4 C 73 % 1013,4 hPa 0,0 l/m 26,6 km/h (4 Bft) O-NO 70 2 min 0,000 mm 0,0 UV-I 255 W/m 6,9 C 3,6 C 38,6 km/h (5 Bft) 100,00 %
09.01.2018 13:56 11,5 C 4,4 C 74 % 1013,4 hPa 0,0 l/m 20,6 km/h (4 Bft) O 80 2 min 0,000 mm 0,0 UV-I 257 W/m 7,0 C 5,0 C 37,0 km/h (5 Bft) 100,00 %
09.01.2018 13:58 11,4 C 4,4 C 73 % 1013,3 hPa 0,0 l/m 27,2 km/h (4 Bft) O-NO 67 0 min 0,000 mm 0,0 UV-I 106 W/m 6,7 C 3,2 C 37,0 km/h (5 Bft) 98,11 %
09.01.2018 14:00 11,3 C 4,4 C 73 % 1013,3 hPa 0,0 l/m 22,9 km/h (4 Bft) O-NO 72 0 min 0,000 mm 0,0 UV-I 59 W/m 6,6 C 4,1 C 30,6 km/h (5 Bft) 100,00 %
09.01.2018 14:02 11,2 C 4,4 C 74 % 1013,3 hPa 0,0 l/m 24,3 km/h (4 Bft) NO 50 0 min 0,177 mm 0,0 UV-I 52 W/m 6,7 C 3,6 C 32,2 km/h (5 Bft) 97,92 %
09.01.2018 14:03 11,1 C 4,4 C 74 % 1013,3 hPa 0,0 l/m 24,1 km/h (4 Bft) O-NO 67 0 min 0,000 mm 0,0 UV-I 46 W/m 6,6 C 3,6 C 32,2 km/h (5 Bft) 100,00 %
09.01.2018 14:04 11,1 C 4,4 C 74 % 1013,3 hPa 0,0 l/m 19,7 km/h (3 Bft) O 101 0 min 0,000 mm 0,0 UV-I 46 W/m 6,6 C 4,8 C 24,1 km/h (4 Bft) 100,00 %
09.01.2018 14:06 10,9 C 4,4 C 75 % 1013,3 hPa 0,0 l/m 21,9 km/h (4 Bft) O-NO 71 0 min 0,000 mm 0,0 UV-I 48 W/m 6,6 C 3,9 C 30,6 km/h (5 Bft) 96,00 %
09.01.2018 14:08 10,9 C 4,4 C 75 % 1013,3 hPa 0,0 l/m 20,7 km/h (4 Bft) O-NO 78 0 min 0,000 mm 0,0 UV-I 48 W/m 6,6 C 4,2 C 29,0 km/h (5 Bft) 98,00 %
09.01.2018 14:10 10,9 C 4,4 C 75 % 1013,3 hPa 0,0 l/m 20,3 km/h (4 Bft) O-NO 59 0 min 0,000 mm 0,0 UV-I 48 W/m 6,6 C 4,4 C 25,7 km/h (4 Bft) 95,65 %
09.01.2018 14:12 10,8 C 4,4 C 76 % 1013,4 hPa 0,0 l/m 16,6 km/h (3 Bft) NO 54 0 min 0,000 mm 0,0 UV-I 58 W/m 6,7 C 5,5 C 25,7 km/h (4 Bft) 100,00 %
09.01.2018 14:14 10,8 C 4,4 C 76 % 1013,3 hPa 0,0 l/m 20,2 km/h (4 Bft) NO 48 0 min 0,000 mm 0,0 UV-I 64 W/m 6,7 C 4,3 C 27,4 km/h (4 Bft) 97,56 %
09.01.2018 14:16 10,8 C 4,4 C 76 % 1013,3 hPa 0,0 l/m 18,5 km/h (3 Bft) NO 55 0 min 0,000 mm 0,0 UV-I 60 W/m 6,7 C 4,8 C 24,1 km/h (4 Bft) 97,87 %
09.01.2018 14:18 10,8 C 4,4 C 76 % 1013,3 hPa 0,0 l/m 17,9 km/h (3 Bft) O-NO 59 0 min 0,000 mm 0,0 UV-I 55 W/m 6,7 C 5,0 C 25,7 km/h (4 Bft) 100,00 %
09.01.2018 14:20 10,8 C 4,4 C 76 % 1013,3 hPa 0,0 l/m 20,3 km/h (4 Bft) O 83 0 min 0,000 mm 0,0 UV-I 54 W/m 6,7 C 4,2 C 25,7 km/h (4 Bft) 100,00 %
09.01.2018 14:22 10,7 C 4,4 C 76 % 1013,3 hPa 0,0 l/m 19,6 km/h (3 Bft) NO 34 0 min 0,000 mm 0,0 UV-I 53 W/m 6,6 C 4,3 C 27,4 km/h (4 Bft) 97,37 %
09.01.2018 14:24 10,7 C 4,4 C 77 % 1013,3 hPa 0,0 l/m 17,2 km/h (3 Bft) O-NO 74 0 min 0,000 mm 0,0 UV-I 52 W/m 6,8 C 5,1 C 25,7 km/h (4 Bft) 100,00 %
09.01.2018 14:26 10,6 C 4,4 C 77 % 1013,3 hPa 0,0 l/m 15,9 km/h (3 Bft) O-NO 63 0 min 0,000 mm 0,0 UV-I 47 W/m 6,7 C 5,5 C 22,5 km/h (4 Bft) 100,00 %
09.01.2018 14:28 10,5 C 4,4 C 77 % 1013,3 hPa 0,0 l/m 16,8 km/h (3 Bft) O-NO 76 0 min 0,000 mm 0,0 UV-I 47 W/m 6,6 C 5,0 C 24,1 km/h (4 Bft) 97,87 %
09.01.2018 14:30 10,4 C 4,4 C 78 % 1013,3 hPa 0,0 l/m 16,0 km/h (3 Bft) O 85 0 min 0,000 mm 0,0 UV-I 43 W/m 6,7 C 5,2 C 20,9 km/h (4 Bft) 98,04 %
09.01.2018 14:32 10,4 C 4,4 C 78 % 1013,3 hPa 0,0 l/m 20,9 km/h (4 Bft) O-NO 58 0 min 0,000 mm 0,0 UV-I 37 W/m 6,7 C 3,5 C 29,0 km/h (5 Bft) 95,12 %
09.01.2018 14:34 10,4 C 4,4 C 78 % 1013,4 hPa 0,0 l/m 18,4 km/h (3 Bft) O 86 0 min 0,000 mm 0,0 UV-I 33 W/m 6,7 C 4,3 C 25,7 km/h (4 Bft) 96,23 %
09.01.2018 14:36 10,3 C 4,4 C 78 % 1013,4 hPa 0,0 l/m 16,8 km/h (3 Bft) O-NO 72 0 min 0,000 mm 0,0 UV-I 38 W/m 6,6 C 4,8 C 20,9 km/h (4 Bft) 97,56 %
09.01.2018 14:38 10,3 C 4,4 C 78 % 1013,4 hPa 0,0 l/m 21,1 km/h (4 Bft) O 79 0 min 0,000 mm 0,0 UV-I 34 W/m 6,6 C 3,3 C 27,4 km/h (4 Bft) 98,00 %
09.01.2018 14:40 10,3 C 4,4 C 78 % 1013,4 hPa 0,0 l/m 14,8 km/h (3 Bft) NO 51 0 min 0,000 mm 0,0 UV-I 32 W/m 6,6 C 5,6 C 20,9 km/h (4 Bft) 97,87 %
09.01.2018 14:43 10,3 C 4,4 C 79 % 1013,5 hPa 0,0 l/m 16,5 km/h (3 Bft) O-NO 76 0 min 0,000 mm 0,0 UV-I 26 W/m 6,8 C 4,9 C 29,0 km/h (5 Bft) 97,26 %
09.01.2018 14:44 10,3 C 4,4 C 79 % 1013,5 hPa 0,0 l/m 18,1 km/h (3 Bft) O-NO 73 0 min 0,000 mm 0,0 UV-I 28 W/m 6,8 C 4,3 C 20,9 km/h (4 Bft) 96,30 %
09.01.2018 14:46 10,3 C 4,4 C 79 % 1013,5 hPa 0,0 l/m 20,1 km/h (4 Bft) O-NO 65 0 min 0,000 mm 0,0 UV-I 29 W/m 6,8 C 3,6 C 29,0 km/h (5 Bft) 96,15 %
09.01.2018 14:48 10,3 C 4,4 C 78 % 1013,4 hPa 0,0 l/m 23,1 km/h (4 Bft) O-NO 70 0 min 0,000 mm 0,0 UV-I 29 W/m 6,6 C 2,7 C 29,0 km/h (5 Bft) 96,43 %
09.01.2018 14:50 10,3 C 4,4 C 79 % 1013,3 hPa 0,0 l/m 19,2 km/h (3 Bft) O-NO 66 0 min 0,000 mm 0,0 UV-I 31 W/m 6,8 C 3,9 C 29,0 km/h (5 Bft) 98,21 %
09.01.2018 14:52 10,2 C 4,4 C 79 % 1013,4 hPa 0,0 l/m 15,9 km/h (3 Bft) O 87 0 min 0,000 mm 0,0 UV-I 32 W/m 6,7 C 5,0 C 24,1 km/h (4 Bft) 97,56 %
09.01.2018 14:54 10,2 C 4,4 C 79 % 1013,4 hPa 0,0 l/m 17,6 km/h (3 Bft) O 99 0 min 0,000 mm 0,0 UV-I 33 W/m 6,7 C 4,4 C 25,7 km/h (4 Bft) 94,00 %
09.01.2018 14:56 10,2 C 4,4 C 79 % 1013,5 hPa 0,0 l/m 16,1 km/h (3 Bft) O 97 0 min 0,000 mm 0,0 UV-I 33 W/m 6,7 C 4,9 C 25,7 km/h (4 Bft) 96,00 %
09.01.2018 14:58 10,1 C 4,4 C 79 % 1013,4 hPa 0,0 l/m 20,5 km/h (4 Bft) O 82 0 min 0,000 mm 0,0 UV-I 35 W/m 6,6 C 3,3 C 27,4 km/h (4 Bft) 96,00 %
09.01.2018 15:00 10,2 C 4,4 C 79 % 1013,4 hPa 0,0 l/m 18,9 km/h (3 Bft) O 79 0 min 0,000 mm 0,0 UV-I 37 W/m 6,7 C 3,9 C 24,1 km/h (4 Bft) 97,44 %
09.01.2018 15:02 10,1 C 4,4 C 79 % 1013,4 hPa 0,0 l/m 17,5 km/h (3 Bft) O-NO 68 0 min 0,077 mm 0,0 UV-I 40 W/m 6,6 C 4,3 C 22,5 km/h (4 Bft) 96,00 %
09.01.2018 15:04 10,1 C 4,4 C 80 % 1013,5 hPa 0,0 l/m 16,9 km/h (3 Bft) O-SO 106 0 min 0,000 mm 0,0 UV-I 42 W/m 6,8 C 4,5 C 22,5 km/h (4 Bft) 97,73 %
09.01.2018 15:06 10,0 C 4,4 C 80 % 1013,4 hPa 0,0 l/m 12,8 km/h (3 Bft) SO 144 0 min 0,000 mm 0,0 UV-I 43 W/m 6,7 C 6,1 C 20,9 km/h (4 Bft) 94,00 %
09.01.2018 15:08 10,1 C 4,4 C 80 % 1013,4 hPa 0,0 l/m 10,6 km/h (2 Bft) SO 140 0 min 0,000 mm 0,0 UV-I 47 W/m 6,8 C 7,4 C 19,3 km/h (3 Bft) 98,00 %
09.01.2018 15:10 10,0 C 4,4 C 80 % 1013,5 hPa 0,0 l/m 11,4 km/h (2 Bft) O-SO 120 0 min 0,000 mm 0,0 UV-I 51 W/m 6,7 C 6,8 C 17,7 km/h (3 Bft) 97,56 %
09.01.2018 15:12 10,0 C 4,4 C 80 % 1013,5 hPa 0,0 l/m 13,1 km/h (3 Bft) O-SO 118 0 min 0,000 mm 0,0 UV-I 50 W/m 6,7 C 6,0 C 16,1 km/h (3 Bft) 98,21 %
09.01.2018 15:14 10,0 C 4,4 C 79 % 1013,6 hPa 0,0 l/m 15,7 km/h (3 Bft) O 81 0 min 0,000 mm 0,0 UV-I 49 W/m 6,5 C 4,8 C 24,1 km/h (4 Bft) 94,74 %
09.01.2018 15:16 10,1 C 4,4 C 79 % 1013,5 hPa 0,0 l/m 16,7 km/h (3 Bft) O-SO 102 0 min 0,000 mm 0,0 UV-I 49 W/m 6,6 C 4,6 C 25,7 km/h (4 Bft) 97,56 %
09.01.2018 15:18 10,1 C 4,4 C 79 % 1013,5 hPa 0,0 l/m 14,1 km/h (3 Bft) O-NO 69 0 min 0,000 mm 0,0 UV-I 47 W/m 6,6 C 5,6 C 19,3 km/h (3 Bft) 98,11 %
09.01.2018 15:20 10,1 C 4,4 C 79 % 1013,4 hPa 0,0 l/m 15,7 km/h (3 Bft) O-NO 74 0 min 0,000 mm 0,0 UV-I 45 W/m 6,6 C 5,0 C 22,5 km/h (4 Bft) 95,74 %
09.01.2018 15:22 10,0 C 4,4 C 80 % 1013,5 hPa 0,0 l/m 11,0 km/h (2 Bft) O-SO 114 0 min 0,000 mm 0,0 UV-I 43 W/m 6,7 C 7,0 C 16,1 km/h (3 Bft) 96,23 %
09.01.2018 15:24 9,9 C 4,4 C 80 % 1013,6 hPa 0,0 l/m 13,6 km/h (3 Bft) O-SO 119 0 min 0,000 mm 0,0 UV-I 39 W/m 6,6 C 5,6 C 19,3 km/h (3 Bft) 100,00 %
09.01.2018 15:26 9,9 C 4,4 C 80 % 1013,6 hPa 0,0 l/m 13,2 km/h (3 Bft) O 86 0 min 0,000 mm 0,0 UV-I 34 W/m 6,6 C 5,8 C 20,9 km/h (4 Bft) 94,34 %
09.01.2018 15:28 9,9 C 4,4 C 80 % 1013,7 hPa 0,0 l/m 16,8 km/h (3 Bft) SO 131 0 min 0,000 mm 0,0 UV-I 32 W/m 6,6 C 4,3 C 24,1 km/h (4 Bft) 98,00 %
09.01.2018 15:30 10,0 C 4,4 C 79 % 1013,7 hPa 0,0 l/m 17,3 km/h (3 Bft) O-NO 59 0 min 0,000 mm 0,0 UV-I 29 W/m 6,5 C 4,2 C 25,7 km/h (4 Bft) 97,73 %
09.01.2018 15:32 10,0 C 4,4 C 79 % 1013,7 hPa 0,0 l/m 20,5 km/h (4 Bft) O 87 0 min 0,000 mm 0,0 UV-I 26 W/m 6,5 C 3,1 C 29,0 km/h (5 Bft) 97,62 %
09.01.2018 15:34 10,0 C 4,4 C 79 % 1013,7 hPa 0,0 l/m 16,8 km/h (3 Bft) O-SO 113 0 min 0,000 mm 0,0 UV-I 25 W/m 6,5 C 4,4 C 22,5 km/h (4 Bft) 96,15 %
09.01.2018 15:36 10,0 C 4,4 C 79 % 1013,8 hPa 0,0 l/m 18,1 km/h (3 Bft) O-NO 75 0 min 0,000 mm 0,0 UV-I 26 W/m 6,5 C 3,9 C 27,4 km/h (4 Bft) 94,44 %
09.01.2018 15:38 9,9 C 4,4 C 79 % 1013,6 hPa 0,0 l/m 19,3 km/h (3 Bft) O-NO 70 0 min 0,000 mm 0,0 UV-I 26 W/m 6,4 C 3,4 C 27,4 km/h (4 Bft) 95,12 %
09.01.2018 15:40 9,9 C 4,4 C 79 % 1013,6 hPa 0,0 l/m 17,0 km/h (3 Bft) SO 134 0 min 0,000 mm 0,0 UV-I 25 W/m 6,4 C 4,2 C 30,6 km/h (5 Bft) 96,92 %
09.01.2018 15:43 9,9 C 4,4 C 79 % 1013,7 hPa 0,0 l/m 18,2 km/h (3 Bft) O-SO 120 0 min 0,000 mm 0,0 UV-I 23 W/m 6,4 C 3,8 C 25,7 km/h (4 Bft) 95,71 %
09.01.2018 15:44 9,9 C 4,4 C 79 % 1013,7 hPa 0,0 l/m 23,1 km/h (4 Bft) O 92 0 min 0,000 mm 0,0 UV-I 21 W/m 6,4 C 2,2 C 32,2 km/h (5 Bft) 100,00 %
09.01.2018 15:46 9,8 C 4,4 C 79 % 1013,7 hPa 0,0 l/m 21,7 km/h (4 Bft) O 84 0 min 0,000 mm 0,0 UV-I 21 W/m 6,3 C 2,5 C 29,0 km/h (5 Bft) 96,00 %
09.01.2018 15:48 9,8 C 4,4 C 79 % 1013,6 hPa 0,0 l/m 21,2 km/h (4 Bft) O-NO 65 0 min 0,000 mm 0,0 UV-I 19 W/m 6,3 C 2,6 C 25,7 km/h (4 Bft) 92,68 %
09.01.2018 15:50 9,8 C 4,4 C 79 % 1013,7 hPa 0,0 l/m 20,5 km/h (4 Bft) O 85 0 min 0,000 mm 0,0 UV-I 19 W/m 6,3 C 2,9 C 29,0 km/h (5 Bft) 96,23 %
09.01.2018 15:52 9,7 C 4,4 C 80 % 1013,7 hPa 0,0 l/m 21,6 km/h (4 Bft) O-NO 62 0 min 0,000 mm 0,0 UV-I 19 W/m 6,4 C 2,4 C 27,4 km/h (4 Bft) 96,00 %
09.01.2018 15:54 9,7 C 4,4 C 80 % 1013,7 hPa 0,0 l/m 20,3 km/h (4 Bft) O-NO 66 0 min 0,000 mm 0,0 UV-I 19 W/m 6,4 C 2,8 C 25,7 km/h (4 Bft) 97,87 %
09.01.2018 15:56 9,6 C 4,4 C 80 % 1013,7 hPa 0,0 l/m 18,9 km/h (3 Bft) O-NO 62 0 min 0,000 mm 0,0 UV-I 18 W/m 6,3 C 3,1 C 30,6 km/h (5 Bft) 98,00 %
09.01.2018 15:58 9,5 C 4,4 C 81 % 1013,8 hPa 0,0 l/m 17,3 km/h (3 Bft) O-NO 74 0 min 0,000 mm 0,0 UV-I 18 W/m 6,4 C 3,6 C 22,5 km/h (4 Bft) 97,14 %
09.01.2018 16:00 9,5 C 4,4 C 81 % 1013,9 hPa 0,0 l/m 17,4 km/h (3 Bft) O-NO 78 0 min 0,050 mm 0,0 UV-I 17 W/m 6,4 C 3,6 C 25,7 km/h (4 Bft) 98,21 %
09.01.2018 16:02 9,4 C 4,4 C 81 % 1014,0 hPa 0,0 l/m 11,1 km/h (2 Bft) O-NO 76 0 min 0,000 mm 0,0 UV-I 14 W/m 6,3 C 6,3 C 17,7 km/h (3 Bft) 97,44 %
09.01.2018 16:04 9,4 C 4,4 C 81 % 1014,0 hPa 0,0 l/m 10,2 km/h (2 Bft) O 101 0 min 0,000 mm 0,0 UV-I 14 W/m 6,3 C 6,8 C 16,1 km/h (3 Bft) 95,74 %
09.01.2018 16:06 9,3 C 4,4 C 82 % 1014,1 hPa 0,0 l/m 9,3 km/h (2 Bft) O 84 0 min 0,000 mm 0,0 UV-I 14 W/m 6,4 C 7,3 C 14,5 km/h (3 Bft) 100,00 %
09.01.2018 16:08 9,3 C 4,4 C 82 % 1014,3 hPa 0,0 l/m 7,1 km/h (2 Bft) S-SO 163 0 min 0,000 mm 0,0 UV-I 14 W/m 6,4 C 8,8 C 14,5 km/h (3 Bft) 98,00 %
09.01.2018 16:10 9,3 C 4,4 C 82 % 1014,4 hPa 0,0 l/m 1,6 km/h (1 Bft) O 93 0 min 0,000 mm 0,0 UV-I 12 W/m 6,4 C 9,3 C 6,4 km/h (2 Bft) 100,00 %
09.01.2018 16:12 9,3 C 4,4 C 82 % 1014,5 hPa 0,0 l/m 1,7 km/h (1 Bft) S 169 0 min 0,000 mm 0,0 UV-I 10 W/m 6,4 C 9,3 C 6,4 km/h (2 Bft) 100,00 %
09.01.2018 16:14 9,3 C 4,4 C 82 % 1014,5 hPa 0,0 l/m 2,7 km/h (1 Bft) S 169 0 min 0,000 mm 0,0 UV-I 9 W/m 6,4 C 9,3 C 6,4 km/h (2 Bft) 100,00 %
09.01.2018 16:16 9,2 C 4,4 C 82 % 1014,5 hPa 0,0 l/m 0,0 km/h (0 Bft) S 169 0 min 0,000 mm 0,0 UV-I 7 W/m 6,3 C 9,2 C 0,0 km/h (0 Bft) 100,00 %
09.01.2018 16:18 9,2 C 4,4 C 83 % 1014,4 hPa 0,0 l/m 3,8 km/h (1 Bft) O-NO 67 0 min 0,000 mm 0,0 UV-I 7 W/m 6,5 C 9,2 C 6,4 km/h (2 Bft) 100,00 %
09.01.2018 16:20 9,2 C 4,4 C 82 % 1014,4 hPa 0,0 l/m 7,2 km/h (2 Bft) O 81 0 min 0,000 mm 0,0 UV-I 6 W/m 6,3 C 8,6 C 11,3 km/h (2 Bft) 100,00 %
09.01.2018 16:22 9,3 C 4,4 C 82 % 1014,4 hPa 0,0 l/m 9,3 km/h (2 Bft) O 88 0 min 0,000 mm 0,0 UV-I 5 W/m 6,4 C 7,3 C 14,5 km/h (3 Bft) 100,00 %
09.01.2018 16:24 9,2 C 4,4 C 82 % 1014,2 hPa 0,0 l/m 9,4 km/h (2 Bft) O 84 0 min 0,000 mm 0,0 UV-I 5 W/m 6,3 C 7,1 C 14,5 km/h (3 Bft) 100,00 %
09.01.2018 16:26 9,2 C 4,4 C 82 % 1014,0 hPa 0,0 l/m 9,2 km/h (2 Bft) O-NO 69 0 min 0,000 mm 0,0 UV-I 5 W/m 6,3 C 7,2 C 14,5 km/h (3 Bft) 100,00 %
09.01.2018 16:28 9,2 C 4,4 C 82 % 1013,7 hPa 0,0 l/m 15,9 km/h (3 Bft) O-NO 62 0 min 0,000 mm 0,0 UV-I 5 W/m 6,3 C 3,8 C 20,9 km/h (4 Bft) 97,37 %
09.01.2018 16:30 9,2 C 4,4 C 83 % 1013,4 hPa 0,0 l/m 17,3 km/h (3 Bft) NO 43 0 min 0,000 mm 0,0 UV-I 5 W/m 6,5 C 3,2 C 24,1 km/h (4 Bft) 98,21 %
09.01.2018 16:32 9,1 C 4,4 C 83 % 1013,1 hPa 0,0 l/m 16,7 km/h (3 Bft) NO 56 0 min 0,000 mm 0,0 UV-I 5 W/m 6,4 C 3,3 C 20,9 km/h (4 Bft) 92,59 %
09.01.2018 16:34 8,9 C 4,4 C 83 % 1012,7 hPa 0,0 l/m 20,0 km/h (4 Bft) NO 40 0 min 0,000 mm 0,0 UV-I 5 W/m 6,2 C 1,9 C 29,0 km/h (5 Bft) 97,01 %
09.01.2018 16:36 8,9 C 4,4 C 84 % 1012,3 hPa 0,0 l/m 20,0 km/h (4 Bft) O-NO 62 0 min 0,000 mm 0,0 UV-I 5 W/m 6,3 C 1,9 C 25,7 km/h (4 Bft) 97,73 %
09.01.2018 16:38 8,8 C 4,4 C 84 % 1012,5 hPa 0,0 l/m 10,2 km/h (2 Bft) O-NO 68 0 min 0,000 mm 0,0 UV-I 5 W/m 6,2 C 6,1 C 19,3 km/h (3 Bft) 97,87 %
09.01.2018 16:40 8,8 C 4,4 C 84 % 1013,0 hPa 0,0 l/m 9,2 km/h (2 Bft) NO 48 0 min 0,000 mm 0,0 UV-I 5 W/m 6,2 C 6,8 C 16,1 km/h (3 Bft) 98,00 %
09.01.2018 16:42 8,8 C 4,4 C 84 % 1013,4 hPa 0,0 l/m 11,1 km/h (2 Bft) O-NO 70 0 min 0,000 mm 0,0 UV-I 3 W/m 6,2 C 5,6 C 17,7 km/h (3 Bft) 97,62 %
09.01.2018 16:44 8,8 C 4,4 C 84 % 1013,4 hPa 0,0 l/m 11,5 km/h (2 Bft) NO 36 0 min 0,000 mm 0,0 UV-I 0 W/m 6,2 C 5,4 C 19,3 km/h (3 Bft) 94,23 %
09.01.2018 16:46 8,8 C 4,4 C 84 % 1013,4 hPa 0,0 l/m 8,4 km/h (2 Bft) NO 41 0 min 0,000 mm 0,0 UV-I 0 W/m 6,2 C 7,3 C 14,5 km/h (3 Bft) 97,62 %
09.01.2018 16:48 8,7 C 4,4 C 84 % 1013,5 hPa 0,0 l/m 13,1 km/h (3 Bft) N-NO 30 0 min 0,000 mm 0,0 UV-I 0 W/m 6,2 C 4,5 C 19,3 km/h (3 Bft) 97,56 %
09.01.2018 16:50 8,7 C 4,4 C 85 % 1013,6 hPa 0,0 l/m 10,9 km/h (2 Bft) NO 46 0 min 0,000 mm 0,0 UV-I 0 W/m 6,3 C 5,6 C 16,1 km/h (3 Bft) 98,11 %
09.01.2018 16:52 8,5 C 4,4 C 85 % 1013,6 hPa 0,0 l/m 11,9 km/h (2 Bft) O-NO 61 0 min 0,000 mm 0,0 UV-I 0 W/m 6,1 C 4,8 C 16,1 km/h (3 Bft) 96,23 %
09.01.2018 16:54 8,4 C 4,4 C 85 % 1013,6 hPa 0,0 l/m 10,6 km/h (2 Bft) NO 46 0 min 0,000 mm 0,0 UV-I 0 W/m 6,0 C 5,5 C 17,7 km/h (3 Bft) 97,87 %
09.01.2018 16:56 8,4 C 4,4 C 85 % 1013,5 hPa 0,0 l/m 12,6 km/h (3 Bft) NO 38 0 min 0,000 mm 0,0 UV-I 0 W/m 6,0 C 4,4 C 19,3 km/h (3 Bft) 97,73 %
09.01.2018 16:58 8,5 C 4,4 C 85 % 1013,5 hPa 0,0 l/m 15,5 km/h (3 Bft) O-NO 59 0 min 0,000 mm 0,0 UV-I 0 W/m 6,1 C 3,1 C 19,3 km/h (3 Bft) 97,37 %
09.01.2018 17:00 8,6 C 4,4 C 85 % 1013,5 hPa 0,0 l/m 15,9 km/h (3 Bft) O-NO 63 0 min 0,000 mm 0,0 UV-I 0 W/m 6,2 C 3,0 C 19,3 km/h (3 Bft) 98,21 %
09.01.2018 17:02 8,5 C 4,4 C 85 % 1013,6 hPa 0,0 l/m 12,4 km/h (3 Bft) O-NO 63 0 min 0,026 mm 0,0 UV-I 0 W/m 6,1 C 4,6 C 17,7 km/h (3 Bft) 97,14 %
09.01.2018 17:04 8,4 C 4,4 C 85 % 1013,5 hPa 0,0 l/m 11,1 km/h (2 Bft) NO 50 0 min 0,000 mm 0,0 UV-I 0 W/m 6,0 C 5,2 C 16,1 km/h (3 Bft) 100,00 %
09.01.2018 17:06 8,3 C 4,4 C 85 % 1013,5 hPa 0,0 l/m 12,0 km/h (2 Bft) N-NO 28 0 min 0,000 mm 0,0 UV-I 0 W/m 5,9 C 4,6 C 17,7 km/h (3 Bft) 96,77 %
09.01.2018 17:08 8,3 C 4,4 C 85 % 1013,5 hPa 0,0 l/m 8,8 km/h (2 Bft) NO 52 0 min 0,000 mm 0,0 UV-I 0 W/m 5,9 C 6,5 C 12,9 km/h (3 Bft) 100,00 %
09.01.2018 17:10 8,3 C 4,4 C 85 % 1013,5 hPa 0,0 l/m 11,3 km/h (2 Bft) O-NO 62 0 min 0,000 mm 0,0 UV-I 0 W/m 5,9 C 4,9 C 17,7 km/h (3 Bft) 95,74 %
09.01.2018 17:12 8,3 C 4,4 C 85 % 1013,5 hPa 0,0 l/m 15,3 km/h (3 Bft) O-NO 57 0 min 0,000 mm 0,0 UV-I 0 W/m 5,9 C 2,9 C 19,3 km/h (3 Bft) 100,00 %
09.01.2018 17:14 8,2 C 4,4 C 85 % 1013,5 hPa 0,0 l/m 16,1 km/h (3 Bft) O-NO 61 0 min 0,000 mm 0,0 UV-I 0 W/m 5,8 C 2,5 C 20,9 km/h (4 Bft) 100,00 %
09.01.2018 17:16 8,1 C 4,4 C 86 % 1013,4 hPa 0,0 l/m 14,9 km/h (3 Bft) O-NO 71 0 min 0,000 mm 0,0 UV-I 0 W/m 5,9 C 2,9 C 20,9 km/h (4 Bft) 100,00 %
09.01.2018 17:18 8,0 C 4,4 C 86 % 1013,4 hPa 0,0 l/m 15,2 km/h (3 Bft) O 82 0 min 0,000 mm 0,0 UV-I 0 W/m 5,8 C 2,6 C 20,9 km/h (4 Bft) 100,00 %
09.01.2018 17:20 8,1 C 4,4 C 86 % 1013,4 hPa 0,0 l/m 17,4 km/h (3 Bft) O-NO 64 0 min 0,000 mm 0,0 UV-I 0 W/m 5,9 C 1,8 C 24,1 km/h (4 Bft) 100,00 %
09.01.2018 17:22 8,2 C 4,4 C 86 % 1013,5 hPa 0,0 l/m 15,6 km/h (3 Bft) O-NO 59 0 min 0,000 mm 0,0 UV-I 0 W/m 6,0 C 2,7 C 22,5 km/h (4 Bft) 100,00 %
09.01.2018 17:24 8,2 C 4,4 C 86 % 1013,5 hPa 0,0 l/m 12,7 km/h (3 Bft) NO 53 0 min 0,000 mm 0,0 UV-I 0 W/m 6,0 C 4,1 C 19,3 km/h (3 Bft) 100,00 %
09.01.2018 17:26 8,1 C 4,4 C 86 % 1013,6 hPa 0,0 l/m 8,0 km/h (2 Bft) O-NO 57 0 min 0,000 mm 0,0 UV-I 0 W/m 5,9 C 6,9 C 16,1 km/h (3 Bft) 100,00 %
09.01.2018 17:28 8,1 C 4,4 C 86 % 1013,7 hPa 0,0 l/m 7,6 km/h (2 Bft) NO 39 0 min 0,000 mm 0,0 UV-I 0 W/m 5,9 C 7,2 C 11,3 km/h (2 Bft) 98,00 %
09.01.2018 17:30 7,9 C 4,4 C 86 % 1013,8 hPa 0,0 l/m 9,3 km/h (2 Bft) N-NO 26 0 min 0,000 mm 0,0 UV-I 0 W/m 5,7 C 5,7 C 16,1 km/h (3 Bft) 100,00 %
09.01.2018 17:32 7,8 C 4,4 C 87 % 1013,8 hPa 0,0 l/m 9,9 km/h (2 Bft) N-NO 26 0 min 0,000 mm 0,0 UV-I 0 W/m 5,8 C 5,2 C 14,5 km/h (3 Bft) 100,00 %
09.01.2018 17:34 7,7 C 4,4 C 87 % 1013,7 hPa 0,0 l/m 10,4 km/h (2 Bft) O-NO 57 0 min 0,000 mm 0,0 UV-I 0 W/m 5,7 C 4,8 C 16,1 km/h (3 Bft) 100,00 %
09.01.2018 17:36 7,8 C 4,4 C 87 % 1013,7 hPa 0,0 l/m 10,5 km/h (2 Bft) O-NO 60 0 min 0,000 mm 0,0 UV-I 0 W/m 5,8 C 4,9 C 16,1 km/h (3 Bft) 100,00 %
09.01.2018 17:38 7,9 C 4,4 C 87 % 1013,7 hPa 0,0 l/m 13,5 km/h (3 Bft) O-NO 59 0 min 0,000 mm 0,0 UV-I 0 W/m 5,9 C 3,3 C 20,9 km/h (4 Bft) 100,00 %
09.01.2018 17:40 8,0 C 4,4 C 87 % 1013,6 hPa 0,0 l/m 12,2 km/h (2 Bft) NO 44 0 min 0,000 mm 0,0 UV-I 0 W/m 6,0 C 4,1 C 17,7 km/h (3 Bft) 98,00 %
09.01.2018 17:42 7,9 C 4,4 C 86 % 1013,7 hPa 0,0 l/m 9,8 km/h (2 Bft) NO 49 0 min 0,000 mm 0,0 UV-I 0 W/m 5,7 C 5,4 C 14,5 km/h (3 Bft) 100,00 %
09.01.2018 17:43 7,9 C 4,4 C 87 % 1013,6 hPa 0,0 l/m 9,7 km/h (2 Bft) O-NO 67 0 min 0,000 mm 0,0 UV-I 0 W/m 5,9 C 5,5 C 12,9 km/h (3 Bft) 91,30 %
09.01.2018 17:44 7,9 C 4,4 C 87 % 1013,6 hPa 0,0 l/m 9,7 km/h (2 Bft) O-NO 67 0 min 0,000 mm 0,0 UV-I 0 W/m 5,9 C 5,5 C 16,1 km/h (3 Bft) 100,00 %
09.01.2018 17:45 7,9 C 4,4 C 87 % 1013,6 hPa 0,0 l/m 9,7 km/h (2 Bft) O-NO 67 0 min 0,000 mm 0,0 UV-I 0 W/m 5,9 C 5,5 C 14,5 km/h (3 Bft) 95,65 %
09.01.2018 17:46 7,8 C 4,4 C 87 % 1013,6 hPa 0,0 l/m 13,0 km/h (3 Bft) NO 51 0 min 0,000 mm 0,0 UV-I 0 W/m 5,8 C 3,4 C 17,7 km/h (3 Bft) 100,00 %
09.01.2018 17:48 7,8 C 4,4 C 87 % 1013,7 hPa 0,0 l/m 10,0 km/h (2 Bft) NO 46 0 min 0,000 mm 0,0 UV-I 0 W/m 5,8 C 5,2 C 12,9 km/h (3 Bft) 98,11 %
09.01.2018 17:50 7,8 C 4,4 C 87 % 1013,6 hPa 0,0 l/m 10,9 km/h (2 Bft) NO 46 0 min 0,000 mm 0,0 UV-I 0 W/m 5,8 C 4,6 C 16,1 km/h (3 Bft) 100,00 %
09.01.2018 17:52 7,8 C 4,4 C 87 % 1013,7 hPa 0,0 l/m 10,1 km/h (2 Bft) O-NO 69 0 min 0,000 mm 0,0 UV-I 0 W/m 5,8 C 5,1 C 16,1 km/h (3 Bft) 100,00 %
09.01.2018 17:54 7,8 C 4,4 C 87 % 1013,6 hPa 0,0 l/m 10,6 km/h (2 Bft) O-NO 58 0 min 0,000 mm 0,0 UV-I 0 W/m 5,8 C 4,8 C 16,1 km/h (3 Bft) 100,00 %
09.01.2018 17:56 7,7 C 4,4 C 87 % 1013,5 hPa 0,0 l/m 8,9 km/h (2 Bft) NO 42 0 min 0,000 mm 0,0 UV-I 0 W/m 5,7 C 5,8 C 14,5 km/h (3 Bft) 100,00 %
09.01.2018 17:58 7,6 C 4,4 C 88 % 1013,5 hPa 0,0 l/m 10,2 km/h (2 Bft) O-NO 59 0 min 0,000 mm 0,0 UV-I 0 W/m 5,7 C 4,8 C 16,1 km/h (3 Bft) 100,00 %
09.01.2018 18:00 7,6 C 4,4 C 88 % 1013,7 hPa 0,0 l/m 9,9 km/h (2 Bft) NO 36 0 min 0,000 mm 0,0 UV-I 0 W/m 5,7 C 5,0 C 16,1 km/h (3 Bft) 100,00 %
09.01.2018 18:02 7,7 C 4,4 C 88 % 1013,7 hPa 0,0 l/m 10,4 km/h (2 Bft) NO 46 0 min 0,025 mm 0,0 UV-I 0 W/m 5,8 C 4,8 C 14,5 km/h (3 Bft) 100,00 %
09.01.2018 18:04 7,6 C 4,4 C 87 % 1013,7 hPa 0,0 l/m 7,6 km/h (2 Bft) NO 43 0 min 0,000 mm 0,0 UV-I 0 W/m 5,6 C 6,6 C 11,3 km/h (2 Bft) 100,00 %
09.01.2018 18:06 7,6 C 4,4 C 87 % 1013,9 hPa 0,0 l/m 9,5 km/h (2 Bft) NO 56 0 min 0,000 mm 0,0 UV-I 0 W/m 5,6 C 5,3 C 12,9 km/h (3 Bft) 100,00 %
09.01.2018 18:07 7,6 C 4,4 C 87 % 1013,8 hPa 0,0 l/m 9,7 km/h (2 Bft) O-NO 67 0 min 0,000 mm 0,0 UV-I 0 W/m 5,6 C 5,1 C 12,9 km/h (3 Bft) 100,00 %
09.01.2018 18:08 7,6 C 4,4 C 87 % 1013,7 hPa 0,0 l/m 10,5 km/h (2 Bft) O-NO 63 0 min 0,000 mm 0,0 UV-I 0 W/m 5,6 C 4,6 C 11,3 km/h (2 Bft) 97,78 %
09.01.2018 18:10 7,6 C 4,4 C 88 % 1013,7 hPa 0,0 l/m 10,5 km/h (2 Bft) NO 50 0 min 0,000 mm 0,0 UV-I 0 W/m 5,7 C 4,6 C 16,1 km/h (3 Bft) 100,00 %
09.01.2018 18:12 7,6 C 4,4 C 88 % 1013,7 hPa 0,0 l/m 11,5 km/h (2 Bft) NO 50 0 min 0,000 mm 0,0 UV-I 0 W/m 5,7 C 4,0 C 17,7 km/h (3 Bft) 100,00 %
09.01.2018 18:14 7,6 C 4,4 C 88 % 1013,6 hPa 0,0 l/m 12,6 km/h (3 Bft) O-NO 65 0 min 0,000 mm 0,0 UV-I 0 W/m 5,7 C 3,4 C 17,7 km/h (3 Bft) 100,00 %
09.01.2018 18:16 7,5 C 4,4 C 88 % 1013,6 hPa 0,0 l/m 14,1 km/h (3 Bft) NO 55 0 min 0,000 mm 0,0 UV-I 0 W/m 5,6 C 2,5 C 17,7 km/h (3 Bft) 100,00 %
09.01.2018 18:18 7,5 C 4,4 C 88 % 1013,6 hPa 0,0 l/m 14,4 km/h (3 Bft) NO 56 0 min 0,000 mm 0,0 UV-I 0 W/m 5,6 C 2,4 C 19,3 km/h (3 Bft) 100,00 %
09.01.2018 18:20 7,5 C 4,4 C 88 % 1013,7 hPa 0,0 l/m 10,6 km/h (2 Bft) O-NO 71 0 min 0,000 mm 0,0 UV-I 0 W/m 5,6 C 4,5 C 16,1 km/h (3 Bft) 100,00 %
09.01.2018 18:22 7,5 C 4,4 C 88 % 1013,7 hPa 0,0 l/m 7,4 km/h (2 Bft) O-NO 57 0 min 0,000 mm 0,0 UV-I 0 W/m 5,6 C 6,7 C 9,7 km/h (2 Bft) 100,00 %
09.01.2018 18:24 7,4 C 4,4 C 88 % 1013,7 hPa 0,0 l/m 7,8 km/h (2 Bft) N-NO 15 0 min 0,000 mm 0,0 UV-I 0 W/m 5,5 C 6,3 C 11,3 km/h (2 Bft) 100,00 %
09.01.2018 18:25 7,4 C 4,4 C 88 % 1013,6 hPa 0,0 l/m 11,3 km/h (2 Bft) NO 45 0 min 0,000 mm 0,0 UV-I 0 W/m 5,5 C 3,9 C 14,5 km/h (3 Bft) 95,65 %
09.01.2018 18:28 7,3 C 4,4 C 89 % 1013,6 hPa 0,0 l/m 8,2 km/h (2 Bft) O-NO 66 0 min 0,000 mm 0,0 UV-I 0 W/m 5,6 C 5,9 C 14,5 km/h (3 Bft) 99,02 %
09.01.2018 18:30 7,2 C 4,4 C 89 % 1013,6 hPa 0,0 l/m 9,4 km/h (2 Bft) N 11 0 min 0,000 mm 0,0 UV-I 0 W/m 5,5 C 4,9 C 14,5 km/h (3 Bft) 100,00 %
09.01.2018 18:32 7,2 C 4,4 C 89 % 1013,6 hPa 0,0 l/m 9,1 km/h (2 Bft) N-NO 26 0 min 0,000 mm 0,0 UV-I 0 W/m 5,5 C 5,1 C 12,9 km/h (3 Bft) 98,11 %
09.01.2018 18:34 7,1 C 4,4 C 89 % 1013,7 hPa 0,0 l/m 8,4 km/h (2 Bft) NO 36 0 min 0,000 mm 0,0 UV-I 0 W/m 5,4 C 5,5 C 12,9 km/h (3 Bft) 97,44 %
09.01.2018 18:36 7,0 C 4,4 C 90 % 1013,6 hPa 0,0 l/m 8,6 km/h (2 Bft) NO 41 0 min 0,000 mm 0,0 UV-I 0 W/m 5,5 C 5,3 C 12,9 km/h (3 Bft) 96,00 %
09.01.2018 18:38 6,9 C 4,4 C 90 % 1013,6 hPa 0,0 l/m 9,4 km/h (2 Bft) NO 40 0 min 0,000 mm 0,0 UV-I 0 W/m 5,4 C 4,6 C 12,9 km/h (3 Bft) 100,00 %
09.01.2018 18:40 6,9 C 4,4 C 90 % 1013,5 hPa 0,0 l/m 11,8 km/h (2 Bft) N-NO 31 0 min 0,000 mm 0,0 UV-I 0 W/m 5,4 C 3,1 C 16,1 km/h (3 Bft) 97,56 %
09.01.2018 18:42 6,9 C 4,4 C 90 % 1013,5 hPa 0,0 l/m 12,6 km/h (3 Bft) NO 47 0 min 0,000 mm 0,0 UV-I 0 W/m 5,4 C 2,6 C 16,1 km/h (3 Bft) 97,06 %
09.01.2018 18:44 6,9 C 4,4 C 90 % 1013,5 hPa 0,0 l/m 15,0 km/h (3 Bft) NO 48 0 min 0,000 mm 0,0 UV-I 0 W/m 5,4 C 1,4 C 19,3 km/h (3 Bft) 97,56 %
09.01.2018 18:46 6,9 C 4,4 C 90 % 1013,5 hPa 0,0 l/m 14,1 km/h (3 Bft) NO 46 0 min 0,000 mm 0,0 UV-I 0 W/m 5,4 C 1,8 C 19,3 km/h (3 Bft) 97,56 %
09.01.2018 18:48 6,9 C 4,4 C 90 % 1013,5 hPa 0,0 l/m 13,7 km/h (3 Bft) O-NO 57 0 min 0,000 mm 0,0 UV-I 0 W/m 5,4 C 2,0 C 16,1 km/h (3 Bft) 97,87 %
09.01.2018 18:50 6,9 C 4,4 C 90 % 1013,5 hPa 0,0 l/m 13,6 km/h (3 Bft) NO 38 0 min 0,000 mm 0,0 UV-I 0 W/m 5,4 C 2,1 C 19,3 km/h (3 Bft) 96,00 %
09.01.2018 18:52 6,9 C 4,4 C 90 % 1013,4 hPa 0,0 l/m 15,9 km/h (3 Bft) NO 35 0 min 0,000 mm 0,0 UV-I 0 W/m 5,4 C 1,0 C 19,3 km/h (3 Bft) 98,00 %
09.01.2018 18:54 6,8 C 4,4 C 90 % 1013,5 hPa 0,0 l/m 11,0 km/h (2 Bft) NO 43 0 min 0,000 mm 0,0 UV-I 0 W/m 5,3 C 3,4 C 14,5 km/h (3 Bft) 92,68 %
09.01.2018 18:56 6,9 C 4,4 C 90 % 1013,6 hPa 0,0 l/m 8,3 km/h (2 Bft) NO 42 0 min 0,000 mm 0,0 UV-I 0 W/m 5,4 C 5,4 C 14,5 km/h (3 Bft) 95,74 %
09.01.2018 18:58 6,9 C 4,4 C 90 % 1013,7 hPa 0,0 l/m 11,5 km/h (2 Bft) NO 47 0 min 0,000 mm 0,0 UV-I 0 W/m 5,4 C 3,2 C 16,1 km/h (3 Bft) 92,45 %
09.01.2018 19:00 7,0 C 4,4 C 90 % 1013,9 hPa 0,0 l/m 10,9 km/h (2 Bft) O-NO 59 0 min 0,026 mm 0,0 UV-I 0 W/m 5,5 C 3,7 C 16,1 km/h (3 Bft) 94,00 %
09.01.2018 19:02 7,1 C 4,4 C 90 % 1013,7 hPa 0,0 l/m 12,2 km/h (2 Bft) NO 55 0 min 0,000 mm 0,0 UV-I 0 W/m 5,6 C 3,1 C 16,1 km/h (3 Bft) 95,74 %
09.01.2018 19:04 7,0 C 4,4 C 89 % 1013,6 hPa 0,0 l/m 8,9 km/h (2 Bft) O-NO 63 0 min 0,000 mm 0,0 UV-I 0 W/m 5,3 C 5,0 C 14,5 km/h (3 Bft) 92,11 %
09.01.2018 19:06 7,0 C 4,4 C 89 % 1013,5 hPa 0,0 l/m 13,3 km/h (3 Bft) NO 55 0 min 0,000 mm 0,0 UV-I 0 W/m 5,3 C 2,3 C 17,7 km/h (3 Bft) 95,24 %
09.01.2018 19:08 6,9 C 4,4 C 90 % 1013,5 hPa 0,0 l/m 13,3 km/h (3 Bft) O-NO 67 0 min 0,000 mm 0,0 UV-I 0 W/m 5,4 C 2,2 C 17,7 km/h (3 Bft) 98,18 %
09.01.2018 19:10 6,9 C 4,4 C 90 % 1013,5 hPa 0,0 l/m 15,0 km/h (3 Bft) NO 49 0 min 0,000 mm 0,0 UV-I 0 W/m 5,4 C 1,4 C 19,3 km/h (3 Bft) 96,97 %
09.01.2018 19:12 6,9 C 4,4 C 90 % 1013,4 hPa 0,0 l/m 15,6 km/h (3 Bft) NO 55 0 min 0,000 mm 0,0 UV-I 0 W/m 5,4 C 1,1 C 20,9 km/h (4 Bft) 96,77 %
09.01.2018 19:14 6,8 C 4,4 C 90 % 1013,4 hPa 0,0 l/m 14,5 km/h (3 Bft) NO 46 0 min 0,000 mm 0,0 UV-I 0 W/m 5,3 C 1,5 C 22,5 km/h (4 Bft) 94,74 %
09.01.2018 19:16 6,8 C 4,4 C 90 % 1013,5 hPa 0,0 l/m 14,5 km/h (3 Bft) NO 43 0 min 0,000 mm 0,0 UV-I 0 W/m 5,3 C 1,5 C 19,3 km/h (3 Bft) 98,11 %
09.01.2018 19:18 6,8 C 4,4 C 90 % 1013,4 hPa 0,0 l/m 13,6 km/h (3 Bft) O-NO 63 0 min 0,000 mm 0,0 UV-I 0 W/m 5,3 C 2,0 C 19,3 km/h (3 Bft) 98,00 %
09.01.2018 19:20 6,8 C 4,4 C 90 % 1013,2 hPa 0,0 l/m 14,4 km/h (3 Bft) NO 55 0 min 0,000 mm 0,0 UV-I 0 W/m 5,3 C 1,5 C 19,3 km/h (3 Bft) 95,74 %
09.01.2018 19:22 6,8 C 4,4 C 90 % 1013,2 hPa 0,0 l/m 14,3 km/h (3 Bft) NO 55 0 min 0,000 mm 0,0 UV-I 0 W/m 5,3 C 1,6 C 19,3 km/h (3 Bft) 98,00 %
09.01.2018 19:24 6,8 C 4,4 C 90 % 1013,4 hPa 0,0 l/m 12,2 km/h (2 Bft) NO 43 0 min 0,000 mm 0,0 UV-I 0 W/m 5,3 C 2,7 C 16,1 km/h (3 Bft) 95,45 %
09.01.2018 19:26 6,8 C 4,4 C 90 % 1013,5 hPa 0,0 l/m 12,3 km/h (3 Bft) O-NO 69 0 min 0,000 mm 0,0 UV-I 0 W/m 5,3 C 2,7 C 16,1 km/h (3 Bft) 95,12 %
09.01.2018 19:28 6,8 C 4,4 C 90 % 1013,5 hPa 0,0 l/m 12,2 km/h (2 Bft) O 85 0 min 0,000 mm 0,0 UV-I 0 W/m 5,3 C 2,7 C 17,7 km/h (3 Bft) 98,11 %
09.01.2018 19:30 6,8 C 4,4 C 90 % 1013,7 hPa 0,0 l/m 13,4 km/h (3 Bft) O 81 0 min 0,000 mm 0,0 UV-I 0 W/m 5,3 C 2,1 C 19,3 km/h (3 Bft) 95,12 %
09.01.2018 19:33 6,8 C 4,4 C 90 % 1014,0 hPa 0,0 l/m 13,3 km/h (3 Bft) O 80 0 min 0,000 mm 0,0 UV-I 0 W/m 5,3 C 2,1 C 19,3 km/h (3 Bft) 97,50 %
09.01.2018 19:34 6,9 C 4,4 C 90 % 1014,0 hPa 0,0 l/m 8,3 km/h (2 Bft) O-SO 111 0 min 0,000 mm 0,0 UV-I 0 W/m 5,4 C 5,4 C 16,1 km/h (3 Bft) 100,00 %
09.01.2018 19:36 6,9 C 4,4 C 90 % 1014,0 hPa 0,0 l/m 10,9 km/h (2 Bft) O 93 0 min 0,000 mm 0,0 UV-I 0 W/m 5,4 C 3,6 C 16,1 km/h (3 Bft) 97,56 %
09.01.2018 19:38 6,8 C 4,4 C 90 % 1014,0 hPa 0,0 l/m 13,5 km/h (3 Bft) O-NO 71 0 min 0,000 mm 0,0 UV-I 0 W/m 5,3 C 2,0 C 17,7 km/h (3 Bft) 94,55 %
09.01.2018 19:40 6,9 C 4,4 C 90 % 1013,9 hPa 0,0 l/m 11,3 km/h (2 Bft) O 88 0 min 0,000 mm 0,0 UV-I 0 W/m 5,4 C 3,4 C 14,5 km/h (3 Bft) 97,62 %
09.01.2018 19:42 6,9 C 4,4 C 90 % 1013,9 hPa 0,0 l/m 11,1 km/h (2 Bft) O 83 0 min 0,000 mm 0,0 UV-I 0 W/m 5,4 C 3,5 C 17,7 km/h (3 Bft) 97,56 %
09.01.2018 19:44 6,9 C 4,4 C 90 % 1013,8 hPa 0,0 l/m 9,5 km/h (2 Bft) O 84 0 min 0,000 mm 0,0 UV-I 0 W/m 5,4 C 4,5 C 14,5 km/h (3 Bft) 96,23 %
09.01.2018 19:46 6,9 C 4,4 C 90 % 1013,9 hPa 0,0 l/m 9,6 km/h (2 Bft) O 85 0 min 0,000 mm 0,0 UV-I 0 W/m 5,4 C 4,4 C 14,5 km/h (3 Bft) 97,87 %
09.01.2018 19:48 6,8 C 4,4 C 90 % 1013,9 hPa 0,0 l/m 6,3 km/h (2 Bft) O-NO 66 0 min 0,000 mm 0,0 UV-I 0 W/m 5,3 C 6,8 C 9,7 km/h (2 Bft) 97,87 %
09.01.2018 19:50 6,7 C 4,4 C 90 % 1013,8 hPa 0,0 l/m 4,3 km/h (1 Bft) NO 42 0 min 0,000 mm 0,0 UV-I 0 W/m 5,2 C 6,7 C 8,0 km/h (2 Bft) 98,00 %
09.01.2018 19:53 6,5 C 4,4 C 91 % 1013,9 hPa 0,0 l/m 2,9 km/h (1 Bft) NO 37 0 min 0,000 mm 0,0 UV-I 0 W/m 5,1 C 6,5 C 6,4 km/h (2 Bft) 97,30 %
09.01.2018 19:54 6,4 C 4,4 C 91 % 1013,9 hPa 0,0 l/m 2,8 km/h (1 Bft) NO 37 0 min 0,000 mm 0,0 UV-I 0 W/m 5,0 C 6,4 C 4,8 km/h (1 Bft) 100,00 %
09.01.2018 19:56 6,2 C 4,4 C 91 % 1013,8 hPa 0,0 l/m 2,3 km/h (1 Bft) N-NO 32 0 min 0,000 mm 0,0 UV-I 0 W/m 4,8 C 6,2 C 6,4 km/h (2 Bft) 96,23 %
09.01.2018 19:58 6,1 C 4,4 C 92 % 1013,7 hPa 0,0 l/m 1,6 km/h (1 Bft) N-NO 32 0 min 0,000 mm 0,0 UV-I 0 W/m 4,9 C 6,1 C 3,2 km/h (1 Bft) 97,87 %
09.01.2018 20:00 6,1 C 4,4 C 92 % 1013,8 hPa 0,0 l/m 1,9 km/h (1 Bft) N-NO 31 0 min 0,000 mm 0,0 UV-I 0 W/m 4,9 C 6,1 C 3,2 km/h (1 Bft) 100,00 %
09.01.2018 20:02 6,1 C 4,4 C 93 % 1013,7 hPa 0,0 l/m 2,4 km/h (1 Bft) N-NO 31 0 min 0,000 mm 0,0 UV-I 0 W/m 5,1 C 6,1 C 4,8 km/h (1 Bft) 98,08 %
09.01.2018 20:04 6,2 C 4,4 C 92 % 1013,3 hPa 0,0 l/m 6,7 km/h (2 Bft) N-NO 26 0 min 0,000 mm 0,0 UV-I 0 W/m 5,0 C 6,0 C 11,3 km/h (2 Bft) 100,00 %
09.01.2018 20:06 6,2 C 4,4 C 92 % 1013,1 hPa 0,0 l/m 12,2 km/h (2 Bft) N-NO 18 0 min 0,000 mm 0,0 UV-I 0 W/m 5,0 C 2,0 C 14,5 km/h (3 Bft) 97,56 %
09.01.2018 20:07 6,2 C 4,4 C 92 % 1013,1 hPa 0,0 l/m 9,7 km/h (2 Bft) N-NO 22 0 min 0,000 mm 0,0 UV-I 0 W/m 5,0 C 3,6 C 14,5 km/h (3 Bft) 100,00 %
09.01.2018 20:08 6,2 C 4,4 C 92 % 1013,1 hPa 0,0 l/m 2,4 km/h (1 Bft) N-NO 21 0 min 0,000 mm 0,0 UV-I 0 W/m 5,0 C 6,2 C 3,2 km/h (1 Bft) 98,33 %
09.01.2018 20:09 6,2 C 4,4 C 92 % 1013,2 hPa 0,0 l/m 1,6 km/h (1 Bft) O-NO 67 0 min 0,000 mm 0,0 UV-I 0 W/m 5,0 C 6,2 C 4,8 km/h (1 Bft) 100,00 %
09.01.2018 20:10 6,2 C 4,4 C 92 % 1013,3 hPa 0,0 l/m 3,8 km/h (1 Bft) N-NW 339 0 min 0,000 mm 0,0 UV-I 0 W/m 5,0 C 6,2 C 4,8 km/h (1 Bft) 100,00 %
09.01.2018 20:15 6,4 C 4,4 C 92 % 1013,7 hPa 0,0 l/m 1,6 km/h (1 Bft) N 360 0 min 0,000 mm 0,0 UV-I 0 W/m 5,2 C 6,4 C 3,2 km/h (1 Bft) 24,56 %
09.01.2018 20:18 6,3 C 4,4 C 91 % 1013,7 hPa 0,0 l/m 0,2 km/h (0 Bft) N 5 0 min 0,000 mm 0,0 UV-I 0 W/m 4,9 C 6,3 C 3,2 km/h (1 Bft) 100,00 %
09.01.2018 20:20 6,3 C 4,4 C 91 % 1013,8 hPa 0,0 l/m 5,6 km/h (1 Bft) N-NO 31 0 min 0,000 mm 0,0 UV-I 0 W/m 4,9 C 6,3 C 8,0 km/h (2 Bft) 100,00 %
09.01.2018 20:23 6,3 C 4,4 C 91 % 1013,8 hPa 0,0 l/m 5,7 km/h (1 Bft) N-NO 28 0 min 0,000 mm 0,0 UV-I 0 W/m 4,9 C 6,3 C 8,0 km/h (2 Bft) 100,00 %
09.01.2018 20:24 6,3 C 4,4 C 91 % 1013,8 hPa 0,0 l/m 4,6 km/h (1 Bft) N-NO 26 0 min 0,000 mm 0,0 UV-I 0 W/m 4,9 C 6,3 C 8,0 km/h (2 Bft) 100,00 %
09.01.2018 20:26 6,2 C 4,4 C 91 % 1013,9 hPa 0,0 l/m 1,2 km/h (1 Bft) W 281 0 min 0,000 mm 0,0 UV-I 0 W/m 4,8 C 6,2 C 4,8 km/h (1 Bft) 100,00 %
09.01.2018 20:28 6,1 C 4,4 C 91 % 1014,0 hPa 0,0 l/m 3,0 km/h (1 Bft) W-NW 286 0 min 0,000 mm 0,0 UV-I 0 W/m 4,7 C 6,1 C 4,8 km/h (1 Bft) 97,87 %
09.01.2018 20:30 6,1 C 4,4 C 92 % 1013,9 hPa 0,0 l/m 0,6 km/h (0 Bft) W-NW 286 0 min 0,000 mm 0,0 UV-I 0 W/m 4,9 C 6,1 C 3,2 km/h (1 Bft) 100,00 %
09.01.2018 20:32 6,1 C 4,4 C 92 % 1013,9 hPa 0,0 l/m 0,1 km/h (0 Bft) W-NW 286 0 min 0,000 mm 0,0 UV-I 0 W/m 4,9 C 6,1 C 1,6 km/h (1 Bft) 100,00 %
09.01.2018 20:34 6,0 C 4,4 C 92 % 1013,9 hPa 0,0 l/m 0,1 km/h (0 Bft) W-NW 286 0 min 0,000 mm 0,0 UV-I 0 W/m 4,8 C 6,0 C 1,6 km/h (1 Bft) 100,00 %
09.01.2018 20:36 5,9 C 4,4 C 92 % 1013,9 hPa 0,0 l/m 1,7 km/h (1 Bft) W-NW 288 0 min 0,000 mm 0,0 UV-I 0 W/m 4,7 C 5,9 C 4,8 km/h (1 Bft) 97,87 %
09.01.2018 20:38 6,0 C 4,4 C 92 % 1013,9 hPa 0,0 l/m 1,0 km/h (0 Bft) W-NW 289 0 min 0,000 mm 0,0 UV-I 0 W/m 4,8 C 6,0 C 3,2 km/h (1 Bft) 97,87 %
09.01.2018 20:40 6,0 C 4,4 C 92 % 1013,9 hPa 0,0 l/m 1,8 km/h (1 Bft) W-NW 292 0 min 0,000 mm 0,0 UV-I 0 W/m 4,8 C 6,0 C 3,2 km/h (1 Bft) 97,14 %
09.01.2018 20:42 6,0 C 4,4 C 92 % 1014,0 hPa 0,0 l/m 3,3 km/h (1 Bft) O-NO 64 0 min 0,000 mm 0,0 UV-I 0 W/m 4,8 C 6,0 C 4,8 km/h (1 Bft) 96,30 %
09.01.2018 20:44 5,7 C 4,4 C 91 % 1013,9 hPa 0,0 l/m 6,0 km/h (2 Bft) O 90 0 min 0,000 mm 0,0 UV-I 0 W/m 4,3 C 5,7 C 9,7 km/h (2 Bft) 98,00 %
09.01.2018 20:46 5,7 C 4,4 C 93 % 1013,9 hPa 0,0 l/m 5,5 km/h (1 Bft) O 84 0 min 0,000 mm 0,0 UV-I 0 W/m 4,7 C 5,7 C 9,7 km/h (2 Bft) 97,37 %
09.01.2018 20:48 5,8 C 4,4 C 93 % 1013,9 hPa 0,0 l/m 3,8 km/h (1 Bft) O 84 0 min 0,000 mm 0,0 UV-I 0 W/m 4,8 C 5,8 C 6,4 km/h (2 Bft) 97,87 %
09.01.2018 20:50 6,0 C 4,4 C 93 % 1013,8 hPa 0,0 l/m 4,8 km/h (1 Bft) O 81 0 min 0,000 mm 0,0 UV-I 0 W/m 5,0 C 6,0 C 6,4 km/h (2 Bft) 98,21 %
09.01.2018 20:52 6,1 C 4,4 C 92 % 1013,7 hPa 0,0 l/m 4,8 km/h (1 Bft) O-NO 67 0 min 0,000 mm 0,0 UV-I 0 W/m 4,9 C 6,1 C 8,0 km/h (2 Bft) 96,30 %
09.01.2018 20:54 6,2 C 4,4 C 92 % 1013,7 hPa 0,0 l/m 5,7 km/h (1 Bft) O-NO 59 0 min 0,000 mm 0,0 UV-I 0 W/m 5,0 C 6,2 C 8,0 km/h (2 Bft) 97,73 %
09.01.2018 20:56 6,2 C 4,4 C 92 % 1013,7 hPa 0,0 l/m 5,2 km/h (1 Bft) NO 54 0 min 0,000 mm 0,0 UV-I 0 W/m 5,0 C 6,2 C 8,0 km/h (2 Bft) 97,14 %
09.01.2018 20:58 6,2 C 4,4 C 91 % 1013,7 hPa 0,0 l/m 2,8 km/h (1 Bft) NO 54 0 min 0,000 mm 0,0 UV-I 0 W/m 4,8 C 6,2 C 4,8 km/h (1 Bft) 97,87 %
09.01.2018 21:00 6,1 C 4,4 C 92 % 1013,7 hPa 0,0 l/m 0,2 km/h (0 Bft) NO 54 0 min 0,000 mm 0,0 UV-I 0 W/m 4,9 C 6,1 C 3,2 km/h (1 Bft) 97,87 %
09.01.2018 21:02 5,9 C 4,4 C 92 % 1013,7 hPa 0,0 l/m 0,0 km/h (0 Bft) NO 54 0 min 0,000 mm 0,0 UV-I 0 W/m 4,7 C 5,9 C 0,0 km/h (0 Bft) 97,92 %
09.01.2018 21:04 5,8 C 4,4 C 92 % 1013,8 hPa 0,0 l/m 0,0 km/h (0 Bft) NO 54 0 min 0,000 mm 0,0 UV-I 0 W/m 4,6 C 5,8 C 0,0 km/h (0 Bft) 97,73 %
09.01.2018 21:06 5,7 C 4,4 C 92 % 1013,9 hPa 0,0 l/m 0,0 km/h (0 Bft) NO 54 0 min 0,000 mm 0,0 UV-I 0 W/m 4,5 C 5,7 C 0,0 km/h (0 Bft) 97,87 %
09.01.2018 21:08 5,6 C 4,4 C 92 % 1013,7 hPa 0,0 l/m 0,6 km/h (0 Bft) NO 54 0 min 0,000 mm 0,0 UV-I 0 W/m 4,4 C 5,6 C 3,2 km/h (1 Bft) 97,14 %
09.01.2018 21:10 5,7 C 4,4 C 93 % 1013,6 hPa 0,0 l/m 4,4 km/h (1 Bft) NO 54 0 min 0,000 mm 0,0 UV-I 0 W/m 4,7 C 5,7 C 6,4 km/h (2 Bft) 98,11 %
09.01.2018 21:13 5,7 C 4,4 C 93 % 1013,8 hPa 0,0 l/m 6,4 km/h (2 Bft) O 82 0 min 0,000 mm 0,0 UV-I 0 W/m 4,7 C 5,7 C 9,7 km/h (2 Bft) 97,37 %
09.01.2018 21:14 5,7 C 4,4 C 93 % 1013,8 hPa 0,0 l/m 7,8 km/h (2 Bft) O-NO 77 0 min 0,000 mm 0,0 UV-I 0 W/m 4,7 C 4,5 C 9,7 km/h (2 Bft) 100,00 %
09.01.2018 21:16 5,7 C 4,4 C 93 % 1013,8 hPa 0,0 l/m 7,5 km/h (2 Bft) O-NO 67 0 min 0,000 mm 0,0 UV-I 0 W/m 4,7 C 4,8 C 9,7 km/h (2 Bft) 97,87 %
09.01.2018 21:18 5,9 C 4,4 C 93 % 1013,7 hPa 0,0 l/m 7,1 km/h (2 Bft) O-NO 63 0 min 0,000 mm 0,0 UV-I 0 W/m 4,9 C 5,3 C 11,3 km/h (2 Bft) 100,00 %
09.01.2018 21:20 5,9 C 4,4 C 92 % 1013,8 hPa 0,0 l/m 8,0 km/h (2 Bft) NO 54 0 min 0,000 mm 0,0 UV-I 0 W/m 4,7 C 4,5 C 11,3 km/h (2 Bft) 98,00 %
09.01.2018 21:23 5,9 C 4,4 C 92 % 1013,6 hPa 0,0 l/m 7,8 km/h (2 Bft) O-NO 65 0 min 0,000 mm 0,0 UV-I 0 W/m 4,7 C 4,7 C 12,9 km/h (3 Bft) 98,39 %
09.01.2018 21:24 6,0 C 4,4 C 92 % 1013,6 hPa 0,0 l/m 8,3 km/h (2 Bft) O-NO 71 0 min 0,000 mm 0,0 UV-I 0 W/m 4,8 C 4,4 C 11,3 km/h (2 Bft) 100,00 %
09.01.2018 21:26 6,2 C 4,4 C 92 % 1013,6 hPa 0,0 l/m 9,5 km/h (2 Bft) O 86 0 min 0,000 mm 0,0 UV-I 0 W/m 5,0 C 3,7 C 12,9 km/h (3 Bft) 100,00 %
09.01.2018 21:28 6,3 C 4,4 C 91 % 1013,6 hPa 0,0 l/m 9,6 km/h (2 Bft) O-NO 60 0 min 0,000 mm 0,0 UV-I 0 W/m 4,9 C 3,8 C 14,5 km/h (3 Bft) 100,00 %
09.01.2018 21:30 6,3 C 4,4 C 91 % 1013,6 hPa 0,0 l/m 9,4 km/h (2 Bft) O 79 0 min 0,000 mm 0,0 UV-I 0 W/m 4,9 C 3,9 C 12,9 km/h (3 Bft) 100,00 %
09.01.2018 21:33 6,4 C 4,4 C 91 % 1013,6 hPa 0,0 l/m 10,4 km/h (2 Bft) O-NO 71 0 min 0,000 mm 0,0 UV-I 0 W/m 5,0 C 3,4 C 16,1 km/h (3 Bft) 100,00 %
09.01.2018 21:34 6,4 C 4,4 C 91 % 1013,6 hPa 0,0 l/m 10,9 km/h (2 Bft) O-NO 59 0 min 0,000 mm 0,0 UV-I 0 W/m 5,0 C 3,0 C 14,5 km/h (3 Bft) 100,00 %
09.01.2018 21:36 6,4 C 4,4 C 91 % 1013,6 hPa 0,0 l/m 11,2 km/h (2 Bft) O 83 0 min 0,000 mm 0,0 UV-I 0 W/m 5,0 C 2,8 C 16,1 km/h (3 Bft) 100,00 %
09.01.2018 21:38 6,5 C 4,4 C 90 % 1013,6 hPa 0,0 l/m 14,1 km/h (3 Bft) O 86 0 min 0,000 mm 0,0 UV-I 0 W/m 5,0 C 1,3 C 17,7 km/h (3 Bft) 97,73 %
09.01.2018 21:40 6,6 C 4,4 C 90 % 1013,4 hPa 0,0 l/m 11,4 km/h (2 Bft) O-NO 71 0 min 0,000 mm 0,0 UV-I 0 W/m 5,1 C 3,0 C 17,7 km/h (3 Bft) 98,00 %
09.01.2018 21:43 6,4 C 4,4 C 90 % 1013,5 hPa 0,0 l/m 11,0 km/h (2 Bft) O-NO 71 0 min 0,000 mm 0,0 UV-I 0 W/m 4,9 C 3,0 C 16,1 km/h (3 Bft) 100,00 %
09.01.2018 21:44 6,4 C 4,4 C 90 % 1013,5 hPa 0,0 l/m 11,3 km/h (2 Bft) NO 56 0 min 0,000 mm 0,0 UV-I 0 W/m 4,9 C 2,8 C 12,9 km/h (3 Bft) 100,00 %
09.01.2018 21:46 6,4 C 4,4 C 90 % 1013,6 hPa 0,0 l/m 12,7 km/h (3 Bft) O 82 0 min 0,000 mm 0,0 UV-I 0 W/m 4,9 C 2,0 C 16,1 km/h (3 Bft) 98,00 %
09.01.2018 21:48 6,4 C 4,4 C 90 % 1013,6 hPa 0,0 l/m 11,6 km/h (2 Bft) O-NO 69 0 min 0,000 mm 0,0 UV-I 0 W/m 4,9 C 2,6 C 14,5 km/h (3 Bft) 100,00 %
09.01.2018 21:50 6,5 C 4,4 C 90 % 1013,7 hPa 0,0 l/m 10,4 km/h (2 Bft) O-NO 65 0 min 0,000 mm 0,0 UV-I 0 W/m 5,0 C 3,5 C 14,5 km/h (3 Bft) 100,00 %
09.01.2018 21:53 6,6 C 4,4 C 90 % 1013,7 hPa 0,0 l/m 11,4 km/h (2 Bft) O 84 0 min 0,000 mm 0,0 UV-I 0 W/m 5,1 C 3,0 C 16,1 km/h (3 Bft) 98,75 %
09.01.2018 21:54 6,6 C 4,4 C 90 % 1013,7 hPa 0,0 l/m 15,6 km/h (3 Bft) O-NO 69 0 min 0,000 mm 0,0 UV-I 0 W/m 5,1 C 0,7 C 19,3 km/h (3 Bft) 95,65 %
09.01.2018 21:56 6,6 C 4,4 C 90 % 1013,7 hPa 0,0 l/m 12,5 km/h (3 Bft) O-NO 67 0 min 0,000 mm 0,0 UV-I 0 W/m 5,1 C 2,3 C 17,7 km/h (3 Bft) 100,00 %
09.01.2018 21:58 6,6 C 4,4 C 90 % 1013,7 hPa 0,0 l/m 14,1 km/h (3 Bft) O-NO 67 0 min 0,000 mm 0,0 UV-I 0 W/m 5,1 C 1,5 C 20,9 km/h (4 Bft) 100,00 %
09.01.2018 22:00 6,6 C 4,4 C 90 % 1013,6 hPa 0,0 l/m 12,1 km/h (2 Bft) O-NO 64 0 min 0,000 mm 0,0 UV-I 0 W/m 5,1 C 2,5 C 16,1 km/h (3 Bft) 100,00 %
09.01.2018 22:03 6,4 C 4,4 C 90 % 1013,6 hPa 0,0 l/m 9,7 km/h (2 Bft) O-NO 64 0 min 0,000 mm 0,0 UV-I 0 W/m 4,9 C 3,8 C 14,5 km/h (3 Bft) 97,37 %
09.01.2018 22:04 6,3 C 4,4 C 90 % 1013,6 hPa 0,0 l/m 9,7 km/h (2 Bft) O-NO 65 0 min 0,000 mm 0,0 UV-I 0 W/m 4,8 C 3,7 C 12,9 km/h (3 Bft) 100,00 %
09.01.2018 22:06 6,3 C 4,4 C 90 % 1013,6 hPa 0,0 l/m 10,0 km/h (2 Bft) O-NO 67 0 min 0,000 mm 0,0 UV-I 0 W/m 4,8 C 3,5 C 14,5 km/h (3 Bft) 100,00 %
09.01.2018 22:08 6,2 C 4,4 C 91 % 1013,6 hPa 0,0 l/m 10,2 km/h (2 Bft) O 82 0 min 0,000 mm 0,0 UV-I 0 W/m 4,8 C 3,3 C 14,5 km/h (3 Bft) 100,00 %
09.01.2018 22:10 6,1 C 4,4 C 91 % 1013,6 hPa 0,0 l/m 9,5 km/h (2 Bft) O-NO 67 0 min 0,000 mm 0,0 UV-I 0 W/m 4,7 C 3,6 C 12,9 km/h (3 Bft) 100,00 %
09.01.2018 22:12 6,1 C 4,4 C 91 % 1013,5 hPa 0,0 l/m 9,7 km/h (2 Bft) O-NO 67 0 min 0,000 mm 0,0 UV-I 0 W/m 4,7 C 3,5 C 12,9 km/h (3 Bft) 100,00 %
09.01.2018 22:14 6,1 C 4,4 C 91 % 1013,4 hPa 0,0 l/m 9,4 km/h (2 Bft) O-NO 61 0 min 0,000 mm 0,0 UV-I 0 W/m 4,7 C 3,7 C 12,9 km/h (3 Bft) 97,37 %
09.01.2018 22:16 6,1 C 4,4 C 91 % 1013,3 hPa 0,0 l/m 9,8 km/h (2 Bft) NO 51 0 min 0,000 mm 0,0 UV-I 0 W/m 4,7 C 3,4 C 14,5 km/h (3 Bft) 100,00 %
09.01.2018 22:18 6,1 C 4,4 C 91 % 1013,2 hPa 0,0 l/m 12,2 km/h (2 Bft) O-NO 59 0 min 0,000 mm 0,0 UV-I 0 W/m 4,7 C 1,9 C 16,1 km/h (3 Bft) 100,00 %
09.01.2018 22:20 6,1 C 4,4 C 91 % 1013,3 hPa 0,0 l/m 11,3 km/h (2 Bft) O-NO 67 0 min 0,000 mm 0,0 UV-I 0 W/m 4,7 C 2,4 C 16,1 km/h (3 Bft) 100,00 %
09.01.2018 22:22 6,0 C 4,4 C 91 % 1013,5 hPa 0,0 l/m 10,0 km/h (2 Bft) O-NO 73 0 min 0,000 mm 0,0 UV-I 0 W/m 4,6 C 3,2 C 12,9 km/h (3 Bft) 100,00 %
09.01.2018 22:24 5,9 C 4,4 C 91 % 1013,5 hPa 0,0 l/m 8,3 km/h (2 Bft) O-NO 63 0 min 0,000 mm 0,0 UV-I 0 W/m 4,5 C 4,3 C 11,3 km/h (2 Bft) 98,00 %
09.01.2018 22:26 5,9 C 4,4 C 91 % 1013,5 hPa 0,0 l/m 7,2 km/h (2 Bft) O-NO 62 0 min 0,000 mm 0,0 UV-I 0 W/m 4,5 C 5,2 C 9,7 km/h (2 Bft) 100,00 %
09.01.2018 22:28 5,9 C 4,4 C 91 % 1013,6 hPa 0,0 l/m 6,6 km/h (2 Bft) O-NO 62 0 min 0,000 mm 0,0 UV-I 0 W/m 4,5 C 5,8 C 9,7 km/h (2 Bft) 100,00 %
09.01.2018 22:30 5,9 C 4,4 C 91 % 1013,6 hPa 0,0 l/m 6,4 km/h (2 Bft) O-NO 65 0 min 0,000 mm 0,0 UV-I 0 W/m 4,5 C 5,9 C 8,0 km/h (2 Bft) 100,00 %
09.01.2018 22:33 5,9 C 4,4 C 91 % 1013,6 hPa 0,0 l/m 8,1 km/h (2 Bft) O 84 0 min 0,000 mm 0,0 UV-I 0 W/m 4,5 C 4,5 C 14,5 km/h (3 Bft) 100,00 %
09.01.2018 22:34 6,0 C 4,4 C 91 % 1013,6 hPa 0,0 l/m 7,2 km/h (2 Bft) O-NO 76 0 min 0,000 mm 0,0 UV-I 0 W/m 4,6 C 5,3 C 8,0 km/h (2 Bft) 100,00 %
09.01.2018 22:36 6,1 C 4,4 C 91 % 1013,4 hPa 0,0 l/m 9,1 km/h (2 Bft) O-NO 69 0 min 0,000 mm 0,0 UV-I 0 W/m 4,7 C 3,9 C 14,5 km/h (3 Bft) 100,00 %
09.01.2018 22:38 6,2 C 4,4 C 91 % 1013,4 hPa 0,0 l/m 8,3 km/h (2 Bft) O-NO 67 0 min 0,000 mm 0,0 UV-I 0 W/m 4,8 C 4,6 C 14,5 km/h (3 Bft) 100,00 %
09.01.2018 22:40 6,2 C 4,4 C 91 % 1013,3 hPa 0,0 l/m 8,8 km/h (2 Bft) O 92 0 min 0,000 mm 0,0 UV-I 0 W/m 4,8 C 4,2 C 12,9 km/h (3 Bft) 100,00 %
09.01.2018 22:43 6,1 C 4,4 C 91 % 1013,3 hPa 0,0 l/m 4,1 km/h (1 Bft) NO 51 0 min 0,000 mm 0,0 UV-I 0 W/m 4,7 C 6,1 C 9,7 km/h (2 Bft) 98,57 %
09.01.2018 22:44 6,1 C 4,4 C 90 % 1013,3 hPa 0,0 l/m 2,6 km/h (1 Bft) NO 51 0 min 0,000 mm 0,0 UV-I 0 W/m 4,6 C 6,1 C 4,8 km/h (1 Bft) 96,30 %
09.01.2018 22:46 5,8 C 4,4 C 90 % 1013,3 hPa 0,0 l/m 4,4 km/h (1 Bft) N-NO 31 0 min 0,000 mm 0,0 UV-I 0 W/m 4,3 C 5,8 C 6,4 km/h (2 Bft) 97,87 %
09.01.2018 22:48 5,6 C 4,4 C 91 % 1013,3 hPa 0,0 l/m 5,0 km/h (1 Bft) O-NO 58 0 min 0,000 mm 0,0 UV-I 0 W/m 4,2 C 5,6 C 6,4 km/h (2 Bft) 98,00 %
09.01.2018 22:50 5,6 C 4,4 C 92 % 1013,3 hPa 0,0 l/m 6,4 km/h (2 Bft) O-NO 63 0 min 0,000 mm 0,0 UV-I 0 W/m 4,4 C 5,6 C 11,3 km/h (2 Bft) 97,87 %
09.01.2018 22:52 5,6 C 4,4 C 92 % 1013,4 hPa 0,0 l/m 6,5 km/h (2 Bft) O-NO 71 0 min 0,000 mm 0,0 UV-I 0 W/m 4,4 C 5,5 C 8,0 km/h (2 Bft) 95,12 %
09.01.2018 22:54 5,7 C 4,4 C 92 % 1013,5 hPa 0,0 l/m 5,5 km/h (1 Bft) NO 55 0 min 0,000 mm 0,0 UV-I 0 W/m 4,5 C 5,7 C 8,0 km/h (2 Bft) 93,62 %
09.01.2018 22:56 5,8 C 4,4 C 92 % 1013,6 hPa 0,0 l/m 3,6 km/h (1 Bft) NO 55 0 min 0,000 mm 0,0 UV-I 0 W/m 4,6 C 5,8 C 4,8 km/h (1 Bft) 93,62 %
09.01.2018 22:58 5,8 C 4,4 C 92 % 1013,6 hPa 0,0 l/m 2,6 km/h (1 Bft) NO 55 0 min 0,000 mm 0,0 UV-I 0 W/m 4,6 C 5,8 C 4,8 km/h (1 Bft) 94,00 %
09.01.2018 23:00 5,7 C 4,4 C 92 % 1013,6 hPa 0,0 l/m 1,2 km/h (1 Bft) NO 55 0 min 0,000 mm 0,0 UV-I 0 W/m 4,5 C 5,7 C 3,2 km/h (1 Bft) 94,87 %
09.01.2018 23:02 5,6 C 4,4 C 92 % 1013,5 hPa 0,0 l/m 0,6 km/h (0 Bft) NO 55 0 min 0,000 mm 0,0 UV-I 0 W/m 4,4 C 5,6 C 1,6 km/h (1 Bft) 95,92 %
09.01.2018 23:04 5,5 C 4,4 C 92 % 1013,4 hPa 0,0 l/m 3,1 km/h (1 Bft) NO 55 0 min 0,000 mm 0,0 UV-I 0 W/m 4,3 C 5,5 C 4,8 km/h (1 Bft) 93,75 %
09.01.2018 23:06 5,5 C 4,4 C 92 % 1013,3 hPa 0,0 l/m 4,7 km/h (1 Bft) NO 55 0 min 0,000 mm 0,0 UV-I 0 W/m 4,3 C 5,5 C 6,4 km/h (2 Bft) 98,00 %
09.01.2018 23:08 5,7 C 4,4 C 93 % 1013,2 hPa 0,0 l/m 5,9 km/h (2 Bft) O-NO 57 0 min 0,000 mm 0,0 UV-I 0 W/m 4,7 C 5,7 C 8,0 km/h (2 Bft) 96,00 %
09.01.2018 23:10 5,8 C 4,4 C 92 % 1013,2 hPa 0,0 l/m 5,0 km/h (1 Bft) NO 56 0 min 0,000 mm 0,0 UV-I 0 W/m 4,6 C 5,8 C 6,4 km/h (2 Bft) 93,18 %
09.01.2018 23:12 5,7 C 4,4 C 92 % 1013,3 hPa 0,0 l/m 5,8 km/h (2 Bft) O-NO 67 0 min 0,000 mm 0,0 UV-I 0 W/m 4,5 C 5,7 C 6,4 km/h (2 Bft) 93,62 %
09.01.2018 23:14 5,4 C 4,4 C 92 % 1013,4 hPa 0,0 l/m 5,0 km/h (1 Bft) SO 142 0 min 0,000 mm 0,0 UV-I 0 W/m 4,2 C 5,4 C 6,4 km/h (2 Bft) 94,29 %
09.01.2018 23:16 5,3 C 4,4 C 92 % 1013,5 hPa 0,0 l/m 4,9 km/h (1 Bft) O-SO 114 0 min 0,000 mm 0,0 UV-I 0 W/m 4,1 C 5,3 C 6,4 km/h (2 Bft) 94,34 %
09.01.2018 23:18 5,2 C 4,4 C 92 % 1013,4 hPa 0,0 l/m 5,3 km/h (1 Bft) SO 138 0 min 0,000 mm 0,0 UV-I 0 W/m 4,0 C 5,2 C 9,7 km/h (2 Bft) 94,00 %
09.01.2018 23:20 5,4 C 4,4 C 94 % 1013,4 hPa 0,0 l/m 6,4 km/h (2 Bft) O-SO 112 0 min 0,000 mm 0,0 UV-I 0 W/m 4,5 C 5,4 C 11,3 km/h (2 Bft) 94,74 %
09.01.2018 23:25 5,9 C 4,4 C 92 % 1013,1 hPa 0,0 l/m 8,0 km/h (2 Bft) O-NO 67 0 min 0,000 mm 0,0 UV-I 0 W/m 4,7 C 4,5 C 16,1 km/h (3 Bft) 96,49 %
09.01.2018 23:30 6,1 C 4,4 C 91 % 1013,3 hPa 0,0 l/m 6,4 km/h (2 Bft) O 90 0 min 0,000 mm 0,0 UV-I 0 W/m 4,7 C 6,1 C 11,3 km/h (2 Bft) 94,74 %
09.01.2018 23:36 5,8 C 4,4 C 91 % 1013,6 hPa 0,0 l/m 0,2 km/h (0 Bft) S-SO 160 0 min 0,000 mm 0,0 UV-I 0 W/m 4,4 C 5,8 C 1,6 km/h (1 Bft) 94,74 %
09.01.2018 23:38 5,8 C 4,4 C 91 % 1013,6 hPa 0,0 l/m 0,3 km/h (0 Bft) S-SO 160 0 min 0,000 mm 0,0 UV-I 0 W/m 4,4 C 5,8 C 3,2 km/h (1 Bft) 97,22 %
09.01.2018 23:40 5,8 C 4,4 C 91 % 1013,6 hPa 0,0 l/m 0,7 km/h (0 Bft) S-SO 160 0 min 0,000 mm 0,0 UV-I 0 W/m 4,4 C 5,8 C 3,2 km/h (1 Bft) 96,23 %
09.01.2018 23:44 5,4 C 4,4 C 92 % 1013,5 hPa 0,0 l/m 0,1 km/h (0 Bft) S-SO 160 0 min 0,000 mm 0,0 UV-I 0 W/m 4,2 C 5,4 C 1,6 km/h (1 Bft) 98,08 %
09.01.2018 23:46 5,3 C 4,4 C 92 % 1013,5 hPa 0,0 l/m 2,4 km/h (1 Bft) S-SO 160 0 min 0,000 mm 0,0 UV-I 0 W/m 4,1 C 5,3 C 6,4 km/h (2 Bft) 97,14 %
09.01.2018 23:48 5,3 C 4,4 C 93 % 1013,4 hPa 0,0 l/m 2,9 km/h (1 Bft) S-SO 160 0 min 0,000 mm 0,0 UV-I 0 W/m 4,3 C 5,3 C 6,4 km/h (2 Bft) 97,87 %
09.01.2018 23:50 5,4 C 4,4 C 93 % 1013,4 hPa 0,0 l/m 2,7 km/h (1 Bft) S-SO 160 0 min 0,000 mm 0,0 UV-I 0 W/m 4,4 C 5,4 C 6,4 km/h (2 Bft) 98,00 %
09.01.2018 23:52 5,4 C 4,4 C 93 % 1013,4 hPa 0,0 l/m 1,8 km/h (1 Bft) S-SO 160 0 min 0,000 mm 0,0 UV-I 0 W/m 4,4 C 5,4 C 3,2 km/h (1 Bft) 98,00 %
09.01.2018 23:54 5,4 C 4,4 C 92 % 1013,3 hPa 0,0 l/m 3,5 km/h (1 Bft) O-SO 120 0 min 0,000 mm 0,0 UV-I 0 W/m 4,2 C 5,4 C 8,0 km/h (2 Bft) 97,37 %
09.01.2018 23:56 5,4 C 4,4 C 93 % 1013,2 hPa 0,0 l/m 2,3 km/h (1 Bft) O-SO 120 0 min 0,000 mm 0,0 UV-I 0 W/m 4,4 C 5,4 C 3,2 km/h (1 Bft) 98,04 %
09.01.2018 23:58 5,3 C 4,4 C 92 % 1013,1 hPa 0,0 l/m 0,4 km/h (0 Bft) O-SO 120 0 min 0,000 mm 0,0 UV-I 0 W/m 4,1 C 5,3 C 1,6 km/h (1 Bft) 98,18 %
_ Min-Zeit 00:06 00:00 13:36 16:36 - 16:16 - - - - - - 00:00 00:44 00:02 00:02
Minimum _ 3,7 C 4,4 C 72 % 1012,3 hPa - 0,0 km/h (0 Bft) - - - - - - 3,2 C -8,7 C 0,0 km/h (0 Bft) 0,00 %
_ Max-Zeit 13:33 00:00 00:10 00:01 00:00 06:44 - - 08:05 13:02 12:38 12:44 13:26 16:10 07:14 00:04
Maximum _ 11,8 C 4,4 C 97 % 1021,5 hPa 0,0 l/m 35,8 km/h
O-NO (5 Bft)
- - 3 min 0,178 mm 0,6 UV-I 392 W/m 7,1 C 9,3 C 51,5 km/h
NO (7 Bft)
100,00 %
Durchschnitt _ 7,2 C 4,4 C 88 % 1015,6 hPa #0,0 l/m 16,8 km/h (3 Bft) O-NO - #3:08 h #0,991 mm 0,5 UV-I 122 W/m 5,2 C 1,5 C 24,0 km/h (4 Bft) 97,53 %